[[{"header":{"parameterUnit":"m.s-1","parameterCategory":1,"la1":31.0,"la2":29.5877,"lo1":-88.7671,"lo2":-86.6584,"dy":0.0162,"dx":0.0185,"nx":115,"ny":88,"refTime":"2024-04-10T12:00:00:Z","depth":0,"parameterNumber":2,"parameterNumberName":"U-component_of_WINDS"},"data":[0.0,0.0,0.0,0.0,0.0,0.0,0.0,0.0,0.0,0.0,0.0,0.0,0.0,0.0,0.0,0.0,0.0,0.0,0.0,0.0,0.0,0.0,0.0,0.0,0.0,0.0,0.0,0.0,0.0,0.0,0.0,0.0,0.0,0.0,0.0,0.0,0.0,0.0,0.0,0.0,0.0,0.0,0.0,0.0,0.0,0.0,0.0,0.0,0.0,0.0,0.0,0.0,0.0,0.0,0.0,0.0,0.0,0.0,0.0,0.0,0.0,0.0,0.0,0.0,0.0,0.0,0.0,0.0,0.0,0.0,0.0,0.0,0.0,0.0,0.0,0.0,0.0,0.0,0.0,0.0,0.0,0.0,0.0,0.0,0.0,0.0,0.0,0.0,0.0,0.0,0.0,0.0,0.0,0.0,0.0,0.0,0.0,0.0,0.0,0.0,0.0,0.0,0.0,0.0,0.0,0.0,0.0,0.0,0.0,0.0,0.0,0.0,0.0,0.0,0.0,0.0,0.0,0.0,0.0,0.0,0.0,0.0,0.0,0.0,0.0,0.0,0.0,0.0,0.0,0.0,0.0,0.0,0.0,0.0,0.0,0.0,0.0,0.0,0.0,0.0,0.0,0.0,0.0,0.0,0.0,0.0,0.0,0.0,0.0,0.0,0.0,0.0,0.0,0.0,0.0,0.0,0.0,0.0,0.0,0.0,0.0,0.0,0.0,0.0,0.0,0.0,0.0,0.0,0.0,0.0,0.0,0.0,0.0,0.0,0.0,0.0,0.0,0.0,0.0,0.0,0.0,0.0,0.0,0.0,0.0,0.0,0.0,0.0,0.0,0.0,0.0,0.0,0.0,0.0,0.0,0.0,0.0,0.0,0.0,0.0,0.0,0.0,0.0,0.0,0.0,0.0,0.0,0.0,0.0,0.0,0.0,0.0,0.0,0.0,0.0,0.0,0.0,0.0,0.0,0.0,0.0,0.0,0.0,0.0,0.0,0.0,0.0,0.0,0.0,0.0,0.0,0.0,0.0,0.0,0.0,0.0,0.0,0.0,0.0,0.0,0.0,0.0,0.0,0.0,0.0,0.0,0.0,0.0,0.0,0.0,0.0,0.0,0.0,0.0,0.0,0.0,0.0,0.0,0.0,0.0,0.0,0.0,0.0,0.0,0.0,0.0,0.0,0.0,0.0,0.0,0.0,0.0,0.0,0.0,0.0,0.0,0.0,0.0,0.0,0.0,0.0,0.0,0.0,0.0,0.0,0.0,0.0,0.0,0.0,0.0,0.0,0.0,0.0,0.0,0.0,0.0,0.0,0.0,0.0,0.0,0.0,0.0,0.0,0.0,0.0,0.0,0.0,0.0,0.0,0.0,0.0,0.0,0.0,0.0,0.0,0.0,0.0,0.0,0.0,0.0,0.0,0.0,0.0,0.0,0.0,0.0,0.0,0.0,0.0,0.0,0.0,0.0,0.0,0.0,0.0,0.0,0.0,0.0,0.0,0.0,0.0,0.0,0.0,0.0,0.0,0.0,0.0,0.0,0.0,0.0,0.0,0.0,0.0,0.0,0.0,0.0,0.0,0.0,0.0,0.0,0.0,0.0,0.0,0.0,0.0,0.0,0.0,0.0,0.0,0.0,0.0,0.0,0.0,0.0,0.0,0.0,0.0,0.0,0.0,0.0,0.0,0.0,0.0,0.0,0.0,0.0,0.0,0.0,0.0,0.0,0.0,0.0,0.0,0.0,0.0,0.0,0.0,0.0,0.0,0.0,0.0,0.0,0.0,0.0,0.0,0.0,0.0,0.0,0.0,0.0,0.0,0.0,0.0,0.0,0.0,0.0,0.0,0.0,0.0,0.0,0.0,0.0,0.0,0.0,0.0,0.0,0.0,0.0,0.0,0.0,0.0,0.0,0.0,0.0,0.0,0.0,0.0,0.0,0.0,0.0,0.0,0.0,0.0,0.0,0.0,0.0,0.0,0.0,0.0,0.0,0.0,0.0,0.0,0.0,0.0,0.0,0.0,0.0,0.0,0.0,0.0,0.0,0.0,0.0,0.0,0.0,0.0,0.0,0.0,0.0,0.0,0.0,0.0,0.0,0.0,0.0,0.0,0.0,0.0,0.0,0.0,0.0,0.0,0.0,0.0,0.0,0.0,0.0,0.0,0.0,0.0,0.0,0.0,0.0,0.0,0.0,0.0,0.0,0.0,0.0,0.0,0.0,0.0,0.0,0.0,0.0,0.0,0.0,0.0,0.0,0.0,0.0,0.0,0.0,0.0,0.0,0.0,0.0,0.0,0.0,0.0,0.0,0.0,0.0,0.0,0.0,0.0,0.0,0.0,0.0,0.0,0.0,0.0,0.0,0.0,0.0,0.0,0.0,0.0,0.0,0.0,0.0,0.0,0.0,0.0,0.0,0.0,0.0,0.0,0.0,0.0,0.0,0.0,0.0,0.0,0.0,0.0,0.0,0.0,0.0,0.0,0.0,0.0,0.0,0.0,0.0,0.0,0.0,0.0,0.0,0.0,0.0,0.0,0.0,0.0,0.0,0.0,0.0,0.0,0.0,0.0,0.0,0.0,0.0,0.0,0.0,0.0,0.0,0.0,0.0,0.0,0.0,0.0,0.0,0.0,0.0,0.0,0.0,0.0,0.0,0.0,0.0,0.0,0.0,0.0,0.0,0.0,0.0,0.0,0.0,0.0,0.0,0.0,0.0,0.0,0.0,0.0,0.0,0.0,0.0,0.0,0.0,0.0,0.0,0.0,0.0,0.0,0.0,0.0,0.0,0.0,0.0,0.0,0.0,0.0,0.0,0.0,0.0,0.0,0.0,0.0,0.0,0.0,0.0,0.0,0.0,0.0,0.0,0.0,0.0,0.0,0.0,0.0,0.0,0.0,0.0,0.0,0.0,0.0,0.0,0.0,0.0,0.0,0.0,0.0,0.0,0.0,0.0,0.0,0.0,0.0,0.0,0.0,0.0,0.0,0.0,0.0,0.0,0.0,0.0,0.0,0.0,0.0,0.0,0.0,0.0,0.0,0.0,0.0,0.0,0.0,0.0,0.0,0.0,0.0,0.0,0.0,0.0,0.0,0.0,0.0,0.0,0.0,0.0,0.0,0.0,0.0,0.0,0.0,0.0,0.0,0.0,0.0,0.0,0.0,0.0,0.0,0.0,0.0,0.0,0.0,0.0,0.0,0.0,0.0,0.0,0.0,0.0,0.0,0.0,0.0,0.0,0.0,0.0,0.0,0.0,0.0,0.0,0.0,0.0,0.0,0.0,0.0,0.0,0.0,0.0,0.0,0.0,0.0,0.0,0.0,0.0,0.0,0.0,0.0,0.0,0.0,0.0,0.0,0.0,0.0,0.0,0.0,0.0,0.0,0.0,0.0,0.0,0.0,0.0,0.0,0.0,0.0,0.0,0.0,0.0,0.0,0.0,0.0,0.0,0.0,0.0,0.0,0.0,0.0,0.0,0.0,0.0,0.0,0.0,0.0,0.0,0.0,0.0,0.0,0.0,0.0,0.0,0.0,0.0,0.0,0.0,0.0,0.0,0.0,0.0,0.0,0.0,0.0,0.0,0.0,0.0,0.0,0.0,0.0,0.0,0.0,0.0,0.0,0.0,0.0,0.0,0.0,0.0,0.0,0.0,0.0,0.0,0.0,0.0,0.0,0.0,0.0,0.0,0.0,0.0,0.0,0.0,0.0,0.0,0.0,0.0,0.0,0.0,0.0,0.0,0.0,0.0,0.0,0.0,0.0,0.0,0.0,0.0,0.0,0.0,0.0,0.0,0.0,0.0,0.0,0.0,0.0,0.0,0.0,0.0,0.0,0.0,0.0,0.0,0.0,0.0,0.0,0.0,0.0,0.0,0.0,0.0,0.0,0.0,0.0,0.0,0.0,0.0,0.0,0.0,0.0,0.0,0.0,0.0,0.0,0.0,0.0,0.0,0.0,0.0,0.0,0.0,0.0,0.0,0.0,0.0,0.0,0.0,0.0,0.0,0.0,0.0,0.0,0.0,0.0,0.0,0.0,0.0,0.0,0.0,0.0,0.0,0.0,0.0,0.0,0.0,0.0,0.0,0.0,0.0,0.0,0.0,0.0,0.0,0.0,0.0,0.0,0.0,0.0,0.0,0.0,0.0,0.0,0.0,0.0,0.0,0.0,0.0,0.0,0.0,0.0,0.0,0.0,0.0,0.0,0.0,0.0,0.0,0.0,0.0,0.0,0.0,0.0,0.0,0.0,0.0,0.0,0.0,0.0,0.0,-0.3528,0.0,0.0,0.0,0.0,0.0,0.0,0.0,0.0,0.0,0.0,0.0,0.0,0.0,0.0,0.0,0.0,0.0,0.0,0.0,0.0,0.0,0.0,0.0,0.0,0.0,0.0,0.0,0.0,0.0,0.0,0.0,0.0,0.0,0.0,0.0,0.0,0.0,0.0,0.0,0.0,0.0,0.0,0.0,0.0,0.0,0.0,0.0,0.0,0.0,0.0,0.0,0.0,0.0,0.0,0.0,0.0,0.0,0.0,0.0,0.0,0.0,0.0,0.0,0.0,0.0,0.0,0.0,0.0,0.0,0.0,0.0,0.0,0.0,0.0,0.0,0.0,0.0,0.0,0.0,0.0,0.0,0.0,0.0,0.0,0.0,0.0,0.0,0.0,0.0,0.0,0.0,0.0,0.0,0.0,0.0,0.0,0.0,0.0,0.0,0.0,0.0,0.0,0.0,0.0,0.0,0.0,0.0,0.0,0.0,0.0,-0.3361,-0.2961,-0.3188,-0.3384,-0.3572,0.0,0.0,0.0,0.0,0.0,0.0,0.0,0.0,0.0,0.0,0.0,0.0,0.0,0.0,0.0,0.0,0.0,0.0,0.0,0.0,0.0,0.0,0.0,0.0,0.0,0.0,0.0,0.0,0.0,0.0,0.0,0.0,0.0,0.0,0.0,0.0,0.0,0.0,0.0,0.0,0.0,0.0,0.0,0.0,0.0,0.0,0.0,0.0,0.0,0.0,0.0,0.0,0.0,0.0,0.0,0.0,0.0,0.0,0.0,0.0,0.0,0.0,0.0,0.0,0.0,0.0,0.0,0.0,0.0,0.0,0.0,0.0,0.0,0.0,0.0,0.0,0.0,0.0,0.0,0.0,0.0,0.0,0.0,0.0,0.0,0.0,0.0,0.0,0.0,0.0,0.0,0.0,0.0,0.0,0.0,0.0,0.0,0.0,0.0,0.0,0.0,0.0,0.0,0.0,0.0,0.0,0.0,0.0,0.0,0.0,0.0,0.0,-0.3169,-0.3478,-0.3571,0.0,0.0,0.0,0.0,0.0,0.0,0.0,0.0,0.0,0.0,0.0,0.0,0.0,0.0,0.0,0.0,0.0,0.0,0.0,0.0,0.0,0.0,0.0,0.0,0.0,0.0,0.0,0.0,0.0,0.0,0.0,0.0,0.0,0.0,0.0,0.0,0.0,0.0,0.0,0.0,0.0,0.0,0.0,0.0,0.0,0.0,0.0,0.0,0.0,0.0,0.0,0.0,0.0,0.0,0.0,0.0,0.0,0.0,0.0,0.0,0.0,0.0,0.0,0.0,0.0,0.0,0.0,0.0,0.0,0.0,0.0,0.0,0.0,0.0,0.0,0.0,0.0,0.0,0.0,0.0,0.0,0.0,0.0,0.0,0.0,0.0,0.0,0.0,0.0,0.0,0.0,0.0,0.0,0.0,0.0,0.0,0.0,0.0,0.0,0.0,0.0,0.0,0.0,0.0,0.0,0.0,0.0,0.0,0.0,0.0,-0.3576,-0.3502,-0.4176,0.0,-0.3678,0.0,0.0,0.0,0.0,0.0,0.0,0.0,0.0,0.0,0.0,0.0,0.0,0.0,0.0,0.0,0.0,0.0,0.0,0.0,0.0,0.0,0.0,0.0,0.0,0.0,0.0,0.0,0.0,0.0,0.0,0.0,0.0,0.0,0.0,0.0,0.0,0.0,0.0,0.0,0.0,0.0,0.0,0.0,0.0,0.0,0.0,0.0,0.0,0.0,0.0,0.0,0.0,0.0,0.0,0.0,0.0,0.0,0.0,0.0,0.0,0.0,0.0,0.0,0.0,0.0,0.0,0.0,0.0,0.0,0.0,0.0,0.0,0.0,0.0,0.0,0.0,0.0,0.0,0.0,0.0,0.0,0.0,0.0,0.0,0.0,0.0,0.0,0.0,0.0,0.0,0.0,0.0,0.0,0.0,0.0,0.0,0.0,0.0,0.0,0.0,0.0,0.0,0.0,0.0,0.0,0.0,0.0,0.0,0.0,0.0,-0.2743,-0.3893,-0.3705,-0.3087,0.0,0.0,0.0,0.0,0.0,0.0,0.0,0.0,0.0,0.0,0.0,0.0,0.0,0.0,0.0,0.0,0.0,0.0,0.0,0.0,0.0,0.0,0.0,0.0,0.0,0.0,0.0,0.0,0.0,0.0,0.0,0.0,0.0,0.0,0.0,0.0,0.0,0.0,0.0,0.0,0.0,0.0,0.0,0.0,0.0,0.0,0.0,0.0,0.0,0.0,0.0,0.0,0.0,0.0,0.0,0.0,0.0,0.0,0.0,0.0,0.0,0.0,0.0,0.0,0.0,0.0,0.0,0.0,0.0,0.0,0.0,0.0,0.0,0.0,0.0,0.0,0.0,0.0,0.0,0.0,0.0,0.0,0.0,0.0,0.0,0.0,0.0,0.0,0.0,0.0,0.0,0.0,0.0,0.0,0.0,0.0,0.0,0.0,0.0,0.0,0.0,0.0,0.0,0.0,0.0,0.0,0.0,0.0,0.0,0.0,-0.1171,-0.1907,-0.3177,-0.2577,-0.1843,-0.1051,0.0,0.0,0.0,0.0,0.0,0.0,0.0,0.0,0.0,0.0,0.0,0.0,0.0,0.0,0.0,0.0,0.0,0.0,0.0,0.0,0.0,0.0,0.0,0.0,0.0,0.0,0.0,0.0,0.0,0.0,0.0,0.0,0.0,0.0,0.0,0.0,0.0,0.0,0.0,0.0,0.0,0.0,0.0,0.0,0.0,0.0,0.0,0.0,0.0,0.0,0.0,0.0,0.0,0.0,0.0,0.0,0.0,0.0,0.0,0.0,0.0,0.0,0.0,0.0,0.0,0.0,0.0,0.0,0.0,0.0,0.0,0.0,0.0,0.0,0.0,0.0,0.0,0.0,0.0,0.0,0.0,0.0,0.0,0.0,0.0,0.0,0.0,0.0,0.0,0.0,0.0,0.0,0.0,0.0,0.0,0.0,0.0,0.0,0.0,0.0,0.0,0.0,0.0,0.0,0.0,0.0,0.0,0.0,0.0892,-0.0449,-0.1217,-0.1306,-0.0914,-0.0881,0.0,0.0,0.0,0.0,0.0,0.0,0.0,0.0,0.0,0.0,0.0,0.0,0.0,0.0,0.0,0.0,0.0,0.0,0.0,0.0,0.0,0.0,0.0,0.0,0.0,0.0,0.0,0.0,0.0,0.0,0.0,0.0,0.0,0.0,0.0,0.0,0.0,0.0,0.0,0.0,0.0,0.0,0.0,0.0,0.0,0.0,0.0,0.0,0.0,0.0,0.0,0.0,0.0,0.0,0.0,0.0,0.0,0.0,0.0,0.0,0.0,0.0,0.0,0.0,0.0,0.0,0.0,0.0,0.0,0.0,0.0,0.0,0.0,0.0,0.0,0.0,0.0,0.0,0.0,0.0,0.0,0.0,0.0,0.0,0.0,0.0,0.0,0.0,0.0,0.0,0.0,0.0,0.0,0.0,0.0,0.0,0.0,0.0,0.0,0.0,0.0,0.0,0.0,0.0,0.0,0.0,0.0,0.0,0.0,0.0243,-0.0919,-0.0929,0.0125,-0.0303,-0.036,0.0,0.0,0.0,0.0,0.0,0.0,0.0,0.0,0.0,0.0,0.0,0.0,0.0,0.0,0.0,0.0,0.0,0.0,0.0,0.0,0.0,0.0,0.0,0.0,0.0,0.0,0.0,0.0,0.0,0.0,0.0,0.0,0.0,0.0,0.0,0.0,0.0,0.0,0.0,0.0,0.0,0.0,0.0,0.0,0.0,0.0,0.0,0.0,0.0,0.0,0.0,0.0,0.0,0.0,0.0,0.0,0.0,0.0,0.0,0.0,0.0,0.0,0.0,0.0,0.0,0.0,0.0,0.0,0.0,0.0,0.0,0.0,0.0,0.0,0.0,0.0,0.0,0.0,0.0,0.0,0.0,0.0,0.0,0.0,0.0,0.0,0.0,0.0,0.0,0.0,0.0,0.0,0.0,0.0,0.0,0.0,0.0,0.0,0.0,0.0,0.0,0.0,0.0,0.0,0.0,0.0,0.0,0.0,0.0,0.0176,0.0,-0.0187,0.0913,0.0243,0.0179,0.0,0.0,0.0,0.0,0.0,0.0,0.0,0.0,0.0,0.0,0.0,0.0,0.0,0.0,0.0,0.0,0.0,0.0,0.0,0.0,0.0,0.0,0.0,0.0,0.0,0.0,0.0,0.0,0.0,0.0,0.0,0.0,0.0,0.0,0.0,0.0,0.0,0.0,0.0,0.0,0.0,0.0,0.0,0.0,0.0,0.0,0.0,0.0,0.0,0.0,0.0,0.0,0.0,0.0,0.0,0.0,0.0,0.0,0.0,0.0,0.0,0.0,0.0,0.0,0.0,0.0,0.0,0.0,0.0,0.0,0.0,0.0,0.0,0.0,0.0,0.0,0.0,0.0,0.0,0.0,0.0,0.0,0.0,0.0,0.0,0.0,0.0,0.0,0.0,0.0,0.0,0.0,0.0,0.0,0.0,0.0,0.0,0.0,0.0,0.0,0.0,0.0,0.0,0.0,0.0,0.0,0.0,0.0,0.0941,0.0962,0.0989,0.0991,0.1033,0.0914,0.0872,0.0,0.0,0.0,0.0,0.0,0.0,0.0,0.0,0.0,0.0,0.0,0.0,0.0,0.0,0.0,0.0,0.0,0.0,0.0,0.0,0.0,0.0,0.0,0.0,0.0,0.0,0.0,0.0,0.0,0.0,0.0,0.0,0.0,0.0,0.0,0.0,0.0,0.0,0.0,0.0,0.0,0.0,0.0,0.0,0.0,0.0,0.0,0.0,0.0,0.0,0.0,0.0,0.0,0.0,0.0,0.0,0.0,0.0,0.0,0.0,0.0,0.0,0.0,0.0,0.0,0.0,0.0,0.0,0.0,0.0,0.0,0.0,0.0,0.0,0.0,0.0,0.0,0.0,0.0,0.0,0.0,0.0,0.0,0.0,0.0,0.0,0.0,0.0,0.0,0.0,0.0,0.0,0.0,0.0,0.0,0.0,0.0,0.0,0.0,0.0,0.0,0.0,0.0,0.0,0.0,0.0,0.0,0.0,0.0,0.0941,0.099,0.104,0.1087,0.0975,0.0956,0.0,0.0,0.0,0.0,0.0,0.0,0.0,0.0,0.0,0.0,0.0,0.0,0.0,0.0,0.0,0.0,0.0,0.0,0.0,0.0,0.0,0.0,0.0,0.0,0.0,0.0,0.0,0.0,0.0,0.0,0.0,0.0,0.0,0.0,0.0,0.0,0.0,0.0,0.0,0.0,0.0,0.0,0.0,0.0,0.0,0.0,0.0,0.0,0.0,0.0,0.0,0.0,0.0,0.0,0.0,0.0,0.0,0.0,0.0,0.0,0.0,0.0,0.0,0.0,0.0,0.0,0.0,0.0,0.0,0.0,0.0,0.0,0.0,0.0,0.0,0.0,0.0,0.0,0.0,0.0,0.0,0.0,0.0,0.0,0.0,0.0,0.0,0.0,0.0,0.0,0.0,0.0,0.0,0.0,0.0,0.0,0.0,0.0,0.0,0.0,0.0,0.0,0.0,0.0,0.0,0.0,0.0,0.0,0.0,0.0984,0.1029,0.1076,0.1121,0.1018,0.0992,0.0984,0.0,0.0,0.0,0.0,0.0,0.0,0.0,0.0,0.0,0.0,0.0,0.0,0.0,0.0,0.0,0.0,0.0,0.0,0.0,0.0,0.0,0.0,0.0,0.0,0.0,0.0,0.0,0.0,0.0,0.0,0.0,0.0,0.0,0.0,0.0,0.0,0.0,0.0,0.0,0.0,0.0,0.0,0.0,0.0,0.0,0.0,0.0,0.0,0.0,0.0,0.0,0.0,0.0,0.0,0.0,0.0,0.0,0.0,0.0,0.0,0.0,0.0,0.0,0.0,0.0,0.0,0.0,0.0,0.0,0.0,0.0,0.0,0.0,0.0,0.0,0.0,0.0,0.0,0.0,0.0,0.0,0.0,0.0,0.0,0.0,0.0,0.0,0.0,0.0,0.0,0.0,0.0,0.0,0.0,0.0,0.0,0.0,0.0,0.0,0.0,0.0,0.0,0.0,0.0,0.0,0.0,0.0,0.0,0.1129,0.1238,0.1246,0.1142,0.1099,0.1039,0.0,0.0,0.0,0.0,0.0,0.0,0.0,0.0,0.0,0.0,0.0,0.0,0.0,0.0,0.0,0.0,0.0,0.0,0.0,0.0,0.0,0.0,0.0,0.0,0.0,0.0,0.0,0.0,0.0,0.0,0.0,0.0,0.0,0.0,0.0,0.0,0.0,0.0,0.0,0.0,0.0,0.0,0.0,0.0,0.0,0.0,0.0,0.0,0.0,0.0,0.0,0.0,0.0,0.0,0.0,0.0,0.0,0.0,0.0,0.0,0.0,0.0,0.0,0.0,0.0,0.0,0.0,0.0,0.0,0.0,0.0,0.0,0.0,0.0,0.0,0.0,0.0,0.0,0.0,0.0,0.0,0.0,0.0,0.0,0.0,0.0,0.0,0.0,0.0,0.0,0.0,0.0,0.0,0.0,0.0,0.0,0.0,0.0,0.0,0.0,0.0,0.0,0.0,0.0,0.0,0.0,0.0,0.0,0.0,0.1299,0.2288,0.2371,0.1351,0.1174,0.1096,0.0,0.0,0.0,0.0,0.0,0.0,0.0,0.0,0.0,0.0,0.0,0.0,0.0,0.0,0.0,0.0,0.0,0.0,0.0,0.0,0.0,0.0,0.0,0.0,0.0,0.0,0.0,0.0,0.0,0.0,0.0,0.0,0.0,0.0,0.0,0.0,0.0,0.0,0.0,0.0,0.0,0.0,0.0,0.0,0.0,0.0,0.0,0.0,0.0,0.0,0.0,0.0,0.0,0.0,0.0,0.0,0.0,0.0,0.0,0.0,0.0,0.0,0.0,0.0,0.0,0.0,0.0,0.0,0.0,0.0,0.0,0.0,0.0,0.0,0.0,0.0,0.0,0.0,0.0,0.0,0.0,0.0,0.0,0.0,0.0,0.0,0.0,0.0,0.0,0.0,0.0,0.0,0.0,0.0,0.0,0.0,0.0,0.0,0.0,0.0,0.0,0.0,0.0,0.0,0.0,0.0,0.0,0.0,0.1689,0.1665,0.2541,0.2582,0.1568,0.2504,0.275,0.0,0.0,0.0,0.0,0.0,0.0,0.0,0.0,0.0,0.0,0.0,0.0,0.0,0.0,0.0,0.0,0.0,0.0,0.0,0.0,0.0,0.0,0.0,0.0,0.0,0.0,0.0,0.0,0.0,0.0,0.0,0.0,0.0,0.0,0.0,0.0,0.0,0.0,0.0,0.0,0.0,0.0,0.0,0.0,0.0,0.0,0.0,0.0,0.0,0.0,0.0,0.0,0.0,0.0,0.0,0.0,0.0,0.0,0.0,0.0,0.0,0.0,0.0,0.0,0.0,0.0,0.0,0.0,0.0,0.0,0.0,0.0,0.0,0.0,0.0,0.0,0.0,0.0,0.0,0.0,0.0,0.0,0.0,0.0,0.0,0.0,0.0,0.0,0.0,0.0,0.0,0.0,0.0,0.0,0.0,0.0,0.0,0.0,0.0,0.0,0.0,0.0,0.0,0.0,0.0,0.0,0.0,0.0,0.2386,0.2255,0.2734,0.2806,0.2408,0.4268,0.4804,0.0,0.0,0.0,0.0,0.0,0.0,0.0,0.0,0.0,0.0,0.0,0.0,0.0,0.0,0.0,0.0,0.0,0.0,0.0,0.0,0.0,0.0,0.0,0.0,0.0,0.0,0.0,0.0,0.0,0.0,0.0,0.0,0.0,0.0,0.0,0.0,0.0,0.0,0.0,0.0,0.0,0.0,0.0,0.0,0.0,0.0,0.0,0.0,0.0,0.0,0.0,0.0,0.0,0.0,0.0,0.0,0.0,0.0,0.0,0.0,0.0,0.0,0.0,0.0,0.0,0.0,0.0,0.0,0.0,0.0,0.0,0.0,0.0,0.0,0.0,0.0,0.0,0.0,0.0,0.0,0.0,0.0,0.0,0.0,0.0,0.0,0.0,0.0,0.0,0.0,0.0,0.0,0.0,0.0,0.0,0.0,0.0,0.0,0.0,0.0,0.0,0.0,0.0,0.0,0.0,0.0,0.0,0.0,0.2673,0.3006,0.4926,0.5904,0.5777,0.4418,0.3416,0.0,0.0,0.0,0.0,0.0,0.0,0.0,0.0,0.0,0.0,0.0,0.0,0.0,0.0,0.0,0.0,0.0,0.0,0.0,0.0,0.0,0.0,0.0,0.0,0.0,0.0,0.0,0.0,0.0,0.0,0.0,0.0,0.0,0.0,0.0,0.0,0.0,0.0,0.0,0.0,0.0,0.0,0.0,0.0,0.0,0.0,0.0,0.0,-0.2125,0.0,0.0,0.0,0.0,0.0,0.0,0.0,0.0,0.0,0.0,0.0,0.0,0.0,0.0,0.0,0.0,0.0,0.0,0.0,0.0,0.0,0.0,0.0,0.0,0.0,0.0,0.0,0.0,0.0,0.0,0.0,0.0,0.0,0.0,0.0,0.0,0.0,0.0,0.0,0.0,0.0,0.0,0.0,0.0,0.0,0.0,0.0,0.0,0.0,0.0,0.0,0.0,0.0,0.0,0.0,0.0,0.0,0.0,0.0,0.3408,0.4039,0.5443,0.6289,0.642,0.57,0.5209,0.0,0.0,0.0,0.0,0.0,0.0,0.0,0.0,0.0,0.0,0.0,0.0,0.0,0.0,0.0,0.0,0.0,0.0,0.0,0.0,0.0,0.0,0.0,0.0,0.0,0.0,0.0,0.0,0.0,0.0,0.0,0.0,0.0,0.0,0.0,0.0,0.0,0.0,0.0,0.0,0.0,0.0,0.0,0.0,0.0,0.0,0.0,0.0,0.0,0.0,0.0,0.0,0.0,0.0,0.0,0.0,0.0,0.0,0.0,0.0,0.0,0.0,0.0,0.0,0.0,0.0,0.0,0.0,0.0,0.0,0.0,0.0,0.0,0.0,0.0,0.0,0.0,0.0,0.0,0.0,0.0,0.0,0.0,0.0,0.0,0.0,0.0,0.0,0.0,0.0,0.0,0.0,0.0,0.0,0.0,0.0,0.0,0.0,0.0,0.0,0.0,0.0,0.0,0.0,0.0,0.0,0.0,0.3773,0.4338,0.5223,0.5498,0.5943,0.6482,0.7541,0.8018,0.7944,0.0,0.0,0.0,0.0,0.0,0.0,0.0,0.0,0.0,0.0,0.0,0.0,0.0,0.0,0.0,0.0,0.0,0.0,0.0,0.0,0.0,0.0,0.0,0.0,0.0,0.0,0.0,0.0,0.0,0.0,0.0,0.0,0.0,0.0,0.0,0.0,0.0,0.0,-0.1302,-0.0455,0.0,0.0,0.0,0.0,0.0,0.0,0.0,0.0,-0.0566,0.0,0.0,0.0,0.0,0.0,0.0,0.0,0.0,0.0,0.0,0.0,0.0,0.0,0.0,0.0,0.0,0.0,0.0,0.0,0.0,0.0,0.0,0.0,0.0,0.0,0.0,0.0,0.0,0.0,0.0,0.0,0.0,0.0,0.0,0.0,0.0,0.0,0.0,0.0,0.0,0.0,0.0,0.0,0.0,0.0,0.0,0.0,0.0,0.0,0.0,0.0,0.0,0.0,0.0,0.0,0.0,0.3822,0.3801,0.4624,0.6152,0.6973,0.7923,0.8845,0.9315,0.9131,0.8303,0.0,0.0,0.0,0.0,0.0,0.0,0.0,0.0,0.0,0.0,0.0,0.0,0.0,0.0,0.0,0.0,0.0,0.0,0.0,0.0,0.0,0.0,0.0,0.0,0.0,0.0,0.0,0.0,0.0,0.0,0.0,0.0,0.0,0.0,0.0,0.0,0.0,0.0,0.0,0.0857,0.1021,0.0,0.0,0.0,0.0,0.0,0.0,0.0,0.0,-0.0231,0.0,0.0,0.0,0.0,0.0,0.0,0.0,0.0,0.0,0.0,0.0,0.0,0.0,0.0,0.0,0.0,0.0,0.0,0.0,0.0,0.0,0.0,0.0,0.0,0.0,0.0,0.0,0.0,0.0,0.0,0.0,0.0,0.0,0.0,0.0,0.0,0.0,0.0,0.0,0.0,0.0,0.0,0.0,0.0,0.0,0.0,0.0,0.0,0.0,0.0,0.0,0.0,0.0,0.0,0.0,0.3793,0.4277,0.5303,0.6771,0.7635,0.8633,0.9745,0.9554,0.9007,0.0,0.0,0.0,0.0,0.0,0.0,0.0,0.0,0.0,0.0,0.0,0.0,0.0,0.0,0.0,0.0,0.0,0.0,0.0,0.0,0.0,0.0,0.0,0.0,0.0,0.0,0.0,0.0,0.0,0.0,0.0,0.0,0.0,0.0,0.0,0.0,0.0,0.0,0.0,0.0,0.1074,0.1305,0.1107,0.0,0.0,0.0,0.0,0.0,0.0,0.0762,0.087,0.0,0.0,0.0,0.0,0.0,0.0,0.0,0.0,0.0,0.0,0.0,0.0,0.0,0.0,0.0,0.0,0.0,0.0,0.0,0.0,0.0,0.0,0.0,0.0,0.0,0.0,0.0,0.0,0.0,0.0,0.0,0.0,0.0,0.0,0.0,0.0,0.0,0.0,0.0,0.0,0.0,0.0,0.0,0.0,0.0,0.0,0.0,0.0,0.0,0.0,0.0,0.0,0.0,0.0,0.0,0.3951,0.4885,0.6039,0.739,0.8031,0.8967,1.0079,0.9307,0.8641,0.0,0.0,0.0,0.0,0.0,0.0,0.0,0.0,0.0,0.0,0.0,0.0,0.0,0.0,0.0,0.0,0.0,0.0,0.0,0.0,0.0,0.0,0.0,0.0,0.0,0.0,0.0,0.0,0.0,0.0,0.0,0.0,0.0,0.0,0.0,0.0,0.0,0.0,0.0,0.0,0.0,0.1316,0.114,0.1092,0.0,0.0,0.0,0.0,0.1501,0.2029,0.0,0.0,0.0,0.0,0.0,0.0,0.0,0.0,0.0,0.0,0.0,0.0,0.0,0.0,0.0,0.0,0.0,0.0,0.0,0.0,0.0,0.0,0.0,0.0,0.0,0.0,0.0,0.0,0.0,0.0,0.0,0.0,0.0,0.0,0.0,0.0,0.0,0.0,0.0,0.0,0.0,0.0,0.0,0.0,0.0,0.0,0.0,0.0,0.0,0.0,0.0,0.0,0.0,0.0,0.0,0.0,0.4603,0.5404,0.6647,0.8174,0.8329,0.8914,0.99,0.9364,0.8593,0.0,0.0,0.0,0.0,0.0,0.0,0.0,0.0,0.0,0.0,0.0,0.0,0.0,0.0,0.0,0.0,0.0,0.0,0.0,0.0,0.0,0.0,0.0,0.0,0.0,0.0,0.0,0.0,0.0,0.0,0.0,0.0,0.0,0.0,0.0,0.0,0.0,0.0,0.0,0.0,0.0,0.1217,0.1061,0.1152,0.147,0.0,0.0,0.2649,0.327,0.3887,0.0,0.0,0.0,0.0,0.0,0.0,0.0,0.0,0.0,0.0,0.0,0.0,0.0,0.0,0.0,0.0,0.0,0.0,0.0,0.0,0.0,0.0,0.0,0.0,0.0,0.0,0.0,0.0,0.0,0.0,0.0,0.0,0.0,0.0,0.0,0.0,0.0,0.0,0.0,0.0,0.0,0.0,0.0,0.0,0.0,0.0,0.0,0.0,0.0,0.0,0.0,0.0,0.0,0.0,0.0,0.4338,0.4909,0.6045,0.7243,0.8386,0.8735,0.9166,0.973,0.8731,0.8008,0.0,0.0,0.0,0.0,0.0,0.0,0.0,0.0,0.0,0.0,0.0,0.0,0.0,0.0,0.0,0.0,0.0,0.0,0.0,0.0,0.0,0.0,0.0,0.0,0.0,0.0,0.0,0.0,0.0,0.0,0.0,0.0,0.0,0.0,0.0,0.0,0.0,0.0,0.0,0.0,0.0,0.0,0.1073,0.1157,0.0,0.0,0.0,0.3403,0.3896,0.0,0.0,0.0,0.0,0.0,0.0,0.0,0.0,0.0,0.0,0.0,0.0,0.0,0.0,0.0,0.0,0.0,0.0,0.0,0.0,0.0,0.0,0.0,0.0,0.0,0.0,0.0,0.0,0.0,0.0,0.0,0.0,0.0,0.0,0.0,0.0,0.0,0.0,0.0,0.0,0.0,0.0,0.0,0.0,0.0,0.0,0.0,0.0,0.0,0.0,0.0,0.0,0.0,0.0,0.0,0.0,0.0,0.5555,0.6767,0.7796,0.8571,0.9115,0.9397,0.947,0.8316,0.0,0.0,0.0,0.0,0.0,0.0,0.0,0.0,0.0,0.0,0.0,0.0,0.0,0.0,0.0,0.0,0.0,0.0,0.0,0.0,0.0,0.0,0.0,0.0,0.0,0.0,0.0,0.0889,0.0,0.0,0.0,0.0,0.0,0.0,0.0,0.0,0.0,0.0,0.0,0.0,0.0,0.0,0.1237,0.1438,0.1553,0.2013,0.0,0.0,0.4432,0.4794,0.5217,0.5214,0.0,0.0,0.0,0.0,0.0,0.0,0.0,0.0,0.0,0.0,0.0,0.0,0.0,0.0,0.0,0.0,0.0,0.0,0.0,0.0,0.0,0.0,0.0,0.0,0.0,0.0,0.0,0.0,0.0,0.0,0.0,0.0,0.0,0.0,0.0,0.0,0.0,0.0,0.0,0.0,0.0,0.0,0.0,0.0,0.0,0.0,0.0,0.0,0.0,0.0,0.0,0.0,0.0,0.0,0.0,0.6982,0.7589,0.8287,0.9011,0.9275,0.9283,0.9129,0.8552,0.8,0.0,0.0,0.0,0.0,0.0,0.0,0.0,0.0,0.0,0.0,0.0,0.0,0.0,0.0,0.0,0.0,0.0,0.0,0.0,0.0,0.0,0.0,0.0,0.0,0.0,0.0,0.0,0.0,0.0,0.0,0.0,0.0,0.0,0.0,0.0,0.0,0.0,0.0,0.0,0.0,0.0,0.1523,0.2329,0.261,0.3276,0.0,0.0,0.5785,0.6427,0.7027,0.7048,0.598,0.0,0.0,0.0,0.0,0.0,0.0,0.0,0.0,0.0,0.0,0.0,0.0,0.0,0.0,0.0,0.0,0.0,0.0,0.0,0.0,0.0,0.0,0.0,0.0,0.0,0.0,0.0,0.0,0.0,0.0,0.0,0.0,0.0,0.0,0.0,0.0,0.0,0.0,0.0,0.0,0.0,0.0,0.0,0.0,0.0,0.0,0.0,0.0,0.0,0.0,0.0,0.0,0.0,0.7015,0.7651,0.8007,0.8598,0.9511,0.9233,0.8942,0.8771,0.8138,0.7642,0.0,0.0,0.0,0.0,0.0,0.0,0.0,0.0,0.0,0.0,0.0,0.0,0.0,0.0,0.0,0.0,0.0,0.0,0.0,0.0,0.0,0.0,0.0,0.0,0.0,0.0,0.0,0.0,0.1218,0.1468,0.144,0.0,0.0,0.0,0.0,0.0,0.0,0.0,0.0,0.0,0.0,0.3174,0.2671,0.3249,0.0,0.0,0.5707,0.6103,0.7007,0.7149,0.6926,0.6152,0.5976,0.0,0.0,0.0,0.0,0.0,0.0,0.0,0.0,0.0,0.0,0.0,0.0,0.0,0.0,0.0,0.0,0.0,0.0,0.0,0.0,0.0,0.0,0.0,0.0,0.0,0.0,0.0,0.0,0.0,0.0,0.0,0.0,0.0,0.0,0.0,0.0,0.0,0.0,0.0,0.0,0.0,0.0,0.0,0.0,0.0,0.0,0.0,0.0,0.0,0.0,0.0,0.0,0.7653,0.8152,0.8286,0.8664,0.9451,0.9125,0.8844,0.8714,0.8073,0.7642,0.0,0.0,0.0,0.0,0.0,0.0,0.0,0.0,0.0,0.0,0.0,0.0,0.0,0.0,0.0,0.0,0.0,0.0,0.0,0.0,0.0,0.0,0.0,0.0,0.0,0.0,0.0,0.0,0.1479,0.1861,0.1902,0.0,0.0,0.0,0.0,0.0,0.0,0.0,0.0,0.0,0.0,0.41,0.3507,0.4196,0.5139,0.6055,0.6337,0.6618,0.7135,0.7136,0.6844,0.62,0.0,0.0,0.0,0.0,0.0,0.0,0.0,0.0,0.0,0.0,0.0,0.0,0.0,0.0,0.0,0.0,0.0,0.0,0.0,0.0,0.0,0.0,0.0,0.0,0.0,0.0,0.0,0.0,0.0,0.0,0.0,0.0,0.0,0.0,0.0,0.0,0.0,0.0,0.0,0.0,0.0,0.0,0.0,0.0,0.0,0.0,0.0,0.0,0.0,0.0,0.0,0.0,0.0,0.8157,0.8475,0.8373,0.8521,0.8804,0.8999,0.908,0.9056,0.8552,0.8178,0.7975,0.0,0.0,0.0,0.0,0.0,0.0,0.0,0.0,0.0,0.0,0.0,0.0,0.0,0.0,0.0,0.0,0.0,0.0,0.0,0.0,0.0,0.0,0.0,0.0,0.0,0.0,0.1104,0.166,0.209,0.0,0.0,0.0,0.0,0.0,0.0,0.0,0.0,0.0,0.0,0.3601,0.4059,0.4996,0.5404,0.5923,0.6774,0.7195,0.7428,0.7007,0.717,0.7109,0.0,0.0,0.0,0.0,0.0,0.0,0.0,0.0,0.0,0.0,0.0,0.0,0.0,0.0,0.0,0.0,0.0,0.0,0.0,0.0,0.0,0.0,0.0,0.0,0.0,0.0,0.0,0.0,0.9867,0.0,0.0,0.0,0.0,0.0,0.0,0.0,0.0,0.0,0.0,0.0,1.2857,1.2476,0.0,0.0,0.0,0.0,0.0,0.0,0.0,0.0,0.0,0.0,0.0,0.0,0.9082,0.9658,0.8855,0.8819,0.9587,0.9182,0.8861,0.8747,0.8446,0.8279,0.8255,0.0,0.0,0.0,0.0,0.0,0.0,0.0,0.0,0.0,0.0,0.0,0.0,0.0,0.0,0.0,0.0,0.0,0.0,0.0,0.0,0.0,0.0,0.0,0.0,0.0,0.3066,0.0,0.0,0.0,0.0,0.0,0.0,0.0,0.0,0.0,0.0,0.0,0.2734,0.3458,0.4691,0.5416,0.5251,0.593,0.6548,0.0,0.0,0.0,0.0,0.0,0.0,0.0,0.0,0.0,0.0,0.0,0.0,0.0,0.0,0.6405,0.5567,0.5171,0.5044,0.5206,0.0,0.0,0.0,0.0,0.0,0.0,0.0,0.0,0.0,0.0,0.0,0.0,0.0,0.0,0.0,0.0,1.0935,0.0,0.0,0.0,0.0,0.0,0.0,0.0,0.0,1.291,1.3695,1.4849,1.4338,1.4015,0.0,1.3256,1.2245,0.0,0.0,0.0,0.0,0.0,0.0,0.0,0.0,0.9447,0.9884,0.893,0.8819,0.9499,0.9091,0.8869,0.8755,0.8648,0.8909,0.9435,0.9614,0.9639,0.0,0.0,0.0,0.0,0.0,0.0,0.0,0.0,0.0,0.0,0.0,0.0,0.0,0.0,0.0,0.0,0.0,0.0,0.0,0.0,0.0,0.0,0.0,0.3849,0.0,0.0,0.0,0.0,0.0,0.0,0.0,0.0,0.0,0.3779,0.3531,0.3617,0.4513,0.564,0.6205,0.583,0.0,0.0,0.0,0.0,0.0,0.0,0.0,0.7177,0.677,0.6741,0.6907,0.7007,0.725,0.7492,0.7959,0.0,0.0,0.6874,0.6444,0.6315,0.6471,0.6329,0.617,0.6205,0.6518,0.6771,0.0,0.0,0.0,0.0,0.0,0.0,0.0,0.0,1.2282,1.3029,0.0,1.2807,0.0,0.0,0.0,0.0,0.0,0.0,0.0,0.0,1.4726,1.5558,1.5979,1.5922,1.5734,1.5315,1.5756,1.537,1.3984,1.137,0.0,0.0,0.0,0.0,0.0,0.0,0.9257,0.939,0.8756,0.8529,0.8878,0.8999,0.9088,0.9064,0.9163,0.9958,1.1272,1.0779,1.0386,1.022,1.0386,0.0,0.0,0.0,0.0,0.0,0.0,0.0,0.0,0.0,0.0,0.0,0.0,0.0,0.0,0.0,0.0,0.0,0.0,0.0,0.0,0.3785,0.0,0.0,0.0,0.0,0.0,0.0,0.0,0.0,0.0,0.0,0.468,0.4156,0.4482,0.6278,0.0,0.0,0.0,0.0,0.6926,0.6939,0.7536,0.7787,0.7238,0.7624,0.7801,0.7231,0.0,0.0,0.7938,0.7674,0.7788,0.877,0.8909,0.8682,0.8041,0.7576,0.7326,0.7465,0.714,0.6709,0.6681,0.6878,0.7274,1.706,0.0,0.0,0.0,0.0,1.3882,1.421,1.5219,1.514,1.5233,1.5418,1.4648,0.0,0.0,0.0,0.0,0.0,0.0,1.3975,1.5012,1.5683,1.6469,1.7282,1.7501,1.7428,1.7141,1.6683,1.6104,1.5259,1.39,1.2713,1.1762,0.0,0.0,0.0,0.0,1.121,1.1645,1.0398,0.9885,1.0423,0.9552,0.9031,0.8901,0.9819,1.0502,1.1013,1.171,1.2201,1.227,1.1802,0.0,0.0,0.0,0.0,0.0,0.0,0.0,0.0,0.0,0.0,0.0,0.0,0.0,0.0,0.0,0.0,0.0,0.0,0.0,0.5836,0.5832,0.5951,0.0,0.0,0.0,0.0,0.0,0.0,0.0,0.0,0.0,0.5918,0.5538,0.5627,0.0,0.0,0.7155,0.7027,0.6898,0.6837,0.7048,0.0,0.0,0.0,0.7448,0.7502,0.7333,0.7516,0.774,0.7916,0.7984,0.8443,0.9522,0.9754,0.9854,1.0268,0.9815,0.9429,0.9535,0.9508,0.8894,0.7728,0.8022,0.8644,1.9764,1.8067,1.7079,1.6635,1.6676,1.6446,1.6587,1.6941,1.7027,1.7014,1.7022,1.636,1.5961,1.5896,1.5328,0.0,0.0,0.0,1.5103,1.6225,1.65,1.7194,1.8189,1.8408,1.8396,1.8082,1.7513,1.7036,1.6471,1.5683,1.485,1.3938,0.0,0.0,1.2373,1.2201,1.2324,1.2802,1.1543,1.1086,1.1441,1.0596,1.0157,1.0298,1.0985,1.1509,1.1829,1.2568,1.3013,1.32,1.2711,1.2397,0.0,0.0,0.0,0.0,0.0,0.0,0.0,0.0,0.0,0.0,0.0,0.5704,0.6173,0.0,0.0,0.0,0.6622,0.6679,0.6976,0.696,0.0,0.0,0.0,0.0,0.0,0.0,0.0,0.7175,0.7581,0.7666,0.7077,0.6603,0.6509,0.7027,0.7502,0.762,0.7279,0.0,0.6898,0.719,0.7258,0.7339,0.7516,0.8023,0.8167,0.7691,0.8512,0.9112,0.9222,0.9377,0.9811,1.0804,1.1134,1.14,1.2381,1.2162,1.1587,1.0959,1.0779,1.0278,0.9354,0.9761,1.0066,2.1584,2.0911,1.9773,1.8886,1.8323,1.8682,1.8545,1.8211,1.8331,1.8554,1.8975,1.7992,1.7825,1.8136,1.6798,0.0,0.0,1.5951,1.636,1.719,1.7372,1.7995,1.8891,1.8877,1.8789,1.8511,1.8482,1.8147,1.7681,1.7018,1.6633,1.6273,1.4937,1.419,1.3911,1.3286,1.3076,1.3053,1.2372,1.1991,1.2005,1.179,1.1817,1.2357,1.2362,1.2543,1.3134,1.3174,1.3253,1.328,1.328,1.328,1.324,0.0,0.0,0.0,0.0,0.0,0.0,0.0,0.0,0.0,0.0,0.0,0.0,0.0,0.0,0.0,0.7372,0.0,0.76,0.7512,0.0,0.0,0.0,0.8048,0.8238,0.9228,0.9591,0.8568,0.0,0.0,0.82,0.0,0.7244,0.7382,0.7726,0.7874,0.7619,0.7245,0.7068,0.7353,0.7624,0.7801,0.8007,0.9,0.9598,0.8803,0.9934,1.1072,1.1189,1.1091,1.157,1.236,1.264,1.2931,1.4112,1.416,1.3785,1.1974,1.1424,1.1375,1.1707,1.1481,1.1315,2.3866,2.3252,2.2754,2.1481,1.9832,2.006,2.0231,2.0155,2.0144,2.0074,2.0004,2.0465,2.0389,2.0036,1.9497,1.8657,1.7599,1.7497,1.7894,1.8422,1.8316,1.8736,1.9872,1.9652,1.9667,1.9764,1.9333,1.8773,1.831,1.764,1.7136,1.658,1.6032,1.5458,1.4691,1.4287,1.4343,1.4812,1.3817,1.2871,1.2016,1.179,1.174,1.1585,1.2027,1.2456,1.2853,1.3244,1.3722,1.409,1.3951,1.3857,1.3777,1.3386,0.0,0.0,0.0,0.0,0.0,0.0,0.0,0.0,0.0,0.6332,0.6603,0.0,0.6416,0.0,0.797,0.844,0.8466,0.937,0.0,0.0,0.9942,1.0447,1.0599,1.0953,1.0899,1.0476,1.0635,1.0572,1.0113,0.8513,0.8122,0.9574,0.8372,0.7743,0.8667,0.8,0.7333,0.7516,0.7787,0.8139,0.9127,1.01,1.0941,1.1179,1.1268,1.1375,1.1903,1.158,1.156,1.2436,1.2727,1.3125,1.41,1.4304,1.422,1.3688,1.3499,1.355,1.3591,1.2964,1.2252,2.454,2.4071,2.3896,2.3068,2.1958,2.1843,2.1661,2.1334,2.1569,2.1398,2.1199,2.2153,2.2365,2.2084,2.1338,2.0317,1.9161,1.8526,1.86,1.908,1.8912,1.9348,2.0223,2.0047,2.0062,2.0223,1.9845,1.9528,1.9254,1.8499,1.7984,1.7495,1.6975,1.6286,1.5565,1.5244,1.5271,1.5578,1.4888,1.413,1.3393,1.3141,1.2742,1.2373,1.2841,1.3092,1.3117,1.3675,1.4074,1.4223,1.4321,1.4337,1.4159,1.4036,1.3654,0.0,0.0,0.0,0.0,0.0,0.0,0.0,0.0,0.0,0.0,0.0,0.7428,0.7733,0.8864,0.9446,0.918,1.0295,1.1015,1.0747,1.1294,1.1762,1.1951,1.2359,1.2448,1.1838,1.2141,1.2141,1.1492,1.0085,0.987,1.1566,1.092,1.0186,0.9921,0.9317,0.8898,0.9075,0.918,0.9589,1.0742,1.1463,1.2155,1.2953,1.2845,1.2748,1.3061,1.2845,1.2727,1.3318,1.3414,1.3619,1.4196,1.4304,1.4304,1.4304,1.4304,1.4304,1.4304,1.3811,1.3307,2.4583,2.4203,2.4159,2.4101,2.3969,2.3369,2.276,2.2272,2.2581,2.2652,2.2701,2.3528,2.4099,2.4349,2.3154,2.1989,2.0926,1.9664,1.9248,1.9569,1.9541,1.9761,2.0369,2.0325,2.0325,2.0355,2.0311,2.0317,2.02,1.9396,1.8763,1.8386,1.763,1.6975,1.6339,1.6032,1.5872,1.5832,1.5578,1.5311,1.503,1.4736,1.4309,1.3801,1.3975,1.3975,1.3721,1.4102,1.4321,1.4166,1.4489,1.4643,1.4475,1.4406,1.4239,0.0,1.3015,0.0,0.0,0.0,0.0,0.0,0.0,0.0,0.0,0.9526,0.899,0.9094,0.9953,1.0439,1.0134,1.1134,1.1902,1.2093,1.2405,1.2721,1.2852,1.3649,1.3932,1.3091,1.3596,1.3692,1.2813,1.2083,1.2159,1.3069,1.3648,1.3191,1.1631,1.09,1.066,1.0924,1.1067,1.1461,1.2297,1.2727,1.3221,1.41,1.4208,1.4304,1.4208,1.4208,1.4304,1.4304,1.4196,1.4304,1.4304,1.4304,1.4304,1.4304,1.4304,1.4304,1.4304,1.4292,1.4304,2.5637,2.4847,2.4583,2.4174,2.3662,2.3267,2.3126,2.3345,2.3164,2.3948,2.5592,2.5797,2.6273,2.7064,2.6803,2.5241,2.2761,2.242,2.1631,2.0416,2.0188,2.0442,2.0998,2.075,2.0764,2.0998,2.0764,2.0294,1.9871,1.9405,1.8879,1.8099,1.7743,1.7184,1.662,0.0,0.0,0.0,1.5778,1.5605,1.5311,1.503,1.471,1.4362,1.4175,0.0,1.4015,1.4139,1.4334,1.4573,1.4475,0.0,0.0,0.0,0.0,0.0,0.0,0.0,0.0,0.0,0.0,0.0,1.2025,1.1187,1.0289,1.0264,1.0595,1.1058,1.1694,1.2029,1.2167,1.3213,1.3837,1.3676,1.4247,1.4862,1.4943,1.5063,1.5007,1.4675,1.4783,1.4783,1.458,1.4388,1.4292,1.4388,1.4364,1.4136,1.366,1.2141,1.101,1.1048,1.1854,1.2373,1.263,1.3414,1.4004,1.4304,1.4304,1.4304,1.4304,1.4304,1.4304,1.4304,1.4304,1.4304,1.4304,1.4304,1.4316,1.4304,1.4304,1.4304,1.4304,1.4304,1.4304,2.5974,0.0,2.5008,2.4613,0.0,2.3457,2.3296,2.3574,2.3252,2.447,2.6713,2.6713,2.757,2.8937,2.8366,2.6989,2.4855,2.3713,2.2621,2.1616,2.0786,2.0701,2.1203,2.1042,2.1042,2.1203,2.1042,2.0769,2.0467,1.9895,1.9362,1.887,1.8318,1.7668,1.6914,1.637,1.5979,1.5832,1.5832,1.5685,1.5404,1.5244,1.5044,1.475,0.0,0.0,0.0,0.0,0.0,0.0,0.0,0.0,0.0,0.0,0.0,1.5064,1.5019,1.4874,1.4566,1.4529,1.4389,1.4095,1.3477,1.2857,1.2144,1.2006,1.1982,1.1994,1.277,1.3121,1.2966,1.4153,1.4889,1.4797,1.5245,1.5577,1.5615,1.5629,1.5642,1.5452,1.5452,1.5452,1.5452,1.5478,1.5382,1.5166,1.4879,1.4688,1.458,1.3504,1.265,1.265,1.3025,1.3511,1.3511,1.3896,1.4304,1.4304,1.4304,1.4304,1.4304,1.4304,1.4304,1.4304,1.4304,1.4304,1.4304,1.4401,1.4509,1.4497,1.4497,1.44,1.4388,1.4292,1.4304,2.6061,2.5959,2.533,2.4993,2.4803,2.3676,2.331,2.3486,0.0,0.0,0.0,2.7021,2.8282,3.0198,2.9257,2.81,2.6785,2.4956,2.3584,2.2862,2.1828,2.1402,2.1531,2.1546,2.1432,2.1203,2.1203,2.1174,2.1101,2.0294,1.9866,1.9656,1.8915,1.8025,1.7213,1.6319,1.5832,1.5832,1.5832,1.5712,1.5484,1.5523,1.5376,1.5044,1.508,1.5129,1.5205,1.5575,1.5665,1.5665,1.6109,1.6286,1.6109,1.6197,1.6197,1.5842,1.5721,1.5569,1.5224,1.5174,1.499,1.4784,1.4402,1.4183,1.4139,1.3641,1.3131,1.2622,1.3568,1.3926,1.3498,1.4605,1.5418,1.5471,1.5685,1.5818,1.5832,1.5832,1.5832,1.5832,1.5832,1.5832,1.5832,1.575,1.5763,1.5547,1.5274,1.5083,1.5083,1.4675,1.4268,1.4268,1.4292,1.4292,1.4388,1.4292,1.4304,1.4304,1.4304,1.4304,1.4304,1.4304,1.4304,1.44,1.4304,1.4304,1.4412,1.4509,1.4678,1.4654,1.469,1.4592,1.441,1.4352,1.4304,2.6266,2.5974,2.533,2.473,2.4188,2.372,2.3398,2.3179,2.3135,2.4579,2.7021,2.7021,2.8426,3.0801,3.0665,2.9488,2.7655,2.7296,2.6204,0.0,2.4172,2.3615,2.2749,2.2765,2.2214,2.1203,2.1203,2.1057,2.0779,2.0303,1.9874,1.9384,1.9041,1.8334,1.7413,1.6608,1.613,1.613,1.613,1.6008,1.5765,1.5724,1.5575,1.5337,1.5264,1.5218,1.5053,1.55,1.5665,1.5665,1.5946,1.6109,1.6286,1.6212,1.6109,1.63,1.5917,1.5796,1.5979,1.5751,1.5698,1.5599,1.5197,1.469,1.4126,1.4058,1.3904,1.386,1.4223,1.4488,1.4691,1.5113,1.5511,1.5725,1.5805,1.5832,1.5832,1.5832,1.5832,1.5832,1.5832,1.5832,1.5832,1.5845,1.5763,1.5547,1.5369,1.5287,1.5178,1.4987,1.4987,1.4987,1.4783,1.4688,1.4592,1.4496,1.44,1.4304,1.4304,1.4292,1.44,1.44,1.44,1.4592,1.4496,1.4496,1.4592,1.4619,1.4594,1.4485,1.457,1.4642,1.4364,1.4352,1.4304,2.6413,2.6237,2.5769,2.5096,2.4291,2.3618,2.3252,2.3106,2.3106,2.4579,2.6883,2.7021,2.8462,3.0762,3.0898,3.0296,2.9089,2.8162,2.7173,2.6056,2.5145,2.4394,2.3966,2.395,2.3311,2.2199,2.2214,2.2122,2.1826,2.0803,2.0367,2.0589,1.9345,1.8468,1.7938,1.7162,1.6649,1.6649,1.6211,1.5927,1.5832,1.5792,1.5819,1.5832,1.5776,1.5892,1.6091,1.626,1.6444,1.6521,1.6613,1.6718,1.6887,1.6795,1.6613,1.6535,1.6295,1.6099,1.5912,1.5846,1.5778,1.5752,1.547,1.5187,1.5021,1.4744,1.4563,1.4576,1.483,1.5044,1.519,1.5458,1.5685,1.5818,1.5832,1.5832,1.5832,1.5832,1.5832,1.5832,1.5832,1.5832,1.5832,1.5845,1.575,1.5642,1.5655,1.556,1.5452,1.5452,1.5369,1.5178,1.4987,1.4975,1.4892,1.4688,1.4592,1.4688,1.4496,1.4496,1.4592,1.4688,1.4688,1.4892,1.4783,1.4783,1.4892,1.4911,1.49,1.4777,1.4704,1.4642,1.4545,1.4413,1.4304,2.6442,2.6471,2.6149,2.5505,2.4598,2.3632,2.3208,2.3223,2.3223,2.4641,2.6779,2.7021,2.8462,3.0782,3.0898,3.0644,3.0081,2.8937,2.8052,2.7456,2.6224,2.5476,2.5186,2.5058,2.4411,2.3199,2.299,2.299,2.2798,2.1304,2.111,2.1835,1.9968,1.8964,1.8774,1.7824,1.726,1.7232,1.6471,1.6089,1.6021,1.6021,1.6116,1.6319,1.6305,1.6602,1.6885,1.6965,1.7153,1.7246,1.7232,1.7326,1.7326,1.7232,1.7044,1.6763,1.6588,1.6211,1.5832,1.5832,1.5832,1.5818,1.5618,1.5591,1.5697,1.5389,1.5097,1.5017,1.5204,1.5378,1.5418,1.5645,1.5832,1.5832,1.5832,1.5832,1.5832,1.5832,1.5832,1.5832,1.5832,1.5832,1.5832,1.5832,1.5832,1.5832,1.5832,1.5832,1.5832,1.5832,1.5642,1.5369,1.5274,1.5166,1.5178,1.4987,1.4892,1.5083,1.4783,1.4688,1.4987,1.4892,1.4879,1.5083,1.5083,1.5083,1.5108,1.5105,1.5022,1.4887,1.4728,1.469,1.4582,1.4437,1.4304,2.6237,2.6442,2.6164,2.5637,2.492,2.3954,2.353,2.3545,2.3545,2.4859,2.683,2.7021,2.848,3.0645,3.0898,3.0644,3.0234,3.0042,2.9463,2.8765,2.8539,2.7763,2.6318,2.63,2.5203,2.3199,2.299,2.3087,2.3055,2.2166,2.1925,2.2265,2.1269,2.0468,2.0069,1.8637,1.7782,1.7768,1.726,1.6868,1.6602,1.6791,1.6791,1.6588,1.6777,1.6791,1.6683,1.7059,1.7153,1.7073,1.7246,1.7326,1.7232,1.6857,1.6871,1.7153,1.6386,1.5832,1.5832,1.5832,1.5832,1.5832,1.5818,1.5778,1.5792,1.5765,1.5524,1.5177,1.5244,1.5418,1.5418,1.5658,1.5818,1.5792,1.5818,1.5832,1.5805,1.5832,1.5832,1.5832,1.5832,1.5832,1.5832,1.5832,1.5832,1.5832,1.5832,1.5832,1.5832,1.5832,1.5832,1.5737,1.5547,1.5452,1.5452,1.5274,1.5083,1.5083,1.5083,1.5083,1.5083,1.5178,1.5178,1.5356,1.5274,1.5178,1.5134,1.5093,1.4973,1.4752,1.4704,1.4728,1.4413,1.4508,1.458,2.6266,2.6237,2.6486,2.6105,2.5213,2.3896,2.353,2.3852,2.3676,2.4619,2.6395,2.7064,2.8679,3.0898,3.0898,3.0781,3.0586,3.0332,2.9883,2.9297,2.9043,2.8019,2.6663,2.6518,2.5313,2.3199,2.299,2.3424,2.3867,2.3545,2.314,2.2673,2.1179,2.0416,2.0569,1.9149,1.8398,1.8383,1.798,1.7649,1.7347,1.6971,1.6777,1.6871,1.6979,1.7073,1.7044,1.7232,1.7232,1.7153,1.7246,1.7326,1.7326,1.7138,1.7059,1.7059,1.6414,1.5927,1.5832,1.5832,1.5832,1.5832,1.5992,1.6019,1.5858,1.5992,1.5912,1.5578,1.5578,1.5658,1.5658,1.5765,1.5765,1.5645,1.5712,1.5765,1.5591,1.5738,1.5832,1.5832,1.5832,1.5832,1.5832,1.5832,1.5832,1.5832,1.5832,1.5832,1.5832,1.5832,1.5832,1.5832,1.5737,1.5737,1.5642,1.5452,1.5452,1.5452,1.5274,1.5178,1.5452,1.5356,1.5452,1.5629,1.5547,1.5452,1.5547,1.5421,1.5185,1.5096,1.5382,1.5473,1.5261,1.571,1.5981,2.6354,2.6325,2.653,2.6193,2.5403,2.3984,2.3647,2.4042,2.3925,2.4653,2.5945,2.7252,2.8832,3.0348,3.0703,3.0898,3.084,3.0527,3.0156,2.9746,2.9394,2.8584,2.7434,2.6976,2.5722,2.4039,2.3408,2.3472,2.4149,2.4659,2.4333,2.3358,2.1924,2.1242,2.12,2.003,1.9212,1.8891,1.8599,1.8321,1.796,1.7294,1.6956,1.7073,1.7059,1.7153,1.7326,1.7326,1.7326,1.7326,1.7326,1.7326,1.7326,1.7232,1.7153,1.6871,1.6425,1.6101,1.5806,1.5645,1.5658,1.5818,1.6046,1.6236,1.6319,1.6303,1.6179,1.5979,1.5872,1.5818,1.5832,1.5765,1.5605,1.5431,1.5538,1.5511,1.5431,1.5605,1.5738,1.5805,1.5832,1.5913,1.6103,1.5981,1.5873,1.6197,1.6021,1.5832,1.5832,1.5832,1.5832,1.6103,1.6197,1.6103,1.5832,1.5737,1.5642,1.5642,1.5452,1.5452,1.5737,1.5642,1.5642,1.5724,1.5832,1.5832,1.5737,1.5547,1.6021,1.6197,1.648,1.6669,1.6452,1.7109,1.7434,2.6398,2.6778,2.5974,2.5593,2.5447,2.4423,2.4042,2.413,2.4364,2.494,2.5676,2.7637,2.8832,2.9525,3.0543,3.0898,3.0898,3.084,3.0566,3.0156,3.0098,2.9902,2.942,2.8126,2.6839,2.5357,2.3956,2.3067,2.2688,2.4663,2.5404,2.4554,2.4248,2.371,2.2535,2.1355,2.0349,1.9583,1.9125,1.8846,1.8657,1.8116,1.7581,1.7334,1.7232,1.7232,1.7326,1.7326,1.7326,1.7326,1.7326,1.7326,1.7326,1.7153,1.6951,1.6734,1.6387,1.6155,1.5851,1.5504,1.5376,1.5725,1.5925,1.6319,1.7202,1.6742,1.6384,1.6343,1.6074,1.5927,1.5886,1.5698,1.5523,1.5429,1.515,1.5164,1.5456,1.5589,1.5551,1.5846,1.6008,1.6386,1.7138,1.6369,1.649,1.6828,1.648,1.6021,1.6103,1.6008,1.6386,1.6951,1.7138,1.6951,1.6103,1.6008,1.5913,1.5737,1.5737,1.5737,1.5737,1.5832,1.5818,1.5818,1.6021,1.6008,1.5818,1.6183,1.7016,1.739,1.7762,1.7855,1.7747,1.7855,1.8272,2.6647,2.6574,2.5403,2.514,2.5388,2.4276,2.3998,2.4364,2.4291,2.4509,2.5245,2.7305,2.8559,2.901,3.0888,3.1406,3.0918,3.0898,3.0644,3.0234,3.0195,2.9621,2.8314,2.714,2.5874,2.4694,2.3324,2.2813,2.3262,2.4454,2.513,2.4887,2.4364,2.3838,2.3391,2.2484,2.1692,2.1269,2.0546,2.0101,1.9783,1.894,1.8277,1.7955,1.7545,1.7326,1.7326,1.7326,1.7326,1.7326,1.7326,1.7326,1.7311,1.7597,1.7918,1.8234,1.7935,1.7658,1.7351,1.6889,1.6146,1.5444,1.6202,1.6959,1.7369,1.7045,1.6769,1.705,1.6947,1.6842,1.6822,1.6081,1.5769,1.6461,1.5735,1.5349,1.5833,1.6168,1.6501,1.6771,1.7311,1.787,1.8041,1.7916,1.7837,1.8164,1.7961,1.7695,1.7699,1.7684,1.7777,1.8149,1.8241,1.8149,1.787,1.7124,1.6669,1.6008,1.5832,1.5832,1.5832,1.5927,1.6021,1.6292,1.6386,1.6857,1.6936,1.7483,1.8226,1.8395,1.8764,1.9163,1.8964,1.932,1.972,2.6574,2.6047,2.5022,2.4818,2.5081,2.4174,2.4057,2.454,2.4452,2.4466,2.5054,2.6874,2.781,2.8375,3.0585,3.1367,3.0715,3.0917,3.0918,3.0625,3.0488,2.9795,2.8629,2.7052,2.5881,2.4784,2.308,2.2423,2.2782,2.3519,2.4173,2.4774,2.421,2.4083,2.4299,2.3527,2.292,2.2621,2.1843,2.1257,2.1029,2.0316,1.976,1.9481,1.8954,1.8471,1.8187,1.8178,1.8303,1.8458,1.8303,1.8195,1.8072,1.8398,1.8742,1.9033,1.8698,1.8529,1.8485,1.815,1.7095,1.5591,1.7121,1.8168,1.7663,1.7507,1.7598,1.7804,1.7677,1.7725,1.8272,1.7505,1.701,1.7611,1.6727,1.6139,1.6505,1.7011,1.7341,1.7644,1.8422,1.8985,1.9109,1.953,1.9579,1.9347,1.9527,1.9592,1.8936,1.8796,1.898,1.9255,1.9255,1.9255,1.9163,1.8688,1.7591,1.6936,1.6089,1.6008,1.6305,1.64,1.6494,1.6763,1.7217,1.7777,1.8334,1.8888,1.9147,1.933,1.9894,2.0473,2.0633,2.0937,2.1151,2.6135,2.552,2.4832,2.4554,2.4554,2.4159,2.4232,2.454,2.4818,2.4744,2.4864,2.6401,2.6966,2.7198,2.9651,3.0585,3.0408,3.1003,3.1426,3.1348,3.1055,3.0859,3.0529,2.8098,2.6661,2.6127,2.3638,2.1862,2.158,2.2321,2.3141,2.4042,2.4557,2.4893,2.5374,2.4619,2.3799,2.3335,2.2823,2.2484,2.2449,2.2042,2.1773,2.1786,2.1525,2.0937,2.0006,2.0036,2.0205,2.0627,2.0297,1.9996,1.9737,1.9724,1.959,1.9419,1.8701,1.8735,1.9346,1.9121,1.8143,1.716,1.8773,1.9506,1.8513,1.8354,1.8555,1.8602,1.826,1.864,2.0195,1.9744,1.892,1.8496,1.8081,1.7573,1.747,1.7858,1.8361,1.8498,1.9229,1.971,1.9937,2.0642,2.1016,2.0581,2.0881,2.0893,1.9596,1.9347,1.9438,1.9985,2.0257,2.0257,2.0257,2.0167,1.898,1.787,1.6828,1.6358,1.7138,1.7527,1.7714,1.7978,1.8319,1.8888,1.9712,2.0167,2.0439,2.0727,2.132,2.15,2.1662,2.1825,2.2242,2.5915,2.5432,2.4598,2.4232,2.4188,2.3881,2.394,2.4232,2.4349,2.4452,2.4834,2.623,2.674,2.7296,2.945,3.0497,3.0236,3.1098,3.1523,3.1504,3.1367,3.1133,3.043,2.8224,2.6034,2.4347,2.2961,2.2096,2.2038,2.2436,2.3243,2.4054,2.5022,2.5618,2.6034,2.5791,2.5419,2.4895,2.4053,2.3583,2.3484,2.2763,2.2412,2.2361,2.2638,2.284,2.2761,2.1692,2.1174,2.1371,2.1156,2.1316,2.1731,2.1608,2.177,2.2176,2.1783,2.1633,2.1864,2.1518,2.1112,2.0866,2.0845,2.0637,2.0147,1.9115,1.9193,2.0165,1.9669,1.9668,2.1567,2.1728,2.101,2.0713,1.9558,1.8872,1.8946,1.9117,1.957,2.0132,2.0499,2.0674,2.0745,2.1386,2.1463,2.1284,2.1482,2.1228,2.0887,2.0512,2.0817,2.1266,2.1266,2.1051,2.0997,2.0764,1.9918,1.8932,1.7933,1.7375,1.8056,1.8767,1.9044,1.9196,1.953,2.0076,2.0817,2.1266,2.1374,2.1482,2.1589,2.188,2.2226,2.252,2.2832,2.5827,2.5447,2.4744,2.4291,2.4086,2.3852,2.3896,2.4071,2.4086,2.4203,2.4642,2.5434,2.5782,2.6226,2.8229,2.9221,2.9493,3.0485,3.118,3.1385,3.1328,3.1133,3.0547,2.8224,2.583,2.3856,2.2778,2.2228,2.1979,2.2382,2.3103,2.4326,2.4914,2.589,2.6846,2.6777,2.6523,2.6306,2.5538,2.4932,2.4796,2.4089,2.3701,2.3764,2.4073,2.4365,2.4553,2.3584,2.2985,2.2822,2.2677,2.2832,2.3241,2.296,2.3062,2.3338,2.334,2.3262,2.3524,2.3221,2.3411,2.3768,2.2901,2.1936,2.1526,2.0149,2.0362,2.1109,2.0649,2.0802,2.2524,2.2701,2.252,2.2575,2.1437,2.0675,2.0797,2.0624,2.066,2.1065,2.1131,2.1126,2.1131,2.1134,2.1409,2.1624,2.1733,2.1698,2.1642,2.1496,2.1585,2.1511,2.1259,2.1244,2.1498,2.1194,2.0748,1.9974,1.9206,1.8948,1.9163,2.0012,2.0429,2.0417,2.0619,2.0817,2.1463,2.1553,2.1642,2.1768,2.1823,2.219,2.252,2.2813,2.3088,2.5827,2.5505,2.5183,2.4671,2.4159,2.4071,2.4086,2.413,2.4086,2.4115,2.4218,2.4525,2.4466,2.4565,2.6229,2.7416,2.8226,2.956,3.0577,3.1149,3.1113,3.0801,3.0274,2.8343,2.6386,2.4569,2.3354,2.2436,2.192,2.2111,2.2797,2.4539,2.4833,2.5559,2.741,2.7402,2.7168,2.7246,2.6657,2.6326,2.6287,2.5917,2.5605,2.5605,2.5528,2.5489,2.5509,2.5334,2.5257,2.5117,2.4484,2.4195,2.3971,2.3906,2.3777,2.3613,2.3379,2.3769,2.4277,2.4365,2.4617,2.5025,2.4603,2.3991,2.2337,2.169,2.1439,2.1717,2.1258,2.1613,2.2835,2.2939,2.3128,2.3725,2.2939,2.255,2.2793,2.2135,2.1624,2.1514,2.1383,2.1089,2.1071,2.0811,2.1083,2.1423,2.1551,2.1514,2.1478,2.1401,2.1328,2.1181,2.0979,2.1034,2.1167,2.1131,2.0692,2.0483,2.0004,2.0142,2.0048,2.0727,2.1212,2.1212,2.1248,2.148,2.1642,2.1642,2.1731,2.175,2.2006,2.2447,2.2647,2.2848,2.3052,2.5827,2.5505,2.5183,2.4818,2.4423,2.4203,2.4232,2.4393,2.4174,2.4188,2.4349,2.4262,2.4027,2.3878,2.52,2.6303,2.7432,2.8666,2.9949,3.0937,3.0957,3.0274,2.953,2.8801,2.7194,2.5246,2.4448,2.349,2.248,2.3181,2.4037,2.5042,2.5945,2.6754,2.7641,2.7637,2.7363,2.7207,2.7012,2.6855,2.6797,2.6445,2.623,2.6191,2.5918,2.5762,2.5742,2.5723,2.5703,2.5586,2.5469,2.5352,2.5156,2.5137,2.5019,2.4902,2.4961,2.4922,2.4922,2.5176,2.5215,2.473,2.4888,2.4488,2.3991,2.2554,2.2327,2.2572,2.1925,2.1543,2.2677,2.2683,2.2795,2.3128,2.3015,2.2957,2.2994,2.2336,2.1731,2.1695,2.1383,2.1108,2.0943,2.1007,2.128,2.1277,2.1134,2.0992,2.1186,2.1108,2.0979,2.0814,2.0649,2.0686,2.0723,2.0704,2.0619,2.0741,2.0753,2.1112,2.0941,2.1085,2.1189,2.1167,2.1062,2.1167,2.1459,2.1624,2.1731,2.1676,2.1915,2.2135,2.2353,2.259,2.2868,2.7119,2.6679,2.6633,2.633,2.5905,2.5026,2.4583,2.4349,2.4174,2.4013,2.3969,2.3925,2.3691,2.3554,2.4275,2.5514,2.6918,2.7727,2.9057,3.0782,3.0898,3.0509,2.9785,2.9275,2.8086,2.6866,2.5957,2.5173,2.4515,2.4919,2.556,2.6285,2.7042,2.7713,2.8194,2.8184,2.7988,2.7617,2.7402,2.7285,2.7266,2.6875,2.6543,2.6406,2.6113,2.5957,2.5781,2.5723,2.5723,2.5723,2.5723,2.5723,2.5723,2.5723,2.5644,2.5508,2.5605,2.5449,2.5059,2.5352,2.5488,2.5137,2.5043,2.5141,2.5024,2.3966,2.3758,2.3966,2.3003,2.2739,2.2835,2.2826,2.2701,2.2722,2.2738,2.2939,2.3195,2.2685,2.2208,2.1988,2.1768,2.1475,2.0985,2.1157,2.123,2.1192,2.0889,2.0887,2.1039,2.0802,2.0704,2.0631,2.0576,2.0631,2.0521,2.0448,2.0437,2.0455,2.0734,2.1267,2.1188,2.1039,2.0961,2.0869,2.0869,2.0979,2.131,2.1566,2.1566,2.1603,2.1786,2.1971,2.2318,2.2462,2.2722,2.8617,2.8324,2.8659,2.8451,2.7892,2.6512,2.5517,2.4686,2.4363,2.3881,2.353,2.3515,2.3398,2.3135,2.3636,2.4735,2.6658,2.6745,2.8444,2.9903,3.0762,3.0762,3.0645,2.9766,2.9112,2.8517,2.7642,2.7039,2.6645,2.6645,2.7158,2.7719,2.7952,2.837,2.8784,2.8945,2.875,2.834,2.8027,2.7812,2.7676,2.7305,2.6953,2.6699,2.6269,2.6172,2.5977,2.584,2.5801,2.5898,2.584,2.5801,2.5781,2.5742,2.5605,2.5371,2.5527,2.5391,2.4785,2.5254,2.5684,2.5605,2.5644,2.5859,2.5875,2.5465,2.5137,2.5096,2.4782,2.4073,2.339,2.3281,2.2862,2.2501,2.2667,2.2701,2.2848,2.2829,2.2758,2.241,2.2318,2.2006,2.1572,2.1158,2.0832,2.135,2.1192,2.148,2.1423,2.1222,2.1016,2.0723,2.0668,2.0649,2.0448,2.0246,2.0171,2.0243,2.0521,2.0771,2.0741,2.0656,2.0473,2.0484,2.0576,2.0796,2.1126,2.1273,2.1401,2.1585,2.1805,2.2116,2.2428,2.2464,2.2648,2.7076,2.782,2.817,2.8907,2.946,2.8365,2.7551,2.7102,2.5293,2.454,2.413,2.3559,2.3237,2.3149,2.3377,2.4022,2.5488,2.5839,2.6883,2.9157,3.0528,3.0898,3.0898,3.043,3.0092,2.9471,2.881,2.8335,2.8062,2.8277,2.8519,2.8744,2.9221,2.9618,2.9492,2.9414,2.9219,2.8848,2.8672,2.8437,2.8125,2.7754,2.7461,2.7246,2.6445,2.6269,2.6504,2.6094,2.6094,2.6484,2.6426,2.6172,2.5918,2.6055,2.5957,2.5644,2.5605,2.5488,2.5078,2.5098,2.5391,2.5742,2.582,2.6055,2.6676,2.6222,2.5891,2.5676,2.5229,2.4575,2.3555,2.3143,2.285,2.2483,2.2208,2.2337,2.274,2.2685,2.2612,2.2575,2.2043,2.1365,2.1346,2.1445,2.1338,2.135,2.1713,2.2189,2.1988,2.175,2.1438,2.1108,2.1328,2.131,2.0741,2.0492,2.0274,2.0225,2.0449,2.1211,2.1077,2.0498,2.051,2.0466,2.0356,2.0649,2.1071,2.1346,2.153,2.1695,2.186,2.2171,2.241,2.252,2.2777,2.7757,2.7861,2.8865,2.9696,3.0276,2.9743,2.8956,2.7947,2.692,2.5727,2.4878,2.4203,2.3866,2.3574,2.3686,2.426,2.5265,2.6232,2.7535,2.9265,3.025,3.0753,3.1191,3.1152,3.0757,3.0244,3.0016,2.9729,2.9601,2.9711,2.9865,2.9903,3.0258,3.0178,2.9922,2.9863,2.9629,2.9258,2.9004,2.8789,2.8555,2.8184,2.7812,2.7598,2.6836,2.6602,2.6894,2.6621,2.6621,2.6875,2.6973,2.668,2.6172,2.623,2.6055,2.5566,2.5644,2.5371,2.498,2.498,2.5371,2.5996,2.6035,2.668,2.7285,2.7279,2.6982,2.6788,2.6275,2.5457,2.3974,2.3616,2.3148,2.2428,2.2153,2.23,2.2758,2.2758,2.2685,2.2756,2.2612,2.23,2.2099,2.168,2.1807,2.1916,2.2777,2.3205,2.2373,2.2135,2.1933,2.1786,2.2098,2.1988,2.1255,2.0825,2.0428,2.0481,2.0604,2.1752,2.261,2.1652,2.0692,2.0686,2.0631,2.0759,2.1126,2.1383,2.1676,2.1768,2.1951,2.2135,2.2373,2.2667,2.3091,2.9341,2.8587,3.0174,3.0819,3.092,3.108,2.9984,2.8374,2.8164,2.6923,2.5514,2.5125,2.4613,2.432,2.4232,2.4804,2.5882,2.7144,2.8622,2.9879,3.0493,3.1092,3.154,3.1601,3.1484,3.1094,3.082,3.0781,3.1013,3.0996,3.0703,3.0957,3.0898,3.0644,3.0371,3.0293,3.0098,2.9687,2.9394,2.9141,2.8965,2.8613,2.8223,2.7793,2.7226,2.707,2.7207,2.709,2.7051,2.7207,2.7559,2.7305,2.6816,2.6523,2.625,2.5488,2.5703,2.543,2.5019,2.5019,2.543,2.6289,2.6465,2.7051,2.7891,2.8144,2.7969,2.7707,2.7311,2.65,2.4613,2.4305,2.3666,2.2738,2.2371,2.2703,2.2997,2.3088,2.2957,2.2829,2.2667,2.2355,2.2095,2.1835,2.2178,2.2582,2.3465,2.39,2.3074,2.2667,2.2557,2.2575,2.2887,2.274,2.2061,2.1332,2.1015,2.1122,2.1122,2.2224,2.3505,2.3013,2.1988,2.1181,2.1053,2.1255,2.1475,2.1786,2.197,2.1933,2.2171,2.2464,2.2647,2.285,2.3349,3.1496,3.181,3.2476,3.3081,3.3236,3.2611,3.1555,3.0102,2.8526,2.7077,2.5923,2.5315,2.5081,2.4905,2.4891,2.5484,2.647,2.7805,2.9028,3.0241,3.1143,3.1841,3.1968,3.2051,3.1992,3.1777,3.1406,3.1465,3.1855,3.1504,3.1152,3.1269,3.1055,3.0801,3.0762,3.0762,3.0566,3.0234,3.0,2.9785,2.9492,2.9062,2.8613,2.8203,2.7617,2.7578,2.7773,2.7441,2.7344,2.7988,2.8144,2.7891,2.7539,2.7402,2.7109,2.6582,2.5977,2.5605,2.5547,2.5215,2.5586,2.6211,2.668,2.7266,2.8008,2.8301,2.8223,2.8203,2.7854,2.717,2.5907,2.5459,2.4464,2.3314,2.3033,2.3492,2.3749,2.3694,2.3345,2.3012,2.2667,2.2373,2.2276,2.2268,2.2546,2.2858,2.34,2.3873,2.3588,2.3419,2.3437,2.3529,2.3694,2.3363,2.2887,2.2117,2.1645,2.191,2.2182,2.2793,2.371,2.3948,2.3422,2.2373,2.1915,2.2043,2.2226,2.2318,2.241,2.2391,2.261,2.2848,2.3012,2.3213,2.3639,3.1914,3.1969,3.3148,3.355,3.3501,3.3918,3.3114,3.1555,2.9868,2.8526,2.7507,2.6438,2.571,2.5593,2.5549,2.6088,2.7142,2.8757,2.9819,3.0901,3.1589,3.2354,3.2435,3.25,3.25,3.2324,3.1914,3.1797,3.2344,3.1641,3.1367,3.1348,3.1094,3.0898,3.0957,3.1094,3.1055,3.084,3.0664,3.0449,3.0176,2.9609,2.9062,2.8633,2.8457,2.8476,2.8418,2.832,2.8184,2.8476,2.8398,2.8203,2.8066,2.791,2.7695,2.7051,2.6269,2.5977,2.6094,2.5703,2.5684,2.6855,2.709,2.7422,2.8027,2.8301,2.8301,2.8301,2.8155,2.7612,2.65,2.6332,2.5488,2.4564,2.4288,2.4479,2.4553,2.4362,2.3895,2.3437,2.3162,2.3033,2.3033,2.3048,2.3125,2.3213,2.3487,2.3669,2.3914,2.384,2.3785,2.3822,2.3859,2.3767,2.3419,2.2997,2.2555,2.284,2.3051,2.3675,2.3901,2.4177,2.403,2.3345,2.3125,2.2997,2.2722,2.2703,2.2774,2.2939,2.3067,2.3231,2.3432,2.3688,2.4115,3.2773,3.245,3.3955,3.4091,3.3591,3.4604,3.4012,3.2277,3.0802,2.9478,2.8632,2.7636,2.6982,2.6773,2.6968,2.7336,2.7927,2.9833,3.0942,3.1819,3.2169,3.2568,3.2836,3.293,3.293,3.2871,3.2637,3.2363,3.2305,3.1894,3.1641,3.1465,3.1152,3.0957,3.0996,3.1269,3.1445,3.1406,3.123,3.0996,3.0605,3.0078,2.9492,2.9101,2.9394,2.9336,2.9082,2.8984,2.8945,2.8926,2.8711,2.8437,2.8418,2.834,2.7969,2.7285,2.6465,2.6504,2.6504,2.623,2.6172,2.7187,2.7324,2.7695,2.8027,2.8301,2.8301,2.8301,2.8281,2.7999,2.7311,2.7014,2.6557,2.5945,2.559,2.5488,2.5395,2.5181,2.4794,2.4405,2.3956,2.3602,2.3492,2.2858,2.2691,2.3588,2.3785,2.3785,2.3993,2.3749,2.3694,2.3767,2.3822,2.395,2.384,2.3749,2.3639,2.395,2.4035,2.4362,2.438,2.4435,2.417,2.4134,2.4134,2.3969,2.3547,2.3198,2.3382,2.3529,2.3584,2.3633,2.3808,2.4181,2.4693,3.6495,3.6109,3.6673,3.6363,3.5549,3.5062,3.3516,3.151,3.0668,2.8947,2.7636,2.8187,2.8504,2.8775,2.9501,2.9783,3.0087,3.0936,3.2004,3.2823,3.3046,3.3154,3.334,3.3359,3.3281,3.3242,3.3223,3.3047,3.2715,3.2305,3.1914,3.1641,3.1523,3.1289,3.1055,3.1406,3.1504,3.1504,3.1445,3.1074,3.0469,3.0195,2.9902,2.9629,2.959,2.9609,2.9531,2.9492,2.9492,2.9434,2.9082,2.8867,2.8789,2.8476,2.832,2.793,2.7422,2.6914,2.7051,2.6758,2.6699,2.7363,2.7695,2.8105,2.8262,2.8301,2.8301,2.8301,2.8301,2.8242,2.7941,2.7854,2.7429,2.697,2.6655,2.638,2.6229,2.5891,2.5619,2.5154,2.4664,2.4159,2.3785,2.2961,2.2387,2.3335,2.411,2.4147,2.3956,2.373,2.3639,2.3712,2.3914,2.406,2.4225,2.4152,2.4335,2.4748,2.484,2.4896,2.4877,2.4877,2.4977,2.4959,2.4922,2.4721,2.4262,2.4005,2.4024,2.4005,2.4024,2.4045,2.4097,2.4674,2.5424,3.7563,3.709,3.8161,3.7944,3.6738,3.6602,3.5568,3.3705,3.1545,3.0215,2.9042,2.7737,2.7925,2.9228,3.0856,3.1711,3.1756,3.2768,3.3296,3.3428,3.3613,3.3633,3.3457,3.3418,3.3418,3.3418,3.3418,3.332,3.3047,3.2754,3.2383,3.2226,3.1992,3.168,3.1328,3.168,3.168,3.1601,3.1465,3.1191,3.0762,3.0547,3.0371,2.9961,3.0156,3.0137,2.998,2.9922,2.9922,2.9844,2.9512,2.916,2.8965,2.873,2.8574,2.8262,2.7969,2.7754,2.7715,2.7285,2.7324,2.7656,2.8066,2.8242,2.8301,2.8301,2.8301,2.8301,2.8301,2.8301,2.8301,2.8194,2.797,2.7728,2.74,2.719,2.6874,2.6589,2.6314,2.5863,2.5517,2.5061,2.4472,2.3574,2.3216,2.4035,2.459,2.4653,2.4313,2.3767,2.3694,2.3675,2.395,2.4207,2.4427,2.4537,2.4619,2.4977,2.5209,2.5264,2.5422,2.5496,2.554,2.5307,2.5032,2.4867,2.4776,2.4666,2.4519,2.4482,2.4464,2.4343,2.4404,2.5907,2.6827,3.8023,3.7524,3.9066,3.9046,3.7842,3.7748,3.672,3.5275,3.2629,3.1081,3.0086,2.8271,2.8115,2.9699,3.1926,3.2933,3.2648,3.4309,3.4309,3.3995,3.373,3.3672,3.3496,3.3418,3.3418,3.3418,3.3418,3.3398,3.332,3.3105,3.2891,3.2793,3.2461,3.209,3.1914,3.2051,3.2148,3.1777,3.1738,3.1426,3.0976,3.0859,3.0664,3.0566,3.0644,3.0723,3.043,3.0371,3.0371,3.0293,2.9961,2.959,2.9375,2.9043,2.8789,2.8516,2.8281,2.8184,2.8047,2.7812,2.7773,2.8047,2.8301,2.8301,2.8301,2.8301,2.8301,2.8301,2.8301,2.8301,2.8301,2.8301,2.8262,2.8135,2.8009,2.7835,2.7574,2.7372,2.7103,2.6845,2.6465,2.6266,2.5544,2.4332,2.4242,2.4849,2.5191,2.532,2.492,2.4233,2.417,2.4262,2.4427,2.4684,2.4794,2.4977,2.5057,2.5222,2.5454,2.5619,2.5922,2.5816,2.5872,2.5527,2.5289,2.5454,2.5656,2.5307,2.4977,2.4941,2.4802,2.4512,2.4881,2.6641,2.8001,3.7907,3.7927,3.9189,3.9634,3.9269,3.743,3.5938,3.5021,3.3127,3.0923,2.9175,2.9061,2.9993,3.1458,3.2814,3.3577,3.3047,3.4148,3.4398,3.4073,3.3691,3.3613,3.3535,3.3535,3.3437,3.3476,3.3437,3.3418,3.3418,3.3359,3.3105,3.2832,3.2832,3.2519,3.2305,3.2363,3.2422,3.2129,3.2012,3.1601,3.1133,3.0918,3.084,3.084,3.0859,3.0879,3.084,3.0781,3.0762,3.0742,3.0391,3.0078,2.9824,2.9414,2.9082,2.8867,2.8633,2.8476,2.8242,2.8164,2.8223,2.8262,2.8301,2.8301,2.8301,2.8301,2.8301,2.8242,2.8164,2.8164,2.8203,2.8281,2.8184,2.8203,2.8096,2.8135,2.8019,2.8038,2.7893,2.768,2.7458,2.6967,2.668,2.5632,2.5222,2.5823,2.605,2.618,2.5853,2.5284,2.5219,2.519,2.5282,2.5289,2.5289,2.5454,2.5656,2.5784,2.5894,2.6221,2.6424,2.6279,2.6096,2.6151,2.6041,2.6279,2.6479,2.6212,2.5945,2.5503,2.5307,2.5526,2.6814,2.892,2.9746,3.7109,3.8223,3.9252,3.9455,3.8909,3.8627,3.7848,3.666,3.484,3.233,2.9395,3.0395,3.1414,3.2423,3.3387,3.4342,3.4498,3.5201,3.5102,3.4575,3.4211,3.4132,3.4093,3.375,3.3555,3.3691,3.3574,3.3418,3.3418,3.3496,3.3594,3.3457,3.332,3.293,3.2754,3.2559,3.248,3.2422,3.207,3.1543,3.1387,3.0996,3.0898,3.0898,3.0898,3.0898,3.0879,3.0898,3.0898,3.084,3.0684,3.0488,3.0254,2.9824,2.9551,2.9336,2.9101,2.8809,2.8379,2.832,2.8301,2.8301,2.8301,2.8281,2.8281,2.8301,2.8125,2.8027,2.7969,2.7969,2.7578,2.7754,2.7891,2.7969,2.8086,2.8242,2.8301,2.8301,2.8174,2.7863,2.7756,2.7573,2.7233,2.6962,2.6723,2.6648,2.6845,2.6949,2.6513,2.6248,2.602,2.5934,2.5885,2.6045,2.615,2.6125,2.624,2.6528,2.6602,2.6732,2.6971,2.6536,2.6426,2.6573,2.6591,2.6536,2.6643,2.7012,2.6824,2.6356,2.6617,2.7153,2.888,3.1102,3.1625,3.6036,3.737,3.8425,3.8987,3.8908,3.9088,3.8705,3.7806,3.5917,3.3502,3.0919,3.1363,3.1938,3.2898,3.3953,3.4586,3.5251,3.5759,3.5581,3.5091,3.4823,3.4863,3.4615,3.425,3.4044,3.4201,3.4083,3.3887,3.3799,3.3877,3.3995,3.3926,3.3887,3.3594,3.3203,3.2793,3.2656,3.2578,3.2305,3.1797,3.1719,3.1484,3.1191,3.1152,3.1113,3.0996,3.0937,3.0898,3.0898,3.0898,3.082,3.0703,3.0488,3.0254,3.0039,2.9844,2.959,2.9258,2.8809,2.8125,2.8047,2.8172,2.8066,2.8144,2.8262,2.8301,2.8164,2.8008,2.7891,2.7715,2.7383,2.7793,2.7988,2.8105,2.8184,2.8301,2.8301,2.8301,2.8174,2.8048,2.7941,2.7921,2.7814,2.7561,2.7523,2.734,2.7332,2.7391,2.7285,2.6997,2.6673,2.6623,2.6486,2.6717,2.6986,2.6886,2.7069,2.8027,2.8105,2.7523,2.7403,2.7116,2.6809,2.6791,2.6791,2.67,2.6844,2.727,2.7289,2.7239,2.8074,2.9167,3.0641,3.2608,3.3317,3.4489,3.5135,3.664,3.8336,3.9651,3.8835,3.801,3.7395,3.6057,3.4296,3.2519,3.1884,3.2077,3.3062,3.4241,3.4972,3.5726,3.6228,3.6082,3.581,3.55,3.544,3.5171,3.4972,3.4803,3.4979,3.4959,3.4704,3.4576,3.4834,3.4744,3.4505,3.4434,3.4375,3.4023,3.3594,3.3184,3.2871,3.2793,3.2441,3.2207,3.207,3.1855,3.1582,3.1504,3.1367,3.1094,3.0918,3.0898,3.0898,3.0898,3.084,3.0781,3.0449,3.0273,3.0195,2.9863,2.9629,2.9414,2.7969,2.7702,2.7944,2.78,2.7976,2.8184,2.8301,2.8281,2.8125,2.8184,2.8184,2.8184,2.8184,2.8125,2.8223,2.8281,2.8301,2.8301,2.8301,2.8174,2.8174,2.8301,2.8301,2.8301,2.8174,2.8194,2.8067,2.796,2.7921,2.7756,2.7554,2.7294,2.71,2.705,2.7496,2.7622,2.7523,2.7902,2.9071,2.9493,2.886,2.8495,2.8466,2.8018,2.7352,2.772,2.8346,2.7975,2.7657,2.8643,2.987,3.0594,3.172,3.3065,3.3771,3.4289,3.3387,3.4658,3.6896,3.833,3.8835,3.8453,3.8187,3.7868,3.6877,3.5607,3.4225,3.3306,3.3463,3.4259,3.4664,3.528,3.6343,3.6876,3.6942,3.732,3.6676,3.6737,3.6596,3.5962,3.5581,3.5811,3.5751,3.5529,3.54,3.5681,3.556,3.5317,3.5054,3.4883,3.4394,3.3906,3.3418,3.3476,3.3164,3.2715,3.2598,3.2559,3.2383,3.1992,3.1973,3.1738,3.1328,3.1113,3.0937,3.0898,3.0898,3.0898,3.0898,3.0625,3.0644,3.0644,3.043,3.0137,2.957,2.8476,2.7695,2.7604,2.7545,2.8003,2.8874,2.8554,2.8427,2.834,2.8418,2.8301,2.793,2.7871,2.7891,2.8203,2.8301,2.8301,2.8301,2.8301,2.8301,2.8301,2.8301,2.8301,2.8301,2.832,2.834,2.8437,2.833,2.8233,2.8048,2.7921,2.763,2.7523,2.7669,2.8116,2.8475,2.8827,2.953,3.0724,3.0888,3.0307,2.9973,2.9884,2.9774,2.9534,2.9863,3.0065,3.0012,3.0186,3.1827,3.2962,3.3131,3.3281,3.4162,3.4525,3.4831,3.2456,3.3641,3.6543,3.7637,3.7814,3.8228,3.8303,3.782,3.6951,3.6032,3.512,3.4468,3.4812,3.5387,3.5611,3.5941,3.7278,3.781,3.7883,3.8361,3.797,3.7848,3.751,3.7044,3.6618,3.6618,3.6587,3.6384,3.6274,3.6415,3.6354,3.623,3.5712,3.5323,3.4779,3.4348,3.3769,3.3769,3.3418,3.3144,3.3144,3.3105,3.2891,3.2656,3.2461,3.2187,3.1758,3.1387,3.1035,3.0976,3.0898,3.0898,3.0898,3.0898,3.0898,3.0898,3.082,3.041,2.9609,2.8965,2.8251,2.7688,2.7604,2.8133,2.8996,2.8828,2.8828,2.8809,2.8691,2.8574,2.8359,2.8223,2.8086,2.8418,2.8437,2.8437,2.8711,2.875,2.8633,2.8613,2.8437,2.8418,2.8359,2.834,2.8379,2.8584,2.8682,2.8584,2.8418,2.8349,2.8261,2.8114,2.8604,2.954,3.0113,3.0599,3.146,3.252,3.2236,3.1788,3.1902,3.2017,3.1954,3.1657,3.1506,3.1545,3.2169,3.2942,3.3608,3.4252,3.4509,3.4895,3.5244,3.5373,3.5478,3.1816,3.2088,3.51,3.6519,3.6734,3.8065,3.8068,3.7003,3.6163,3.561,3.5187,3.5422,3.5718,3.6254,3.6485,3.715,3.7914,3.8523,3.8664,3.8712,3.8774,3.8595,3.8289,3.784,3.7545,3.7522,3.7377,3.7115,3.7003,3.7055,3.7165,3.6877,3.615,3.5858,3.5488,3.504,3.4328,3.4113,3.373,3.3555,3.3574,3.3633,3.3437,3.3203,3.2949,3.2598,3.2187,3.1797,3.1367,3.1133,3.0957,3.0918,3.0898,3.0898,3.0898,3.0859,3.082,3.0312,2.9805,2.9219,2.8828,2.8447,2.8702,2.8655,2.8694,2.9043,2.9004,2.9121,2.9121,2.9316,2.9375,2.8965,2.8574,2.8672,2.8672,2.8926,2.9316,2.9355,2.9199,2.9043,2.8789,2.8672,2.8594,2.8535,2.8564,2.8937,2.9144,2.9046,2.8898,2.8887,2.8867,2.8839,2.9567,3.1019,3.1699,3.2144,3.3168,3.4185,3.3982,3.3578,3.3802,3.3997,3.3832,3.3537,3.292,3.3051,3.3959,3.4325,3.4516,3.5055,3.5686,3.5695,3.5856,3.5887,3.6041,3.2036,3.1895,3.5066,3.6509,3.6654,3.7355,3.7233,3.6703,3.6567,3.6526,3.6404,3.5881,3.5968,3.6201,3.666,3.7384,3.8088,3.873,3.9516,3.9667,3.9528,3.9399,3.9069,3.8582,3.8285,3.8109,3.7964,3.7922,3.7831,3.777,3.7616,3.7246,3.6716,3.6463,3.6242,3.589,3.5151,3.4477,3.4093,3.3848,3.3906,3.3984,3.3809,3.3535,3.3301,3.2969,3.2617,3.2207,3.1777,3.1406,3.1328,3.125,3.0898,3.0879,3.082,3.043,3.0371,3.0234,3.0039,2.9883,2.959,2.9277,2.9512,2.9569,2.9282,2.8976,2.8965,2.918,2.9316,2.9394,2.9336,2.9023,2.8984,2.9141,2.9043,2.8984,2.9355,2.9531,2.9394,2.918,2.8945,2.873,2.8652,2.8643,2.875,2.9262,2.9498,2.938,2.9251,2.9349,2.9219,2.9301,3.0574,3.1975,3.2853,3.3382,3.4636,3.5608,3.5409,3.5341,3.5549,3.5642,3.5701,3.5502,3.491,3.5352,3.6079,3.6117,3.5825,3.614,3.6671,3.6549,3.6449,3.6363,3.6363,3.2276,3.1983,3.4681,3.6142,3.6364,3.6944,3.6944,3.6884,3.7064,3.7146,3.7033,3.665,3.6588,3.715,3.7467,3.8088,3.933,3.9454,3.9951,4.0365,4.0241,3.9889,3.9558,3.9206,3.875,3.8419,3.8191,3.8129,3.8191,3.8037,3.7904,3.777,3.7482,3.7185,3.683,3.6435,3.585,3.5171,3.4685,3.4191,3.423,3.4141,3.3828,3.3769,3.3574,3.3281,3.3047,3.2637,3.2148,3.1641,3.1523,3.1328,3.0918,3.0742,3.041,3.0059,2.9941,2.9941,2.9824,2.9668,2.9785,2.9937,2.9687,2.918,2.9153,2.8926,2.9082,2.9258,2.9258,2.9238,2.9192,2.9133,2.9375,2.9595,2.9336,2.8965,2.9219,2.9512,2.9414,2.9199,2.8984,2.873,2.8682,2.8691,2.8858,2.9144,2.9498,2.9656,2.9656,2.9623,2.9492,2.9486,3.1244,3.2985,3.3678,3.4456,3.577,3.6637,3.6796,3.6868,3.7084,3.7052,3.6848,3.6932,3.7098,3.7216,3.7109,3.718,3.7002,3.7251,3.7251,3.7012,3.6796,3.658,3.6603,3.2378,3.1703,3.4331,3.5818,3.6112,3.6674,3.7079,3.7213,3.7441,3.7524,3.748,3.7488,3.7777,3.8005,3.8067,3.875,3.9516,3.9806,3.9972,4.0737,4.0448,4.0013,3.9537,3.9413,3.8812,3.8398,3.8191,3.8191,3.8191,3.8171,3.8037,3.8191,3.7904,3.7554,3.7493,3.7116,3.6607,3.6314,3.5551,3.5042,3.4634,3.423,3.3691,3.4113,3.3789,3.3476,3.3379,3.2988,3.2441,3.1894,3.1543,3.1406,3.0918,3.0605,3.0176,2.9785,2.9687,2.957,2.9492,2.9277,2.9747,2.9739,2.9273,2.8839,2.873,2.8809,2.8945,2.8984,2.8965,2.9199,2.918,2.8867,2.8875,2.9283,2.9264,2.9205,2.959,2.9687,2.9473,2.9199,2.8809,2.8613,2.8789,2.8819,2.8594,2.8887,2.9062,2.9447,2.9754,2.9721,2.9984,3.0016,3.1636,3.3269,3.4151,3.506,3.6578,3.7445,3.7613,3.7709,3.7565,3.7709,3.7926,3.7844,3.7583,3.7737,3.7761,3.7679,3.7572,3.7572,3.7572,3.7489,3.7274,3.7082,3.6898,3.1577,3.1375,3.452,3.6054,3.6384,3.6287,3.6694,3.7482,3.7213,3.7554,3.7831,3.7695,3.7653,3.7984,3.8171,3.8688,3.8957,3.962,3.9744,3.9909,3.9951,3.9744,3.9144,3.9081,3.8688,3.8378,3.8191,3.8191,3.8171,3.8171,3.8171,3.8191,3.8017,3.7975,3.8099,3.7606,3.7524,3.7197,3.6598,3.5892,3.5661,3.504,3.4603,3.4654,3.4398,3.3867,3.3711,3.3437,3.2812,3.2187,3.2051,3.1621,3.0937,3.0781,3.0312,2.9766,2.959,2.9434,2.9238,2.9062,2.9341,2.947,2.9124,2.878,2.8555,2.8594,2.8613,2.8633,2.8789,2.9082,2.9199,2.8739,2.8544,2.8953,2.9172,2.9536,2.9863,2.9668,2.9453,2.9082,2.8633,2.8672,2.8867,2.8797,2.8591,2.8591,2.8501,2.8765,2.9329,2.9707,3.0791,3.11,3.1993,3.3416,3.4419,3.5666,3.7082,3.7589,3.7685,3.7829,3.7974,3.7974,3.7974,3.7974,3.7974,3.7974,3.7974,3.7974,3.7868,3.7892,3.7881,3.7846,3.7893,3.7702,3.7613,3.2247,3.2087,3.4564,3.5877,3.6032,3.6073,3.6559,3.7213,3.7213,3.7502,3.8171,3.7943,3.7902,3.7984,3.8191,3.846,3.8667,3.904,3.9413,3.9495,3.9413,3.9288,3.9019,3.8792,3.8564,3.8295,3.8212,3.8191,3.8171,3.7984,3.7943,3.8274,3.8212,3.8088,3.8316,3.8316,3.8037,3.7863,3.7319,3.6942,3.6567,3.5902,3.5131,3.4933,3.4626,3.428,3.375,3.3496,3.3105,3.2441,3.209,3.1191,3.0605,3.041,3.0293,2.9961,2.9687,2.9473,2.9238,2.9101,2.9004,2.8965,2.8859,2.8476,2.8377,2.8397,2.8437,2.8476,2.873,2.9043,2.918,2.8965,2.8926,2.918,2.916,2.9329,2.9251,2.8926,2.8828,2.8711,2.8437,2.8437,2.8524,2.8571,2.8365,2.8466,2.8397,2.9115,2.955,2.9997,3.0983,3.2123,3.3029,3.3826,3.4858,3.6133,3.7508,3.7733,3.7733,3.7878,3.7974,3.7974,3.7974,3.7974,3.7974,3.7974,3.7974,3.7974,3.7974,3.7974,3.8142,3.8334,3.8275,3.8275,3.8143,3.3405,3.3103,3.4585,3.5351,3.543,3.5781,3.6364,3.7079,3.7079,3.7502,3.8191,3.8171,3.844,3.8502,3.844,3.8833,3.8999,3.8812,3.904,3.9185,3.9247,3.8957,3.8792,3.8688,3.844,3.8295,3.8212,3.8191,3.8191,3.7984,3.8046,3.8481,3.8316,3.7984,3.8419,3.844,3.8191,3.7975,3.779,3.7616,3.7258,3.6729,3.5872,3.5251,3.4823,3.4349,3.3965,3.3524,3.3348,3.2598,3.1934,3.1133,3.0586,3.0449,3.041,3.0254,3.0215,2.9961,2.9668,2.9394,2.8939,2.8559,2.8466,2.8447,2.8532,2.8524,2.8564,2.8516,2.8769,2.8906,2.9153,2.9062,2.9082,2.929,2.9242,2.9243,2.8897,2.8593,2.8486,2.8379,2.8379,2.8359,2.8466,2.8385,2.8358,2.8457,2.8965,2.9682,3.0381,3.0998,3.1785,3.2984,3.3977,3.4774,3.5502,3.6461,3.7661,3.7685,3.7685,3.7853,3.7974,3.7974,3.7974,3.7974,3.7974,3.7974,3.7974,3.7974,3.7974,3.7974,3.807,3.8214,3.8262,3.8227,3.8467,3.3124,3.4293,3.4673,3.5039,3.5371,3.5488,3.6087,3.7059,3.7079,3.7502,3.8037,3.8191,3.8253,3.8316,3.8253,3.8419,3.8543,3.8419,3.8357,3.8419,3.8626,3.8481,3.8398,3.844,3.8295,3.8212,3.8191,3.8191,3.815,3.8067,3.8129,3.8378,3.8295,3.815,3.8233,3.8253,3.8274,3.8191,3.8171,3.7996,3.7719,3.7248,3.6881,3.6426,3.6143,3.5731,3.5111,3.4259,3.3763,3.2966,3.1956,3.1407,3.0976,3.0859,3.0859,3.0976,3.0937,3.0684,3.041,3.0117,2.9637,2.8668,2.8737,2.9258,2.9368,2.9659,2.9519,2.8967,2.9124,2.9065,2.9124,2.8878,2.875,2.9391,2.956,2.9682,2.9656,2.9,2.8593,2.8525,2.8545,2.876,2.9023,2.9035,2.9025,2.9434,3.0683,3.136,3.161,3.2093,3.2597,3.3735,3.4932,3.5561,3.6137,3.6635,3.7493,3.7565,3.7661,3.7853,3.7974,3.7974,3.7974,3.8118,3.8046,3.7998,3.7998,3.8094,3.7974,3.7974,3.7974,3.8046,3.8118,3.8286,3.8419]},{"header":{"parameterUnit":"m.s-1","parameterCategory":1,"la1":31.0,"la2":29.5877,"lo1":-88.7671,"lo2":-86.6584,"dy":0.0162,"dx":0.0185,"nx":115,"ny":88,"refTime":"2024-04-10T12:00:00:Z","depth":0,"parameterNumber":3,"parameterNumberName":"V-component_of_WINDS"},"data":[0.0,0.0,0.0,0.0,0.0,0.0,0.0,0.0,0.0,0.0,0.0,0.0,0.0,0.0,0.0,0.0,0.0,0.0,0.0,0.0,0.0,0.0,0.0,0.0,0.0,0.0,0.0,0.0,0.0,0.0,0.0,0.0,0.0,0.0,0.0,0.0,0.0,0.0,0.0,0.0,0.0,0.0,0.0,0.0,0.0,0.0,0.0,0.0,0.0,0.0,0.0,0.0,0.0,0.0,0.0,0.0,0.0,0.0,0.0,0.0,0.0,0.0,0.0,0.0,0.0,0.0,0.0,0.0,0.0,0.0,0.0,0.0,0.0,0.0,0.0,0.0,0.0,0.0,0.0,0.0,0.0,0.0,0.0,0.0,0.0,0.0,0.0,0.0,0.0,0.0,0.0,0.0,0.0,0.0,0.0,0.0,0.0,0.0,0.0,0.0,0.0,0.0,0.0,0.0,0.0,0.0,0.0,0.0,0.0,0.0,0.0,0.0,0.0,0.0,0.0,0.0,0.0,0.0,0.0,0.0,0.0,0.0,0.0,0.0,0.0,0.0,0.0,0.0,0.0,0.0,0.0,0.0,0.0,0.0,0.0,0.0,0.0,0.0,0.0,0.0,0.0,0.0,0.0,0.0,0.0,0.0,0.0,0.0,0.0,0.0,0.0,0.0,0.0,0.0,0.0,0.0,0.0,0.0,0.0,0.0,0.0,0.0,0.0,0.0,0.0,0.0,0.0,0.0,0.0,0.0,0.0,0.0,0.0,0.0,0.0,0.0,0.0,0.0,0.0,0.0,0.0,0.0,0.0,0.0,0.0,0.0,0.0,0.0,0.0,0.0,0.0,0.0,0.0,0.0,0.0,0.0,0.0,0.0,0.0,0.0,0.0,0.0,0.0,0.0,0.0,0.0,0.0,0.0,0.0,0.0,0.0,0.0,0.0,0.0,0.0,0.0,0.0,0.0,0.0,0.0,0.0,0.0,0.0,0.0,0.0,0.0,0.0,0.0,0.0,0.0,0.0,0.0,0.0,0.0,0.0,0.0,0.0,0.0,0.0,0.0,0.0,0.0,0.0,0.0,0.0,0.0,0.0,0.0,0.0,0.0,0.0,0.0,0.0,0.0,0.0,0.0,0.0,0.0,0.0,0.0,0.0,0.0,0.0,0.0,0.0,0.0,0.0,0.0,0.0,0.0,0.0,0.0,0.0,0.0,0.0,0.0,0.0,0.0,0.0,0.0,0.0,0.0,0.0,0.0,0.0,0.0,0.0,0.0,0.0,0.0,0.0,0.0,0.0,0.0,0.0,0.0,0.0,0.0,0.0,0.0,0.0,0.0,0.0,0.0,0.0,0.0,0.0,0.0,0.0,0.0,0.0,0.0,0.0,0.0,0.0,0.0,0.0,0.0,0.0,0.0,0.0,0.0,0.0,0.0,0.0,0.0,0.0,0.0,0.0,0.0,0.0,0.0,0.0,0.0,0.0,0.0,0.0,0.0,0.0,0.0,0.0,0.0,0.0,0.0,0.0,0.0,0.0,0.0,0.0,0.0,0.0,0.0,0.0,0.0,0.0,0.0,0.0,0.0,0.0,0.0,0.0,0.0,0.0,0.0,0.0,0.0,0.0,0.0,0.0,0.0,0.0,0.0,0.0,0.0,0.0,0.0,0.0,0.0,0.0,0.0,0.0,0.0,0.0,0.0,0.0,0.0,0.0,0.0,0.0,0.0,0.0,0.0,0.0,0.0,0.0,0.0,0.0,0.0,0.0,0.0,0.0,0.0,0.0,0.0,0.0,0.0,0.0,0.0,0.0,0.0,0.0,0.0,0.0,0.0,0.0,0.0,0.0,0.0,0.0,0.0,0.0,0.0,0.0,0.0,0.0,0.0,0.0,0.0,0.0,0.0,0.0,0.0,0.0,0.0,0.0,0.0,0.0,0.0,0.0,0.0,0.0,0.0,0.0,0.0,0.0,0.0,0.0,0.0,0.0,0.0,0.0,0.0,0.0,0.0,0.0,0.0,0.0,0.0,0.0,0.0,0.0,0.0,0.0,0.0,0.0,0.0,0.0,0.0,0.0,0.0,0.0,0.0,0.0,0.0,0.0,0.0,0.0,0.0,0.0,0.0,0.0,0.0,0.0,0.0,0.0,0.0,0.0,0.0,0.0,0.0,0.0,0.0,0.0,0.0,0.0,0.0,0.0,0.0,0.0,0.0,0.0,0.0,0.0,0.0,0.0,0.0,0.0,0.0,0.0,0.0,0.0,0.0,0.0,0.0,0.0,0.0,0.0,0.0,0.0,0.0,0.0,0.0,0.0,0.0,0.0,0.0,0.0,0.0,0.0,0.0,0.0,0.0,0.0,0.0,0.0,0.0,0.0,0.0,0.0,0.0,0.0,0.0,0.0,0.0,0.0,0.0,0.0,0.0,0.0,0.0,0.0,0.0,0.0,0.0,0.0,0.0,0.0,0.0,0.0,0.0,0.0,0.0,0.0,0.0,0.0,0.0,0.0,0.0,0.0,0.0,0.0,0.0,0.0,0.0,0.0,0.0,0.0,0.0,0.0,0.0,0.0,0.0,0.0,0.0,0.0,0.0,0.0,0.0,0.0,0.0,0.0,0.0,0.0,0.0,0.0,0.0,0.0,0.0,0.0,0.0,0.0,0.0,0.0,0.0,0.0,0.0,0.0,0.0,0.0,0.0,0.0,0.0,0.0,0.0,0.0,0.0,0.0,0.0,0.0,0.0,0.0,0.0,0.0,0.0,0.0,0.0,0.0,0.0,0.0,0.0,0.0,0.0,0.0,0.0,0.0,0.0,0.0,0.0,0.0,0.0,0.0,0.0,0.0,0.0,0.0,0.0,0.0,0.0,0.0,0.0,0.0,0.0,0.0,0.0,0.0,0.0,0.0,0.0,0.0,0.0,0.0,0.0,0.0,0.0,0.0,0.0,0.0,0.0,0.0,0.0,0.0,0.0,0.0,0.0,0.0,0.0,0.0,0.0,0.0,0.0,0.0,0.0,0.0,0.0,0.0,0.0,0.0,0.0,0.0,0.0,0.0,0.0,0.0,0.0,0.0,0.0,0.0,0.0,0.0,0.0,0.0,0.0,0.0,0.0,0.0,0.0,0.0,0.0,0.0,0.0,0.0,0.0,0.0,0.0,0.0,0.0,0.0,0.0,0.0,0.0,0.0,0.0,0.0,0.0,0.0,0.0,0.0,0.0,0.0,0.0,0.0,0.0,0.0,0.0,0.0,0.0,0.0,0.0,0.0,0.0,0.0,0.0,0.0,0.0,0.0,0.0,0.0,0.0,0.0,0.0,0.0,0.0,0.0,0.0,0.0,0.0,0.0,0.0,0.0,0.0,0.0,0.0,0.0,0.0,0.0,0.0,0.0,0.0,0.0,0.0,0.0,0.0,0.0,0.0,0.0,0.0,0.0,0.0,0.0,0.0,0.0,0.0,0.0,0.0,0.0,0.0,0.0,0.0,0.0,0.0,0.0,0.0,0.0,0.0,0.0,0.0,0.0,0.0,0.0,0.0,0.0,0.0,0.0,0.0,0.0,0.0,0.0,0.0,0.0,0.0,0.0,0.0,0.0,0.0,0.0,0.0,0.0,0.0,0.0,0.0,0.0,0.0,0.0,0.0,0.0,0.0,0.0,0.0,0.0,0.0,0.0,0.0,0.0,0.0,0.0,0.0,0.0,0.0,0.0,0.0,0.0,0.0,0.0,0.0,0.0,0.0,0.0,0.0,0.0,0.0,0.0,0.0,0.0,0.0,0.0,0.0,0.0,0.0,0.0,0.0,0.0,0.0,0.0,0.0,0.0,0.0,0.0,0.0,0.0,0.0,0.0,0.0,0.0,0.0,0.0,0.0,0.0,0.0,0.0,0.0,0.0,0.0,0.0,0.0,0.0,0.0,0.0,0.0,0.0,0.0,0.0,0.0,0.0,0.0,0.0,0.0,0.0,0.0,0.0,0.0,0.0,0.0,0.0,0.0,0.0,0.0,0.0,0.0,0.0,0.0,0.0,0.0,0.0,0.0,0.0,0.0,0.0,0.0,0.0,0.0,0.0,0.0,0.0,0.0,0.0,0.0,0.0,0.0,0.0,0.0,0.0,0.0,0.0,0.0,0.0,0.0,0.0,0.0,0.0,0.0,0.0,0.0,0.0,0.0,0.0,0.0,0.0,0.0,0.0,0.0,0.0,0.0,0.0,0.0,0.0,0.0,0.0,0.0,0.0,0.0,0.0,0.0,0.0,0.0,0.0,0.0,-2.5105,0.0,0.0,0.0,0.0,0.0,0.0,0.0,0.0,0.0,0.0,0.0,0.0,0.0,0.0,0.0,0.0,0.0,0.0,0.0,0.0,0.0,0.0,0.0,0.0,0.0,0.0,0.0,0.0,0.0,0.0,0.0,0.0,0.0,0.0,0.0,0.0,0.0,0.0,0.0,0.0,0.0,0.0,0.0,0.0,0.0,0.0,0.0,0.0,0.0,0.0,0.0,0.0,0.0,0.0,0.0,0.0,0.0,0.0,0.0,0.0,0.0,0.0,0.0,0.0,0.0,0.0,0.0,0.0,0.0,0.0,0.0,0.0,0.0,0.0,0.0,0.0,0.0,0.0,0.0,0.0,0.0,0.0,0.0,0.0,0.0,0.0,0.0,0.0,0.0,0.0,0.0,0.0,0.0,0.0,0.0,0.0,0.0,0.0,0.0,0.0,0.0,0.0,0.0,0.0,0.0,0.0,0.0,0.0,0.0,0.0,-2.4694,-2.5493,-2.3811,-2.3705,-2.5414,0.0,0.0,0.0,0.0,0.0,0.0,0.0,0.0,0.0,0.0,0.0,0.0,0.0,0.0,0.0,0.0,0.0,0.0,0.0,0.0,0.0,0.0,0.0,0.0,0.0,0.0,0.0,0.0,0.0,0.0,0.0,0.0,0.0,0.0,0.0,0.0,0.0,0.0,0.0,0.0,0.0,0.0,0.0,0.0,0.0,0.0,0.0,0.0,0.0,0.0,0.0,0.0,0.0,0.0,0.0,0.0,0.0,0.0,0.0,0.0,0.0,0.0,0.0,0.0,0.0,0.0,0.0,0.0,0.0,0.0,0.0,0.0,0.0,0.0,0.0,0.0,0.0,0.0,0.0,0.0,0.0,0.0,0.0,0.0,0.0,0.0,0.0,0.0,0.0,0.0,0.0,0.0,0.0,0.0,0.0,0.0,0.0,0.0,0.0,0.0,0.0,0.0,0.0,0.0,0.0,0.0,0.0,0.0,0.0,0.0,0.0,0.0,-2.4483,-2.4362,-2.6242,0.0,0.0,0.0,0.0,0.0,0.0,0.0,0.0,0.0,0.0,0.0,0.0,0.0,0.0,0.0,0.0,0.0,0.0,0.0,0.0,0.0,0.0,0.0,0.0,0.0,0.0,0.0,0.0,0.0,0.0,0.0,0.0,0.0,0.0,0.0,0.0,0.0,0.0,0.0,0.0,0.0,0.0,0.0,0.0,0.0,0.0,0.0,0.0,0.0,0.0,0.0,0.0,0.0,0.0,0.0,0.0,0.0,0.0,0.0,0.0,0.0,0.0,0.0,0.0,0.0,0.0,0.0,0.0,0.0,0.0,0.0,0.0,0.0,0.0,0.0,0.0,0.0,0.0,0.0,0.0,0.0,0.0,0.0,0.0,0.0,0.0,0.0,0.0,0.0,0.0,0.0,0.0,0.0,0.0,0.0,0.0,0.0,0.0,0.0,0.0,0.0,0.0,0.0,0.0,0.0,0.0,0.0,0.0,0.0,0.0,-2.6715,-2.9047,-2.88,0.0,-2.8908,0.0,0.0,0.0,0.0,0.0,0.0,0.0,0.0,0.0,0.0,0.0,0.0,0.0,0.0,0.0,0.0,0.0,0.0,0.0,0.0,0.0,0.0,0.0,0.0,0.0,0.0,0.0,0.0,0.0,0.0,0.0,0.0,0.0,0.0,0.0,0.0,0.0,0.0,0.0,0.0,0.0,0.0,0.0,0.0,0.0,0.0,0.0,0.0,0.0,0.0,0.0,0.0,0.0,0.0,0.0,0.0,0.0,0.0,0.0,0.0,0.0,0.0,0.0,0.0,0.0,0.0,0.0,0.0,0.0,0.0,0.0,0.0,0.0,0.0,0.0,0.0,0.0,0.0,0.0,0.0,0.0,0.0,0.0,0.0,0.0,0.0,0.0,0.0,0.0,0.0,0.0,0.0,0.0,0.0,0.0,0.0,0.0,0.0,0.0,0.0,0.0,0.0,0.0,0.0,0.0,0.0,0.0,0.0,0.0,0.0,-2.6656,-2.8603,-2.8628,-2.8191,0.0,0.0,0.0,0.0,0.0,0.0,0.0,0.0,0.0,0.0,0.0,0.0,0.0,0.0,0.0,0.0,0.0,0.0,0.0,0.0,0.0,0.0,0.0,0.0,0.0,0.0,0.0,0.0,0.0,0.0,0.0,0.0,0.0,0.0,0.0,0.0,0.0,0.0,0.0,0.0,0.0,0.0,0.0,0.0,0.0,0.0,0.0,0.0,0.0,0.0,0.0,0.0,0.0,0.0,0.0,0.0,0.0,0.0,0.0,0.0,0.0,0.0,0.0,0.0,0.0,0.0,0.0,0.0,0.0,0.0,0.0,0.0,0.0,0.0,0.0,0.0,0.0,0.0,0.0,0.0,0.0,0.0,0.0,0.0,0.0,0.0,0.0,0.0,0.0,0.0,0.0,0.0,0.0,0.0,0.0,0.0,0.0,0.0,0.0,0.0,0.0,0.0,0.0,0.0,0.0,0.0,0.0,0.0,0.0,0.0,-2.681,-2.7277,-2.9006,-2.8046,-2.7203,-2.6737,0.0,0.0,0.0,0.0,0.0,0.0,0.0,0.0,0.0,0.0,0.0,0.0,0.0,0.0,0.0,0.0,0.0,0.0,0.0,0.0,0.0,0.0,0.0,0.0,0.0,0.0,0.0,0.0,0.0,0.0,0.0,0.0,0.0,0.0,0.0,0.0,0.0,0.0,0.0,0.0,0.0,0.0,0.0,0.0,0.0,0.0,0.0,0.0,0.0,0.0,0.0,0.0,0.0,0.0,0.0,0.0,0.0,0.0,0.0,0.0,0.0,0.0,0.0,0.0,0.0,0.0,0.0,0.0,0.0,0.0,0.0,0.0,0.0,0.0,0.0,0.0,0.0,0.0,0.0,0.0,0.0,0.0,0.0,0.0,0.0,0.0,0.0,0.0,0.0,0.0,0.0,0.0,0.0,0.0,0.0,0.0,0.0,0.0,0.0,0.0,0.0,0.0,0.0,0.0,0.0,0.0,0.0,0.0,-3.1433,-2.9372,-2.935,-3.1496,-2.7915,-2.69,0.0,0.0,0.0,0.0,0.0,0.0,0.0,0.0,0.0,0.0,0.0,0.0,0.0,0.0,0.0,0.0,0.0,0.0,0.0,0.0,0.0,0.0,0.0,0.0,0.0,0.0,0.0,0.0,0.0,0.0,0.0,0.0,0.0,0.0,0.0,0.0,0.0,0.0,0.0,0.0,0.0,0.0,0.0,0.0,0.0,0.0,0.0,0.0,0.0,0.0,0.0,0.0,0.0,0.0,0.0,0.0,0.0,0.0,0.0,0.0,0.0,0.0,0.0,0.0,0.0,0.0,0.0,0.0,0.0,0.0,0.0,0.0,0.0,0.0,0.0,0.0,0.0,0.0,0.0,0.0,0.0,0.0,0.0,0.0,0.0,0.0,0.0,0.0,0.0,0.0,0.0,0.0,0.0,0.0,0.0,0.0,0.0,0.0,0.0,0.0,0.0,0.0,0.0,0.0,0.0,0.0,0.0,0.0,0.0,-2.785,-2.8071,-2.8383,-2.875,-2.7811,-2.7498,0.0,0.0,0.0,0.0,0.0,0.0,0.0,0.0,0.0,0.0,0.0,0.0,0.0,0.0,0.0,0.0,0.0,0.0,0.0,0.0,0.0,0.0,0.0,0.0,0.0,0.0,0.0,0.0,0.0,0.0,0.0,0.0,0.0,0.0,0.0,0.0,0.0,0.0,0.0,0.0,0.0,0.0,0.0,0.0,0.0,0.0,0.0,0.0,0.0,0.0,0.0,0.0,0.0,0.0,0.0,0.0,0.0,0.0,0.0,0.0,0.0,0.0,0.0,0.0,0.0,0.0,0.0,0.0,0.0,0.0,0.0,0.0,0.0,0.0,0.0,0.0,0.0,0.0,0.0,0.0,0.0,0.0,0.0,0.0,0.0,0.0,0.0,0.0,0.0,0.0,0.0,0.0,0.0,0.0,0.0,0.0,0.0,0.0,0.0,0.0,0.0,0.0,0.0,0.0,0.0,0.0,0.0,0.0,0.0,-2.6913,0.0,-2.8632,-2.7876,-2.7811,-2.7421,0.0,0.0,0.0,0.0,0.0,0.0,0.0,0.0,0.0,0.0,0.0,0.0,0.0,0.0,0.0,0.0,0.0,0.0,0.0,0.0,0.0,0.0,0.0,0.0,0.0,0.0,0.0,0.0,0.0,0.0,0.0,0.0,0.0,0.0,0.0,0.0,0.0,0.0,0.0,0.0,0.0,0.0,0.0,0.0,0.0,0.0,0.0,0.0,0.0,0.0,0.0,0.0,0.0,0.0,0.0,0.0,0.0,0.0,0.0,0.0,0.0,0.0,0.0,0.0,0.0,0.0,0.0,0.0,0.0,0.0,0.0,0.0,0.0,0.0,0.0,0.0,0.0,0.0,0.0,0.0,0.0,0.0,0.0,0.0,0.0,0.0,0.0,0.0,0.0,0.0,0.0,0.0,0.0,0.0,0.0,0.0,0.0,0.0,0.0,0.0,0.0,0.0,0.0,0.0,0.0,0.0,0.0,0.0,-2.6937,-2.9398,-3.0218,-3.0257,-2.9591,-2.7915,-2.6626,0.0,0.0,0.0,0.0,0.0,0.0,0.0,0.0,0.0,0.0,0.0,0.0,0.0,0.0,0.0,0.0,0.0,0.0,0.0,0.0,0.0,0.0,0.0,0.0,0.0,0.0,0.0,0.0,0.0,0.0,0.0,0.0,0.0,0.0,0.0,0.0,0.0,0.0,0.0,0.0,0.0,0.0,0.0,0.0,0.0,0.0,0.0,0.0,0.0,0.0,0.0,0.0,0.0,0.0,0.0,0.0,0.0,0.0,0.0,0.0,0.0,0.0,0.0,0.0,0.0,0.0,0.0,0.0,0.0,0.0,0.0,0.0,0.0,0.0,0.0,0.0,0.0,0.0,0.0,0.0,0.0,0.0,0.0,0.0,0.0,0.0,0.0,0.0,0.0,0.0,0.0,0.0,0.0,0.0,0.0,0.0,0.0,0.0,0.0,0.0,0.0,0.0,0.0,0.0,0.0,0.0,0.0,0.0,0.0,-2.6937,-2.8342,-2.9786,-3.1114,-2.7913,-2.7366,0.0,0.0,0.0,0.0,0.0,0.0,0.0,0.0,0.0,0.0,0.0,0.0,0.0,0.0,0.0,0.0,0.0,0.0,0.0,0.0,0.0,0.0,0.0,0.0,0.0,0.0,0.0,0.0,0.0,0.0,0.0,0.0,0.0,0.0,0.0,0.0,0.0,0.0,0.0,0.0,0.0,0.0,0.0,0.0,0.0,0.0,0.0,0.0,0.0,0.0,0.0,0.0,0.0,0.0,0.0,0.0,0.0,0.0,0.0,0.0,0.0,0.0,0.0,0.0,0.0,0.0,0.0,0.0,0.0,0.0,0.0,0.0,0.0,0.0,0.0,0.0,0.0,0.0,0.0,0.0,0.0,0.0,0.0,0.0,0.0,0.0,0.0,0.0,0.0,0.0,0.0,0.0,0.0,0.0,0.0,0.0,0.0,0.0,0.0,0.0,0.0,0.0,0.0,0.0,0.0,0.0,0.0,0.0,0.0,-2.8186,-2.9474,-3.0801,-3.209,-2.9162,-2.842,-3.0062,0.0,0.0,0.0,0.0,0.0,0.0,0.0,0.0,0.0,0.0,0.0,0.0,0.0,0.0,0.0,0.0,0.0,0.0,0.0,0.0,0.0,0.0,0.0,0.0,0.0,0.0,0.0,0.0,0.0,0.0,0.0,0.0,0.0,0.0,0.0,0.0,0.0,0.0,0.0,0.0,0.0,0.0,0.0,0.0,0.0,0.0,0.0,0.0,0.0,0.0,0.0,0.0,0.0,0.0,0.0,0.0,0.0,0.0,0.0,0.0,0.0,0.0,0.0,0.0,0.0,0.0,0.0,0.0,0.0,0.0,0.0,0.0,0.0,0.0,0.0,0.0,0.0,0.0,0.0,0.0,0.0,0.0,0.0,0.0,0.0,0.0,0.0,0.0,0.0,0.0,0.0,0.0,0.0,0.0,0.0,0.0,0.0,0.0,0.0,0.0,0.0,0.0,0.0,0.0,0.0,0.0,0.0,0.0,-3.2324,-3.3375,-3.3571,-3.2714,-3.1465,-2.9747,0.0,0.0,0.0,0.0,0.0,0.0,0.0,0.0,0.0,0.0,0.0,0.0,0.0,0.0,0.0,0.0,0.0,0.0,0.0,0.0,0.0,0.0,0.0,0.0,0.0,0.0,0.0,0.0,0.0,0.0,0.0,0.0,0.0,0.0,0.0,0.0,0.0,0.0,0.0,0.0,0.0,0.0,0.0,0.0,0.0,0.0,0.0,0.0,0.0,0.0,0.0,0.0,0.0,0.0,0.0,0.0,0.0,0.0,0.0,0.0,0.0,0.0,0.0,0.0,0.0,0.0,0.0,0.0,0.0,0.0,0.0,0.0,0.0,0.0,0.0,0.0,0.0,0.0,0.0,0.0,0.0,0.0,0.0,0.0,0.0,0.0,0.0,0.0,0.0,0.0,0.0,0.0,0.0,0.0,0.0,0.0,0.0,0.0,0.0,0.0,0.0,0.0,0.0,0.0,0.0,0.0,0.0,0.0,0.0,-3.5015,-3.88,-4.0203,-3.8687,-3.3612,-3.1387,0.0,0.0,0.0,0.0,0.0,0.0,0.0,0.0,0.0,0.0,0.0,0.0,0.0,0.0,0.0,0.0,0.0,0.0,0.0,0.0,0.0,0.0,0.0,0.0,0.0,0.0,0.0,0.0,0.0,0.0,0.0,0.0,0.0,0.0,0.0,0.0,0.0,0.0,0.0,0.0,0.0,0.0,0.0,0.0,0.0,0.0,0.0,0.0,0.0,0.0,0.0,0.0,0.0,0.0,0.0,0.0,0.0,0.0,0.0,0.0,0.0,0.0,0.0,0.0,0.0,0.0,0.0,0.0,0.0,0.0,0.0,0.0,0.0,0.0,0.0,0.0,0.0,0.0,0.0,0.0,0.0,0.0,0.0,0.0,0.0,0.0,0.0,0.0,0.0,0.0,0.0,0.0,0.0,0.0,0.0,0.0,0.0,0.0,0.0,0.0,0.0,0.0,0.0,0.0,0.0,0.0,0.0,0.0,-3.5155,-3.8128,-4.3089,-4.5474,-4.4894,-3.953,-3.595,0.0,0.0,0.0,0.0,0.0,0.0,0.0,0.0,0.0,0.0,0.0,0.0,0.0,0.0,0.0,0.0,0.0,0.0,0.0,0.0,0.0,0.0,0.0,0.0,0.0,0.0,0.0,0.0,0.0,0.0,0.0,0.0,0.0,0.0,0.0,0.0,0.0,0.0,0.0,0.0,0.0,0.0,0.0,0.0,0.0,0.0,0.0,0.0,0.0,0.0,0.0,0.0,0.0,0.0,0.0,0.0,0.0,0.0,0.0,0.0,0.0,0.0,0.0,0.0,0.0,0.0,0.0,0.0,0.0,0.0,0.0,0.0,0.0,0.0,0.0,0.0,0.0,0.0,0.0,0.0,0.0,0.0,0.0,0.0,0.0,0.0,0.0,0.0,0.0,0.0,0.0,0.0,0.0,0.0,0.0,0.0,0.0,0.0,0.0,0.0,0.0,0.0,0.0,0.0,0.0,0.0,0.0,0.0,-3.7659,-4.1306,-4.6365,-4.9412,-5.0137,-4.6445,-4.1362,0.0,0.0,0.0,0.0,0.0,0.0,0.0,0.0,0.0,0.0,0.0,0.0,0.0,0.0,0.0,0.0,0.0,0.0,0.0,0.0,0.0,0.0,0.0,0.0,0.0,0.0,0.0,0.0,0.0,0.0,0.0,0.0,0.0,0.0,0.0,0.0,0.0,0.0,0.0,0.0,0.0,0.0,0.0,0.0,0.0,0.0,0.0,0.0,0.0,0.0,0.0,0.0,0.0,0.0,0.0,0.0,0.0,0.0,0.0,0.0,0.0,0.0,0.0,0.0,0.0,0.0,0.0,0.0,0.0,0.0,0.0,0.0,0.0,0.0,0.0,0.0,0.0,0.0,0.0,0.0,0.0,0.0,0.0,0.0,0.0,0.0,0.0,0.0,0.0,0.0,0.0,0.0,0.0,0.0,0.0,0.0,0.0,0.0,0.0,0.0,0.0,0.0,0.0,0.0,0.0,0.0,0.0,0.0,-3.8227,-4.2981,-4.7872,-5.083,-5.1709,-4.5881,-4.1108,0.0,0.0,0.0,0.0,0.0,0.0,0.0,0.0,0.0,0.0,0.0,0.0,0.0,0.0,0.0,0.0,0.0,0.0,0.0,0.0,0.0,0.0,0.0,0.0,0.0,0.0,0.0,0.0,0.0,0.0,0.0,0.0,0.0,0.0,0.0,0.0,0.0,0.0,0.0,0.0,0.0,0.0,0.0,0.0,0.0,0.0,0.0,0.0,-2.5576,0.0,0.0,0.0,0.0,0.0,0.0,0.0,0.0,0.0,0.0,0.0,0.0,0.0,0.0,0.0,0.0,0.0,0.0,0.0,0.0,0.0,0.0,0.0,0.0,0.0,0.0,0.0,0.0,0.0,0.0,0.0,0.0,0.0,0.0,0.0,0.0,0.0,0.0,0.0,0.0,0.0,0.0,0.0,0.0,0.0,0.0,0.0,0.0,0.0,0.0,0.0,0.0,0.0,0.0,0.0,0.0,0.0,0.0,0.0,-3.8953,-4.3955,-4.7777,-5.0311,-5.1358,-4.7275,-4.3203,0.0,0.0,0.0,0.0,0.0,0.0,0.0,0.0,0.0,0.0,0.0,0.0,0.0,0.0,0.0,0.0,0.0,0.0,0.0,0.0,0.0,0.0,0.0,0.0,0.0,0.0,0.0,0.0,0.0,0.0,0.0,0.0,0.0,0.0,0.0,0.0,0.0,0.0,0.0,0.0,0.0,0.0,0.0,0.0,0.0,0.0,0.0,0.0,0.0,0.0,0.0,0.0,0.0,0.0,0.0,0.0,0.0,0.0,0.0,0.0,0.0,0.0,0.0,0.0,0.0,0.0,0.0,0.0,0.0,0.0,0.0,0.0,0.0,0.0,0.0,0.0,0.0,0.0,0.0,0.0,0.0,0.0,0.0,0.0,0.0,0.0,0.0,0.0,0.0,0.0,0.0,0.0,0.0,0.0,0.0,0.0,0.0,0.0,0.0,0.0,0.0,0.0,0.0,0.0,0.0,0.0,0.0,-3.5896,-3.9607,-4.4971,-4.7338,-4.9291,-5.0956,-4.8993,-4.547,-4.0398,0.0,0.0,0.0,0.0,0.0,0.0,0.0,0.0,0.0,0.0,0.0,0.0,0.0,0.0,0.0,0.0,0.0,0.0,0.0,0.0,0.0,0.0,0.0,0.0,0.0,0.0,0.0,0.0,0.0,0.0,0.0,0.0,0.0,0.0,0.0,0.0,0.0,0.0,-2.4849,-2.609,0.0,0.0,0.0,0.0,0.0,0.0,0.0,0.0,-2.5931,0.0,0.0,0.0,0.0,0.0,0.0,0.0,0.0,0.0,0.0,0.0,0.0,0.0,0.0,0.0,0.0,0.0,0.0,0.0,0.0,0.0,0.0,0.0,0.0,0.0,0.0,0.0,0.0,0.0,0.0,0.0,0.0,0.0,0.0,0.0,0.0,0.0,0.0,0.0,0.0,0.0,0.0,0.0,0.0,0.0,0.0,0.0,0.0,0.0,0.0,0.0,0.0,0.0,0.0,0.0,0.0,-3.6362,-3.6168,-3.981,-4.7533,-4.8091,-4.9329,-5.1472,-4.8488,-4.4383,-3.9488,0.0,0.0,0.0,0.0,0.0,0.0,0.0,0.0,0.0,0.0,0.0,0.0,0.0,0.0,0.0,0.0,0.0,0.0,0.0,0.0,0.0,0.0,0.0,0.0,0.0,0.0,0.0,0.0,0.0,0.0,0.0,0.0,0.0,0.0,0.0,0.0,0.0,0.0,0.0,-3.0222,-3.1194,0.0,0.0,0.0,0.0,0.0,0.0,0.0,0.0,-2.6444,0.0,0.0,0.0,0.0,0.0,0.0,0.0,0.0,0.0,0.0,0.0,0.0,0.0,0.0,0.0,0.0,0.0,0.0,0.0,0.0,0.0,0.0,0.0,0.0,0.0,0.0,0.0,0.0,0.0,0.0,0.0,0.0,0.0,0.0,0.0,0.0,0.0,0.0,0.0,0.0,0.0,0.0,0.0,0.0,0.0,0.0,0.0,0.0,0.0,0.0,0.0,0.0,0.0,0.0,0.0,-3.609,-3.6823,-4.0277,-4.6699,-4.6882,-4.7741,-4.9559,-4.5931,-4.2374,0.0,0.0,0.0,0.0,0.0,0.0,0.0,0.0,0.0,0.0,0.0,0.0,0.0,0.0,0.0,0.0,0.0,0.0,0.0,0.0,0.0,0.0,0.0,0.0,0.0,0.0,0.0,0.0,0.0,0.0,0.0,0.0,0.0,0.0,0.0,0.0,0.0,0.0,0.0,0.0,-3.0762,-3.1457,-2.9823,0.0,0.0,0.0,0.0,0.0,0.0,-2.6864,-2.6587,0.0,0.0,0.0,0.0,0.0,0.0,0.0,0.0,0.0,0.0,0.0,0.0,0.0,0.0,0.0,0.0,0.0,0.0,0.0,0.0,0.0,0.0,0.0,0.0,0.0,0.0,0.0,0.0,0.0,0.0,0.0,0.0,0.0,0.0,0.0,0.0,0.0,0.0,0.0,0.0,0.0,0.0,0.0,0.0,0.0,0.0,0.0,0.0,0.0,0.0,0.0,0.0,0.0,0.0,0.0,-3.5366,-3.7102,-4.041,-4.5379,-4.5547,-4.6129,-4.7417,-4.3787,-4.0654,0.0,0.0,0.0,0.0,0.0,0.0,0.0,0.0,0.0,0.0,0.0,0.0,0.0,0.0,0.0,0.0,0.0,0.0,0.0,0.0,0.0,0.0,0.0,0.0,0.0,0.0,0.0,0.0,0.0,0.0,0.0,0.0,0.0,0.0,0.0,0.0,0.0,0.0,0.0,0.0,0.0,-3.173,-3.0721,-3.127,0.0,0.0,0.0,0.0,-2.7498,-2.813,0.0,0.0,0.0,0.0,0.0,0.0,0.0,0.0,0.0,0.0,0.0,0.0,0.0,0.0,0.0,0.0,0.0,0.0,0.0,0.0,0.0,0.0,0.0,0.0,0.0,0.0,0.0,0.0,0.0,0.0,0.0,0.0,0.0,0.0,0.0,0.0,0.0,0.0,0.0,0.0,0.0,0.0,0.0,0.0,0.0,0.0,0.0,0.0,0.0,0.0,0.0,0.0,0.0,0.0,0.0,0.0,-3.4381,-3.6161,-3.9721,-4.5204,-4.5494,-4.586,-4.6577,-4.4055,-4.0425,0.0,0.0,0.0,0.0,0.0,0.0,0.0,0.0,0.0,0.0,0.0,0.0,0.0,0.0,0.0,0.0,0.0,0.0,0.0,0.0,0.0,0.0,0.0,0.0,0.0,0.0,0.0,0.0,0.0,0.0,0.0,0.0,0.0,0.0,0.0,0.0,0.0,0.0,0.0,0.0,0.0,-3.4861,-3.0372,-3.2988,-3.3679,0.0,0.0,-3.1882,-3.3199,-3.4115,0.0,0.0,0.0,0.0,0.0,0.0,0.0,0.0,0.0,0.0,0.0,0.0,0.0,0.0,0.0,0.0,0.0,0.0,0.0,0.0,0.0,0.0,0.0,0.0,0.0,0.0,0.0,0.0,0.0,0.0,0.0,0.0,0.0,0.0,0.0,0.0,0.0,0.0,0.0,0.0,0.0,0.0,0.0,0.0,0.0,0.0,0.0,0.0,0.0,0.0,0.0,0.0,0.0,0.0,0.0,-2.9921,-3.493,-3.6614,-4.0053,-4.5245,-4.494,-4.5053,-4.5774,-4.1074,-3.7674,0.0,0.0,0.0,0.0,0.0,0.0,0.0,0.0,0.0,0.0,0.0,0.0,0.0,0.0,0.0,0.0,0.0,0.0,0.0,0.0,0.0,0.0,0.0,0.0,0.0,0.0,0.0,0.0,0.0,0.0,0.0,0.0,0.0,0.0,0.0,0.0,0.0,0.0,0.0,0.0,0.0,0.0,-3.0723,-3.3144,0.0,0.0,0.0,-3.3068,-3.4193,0.0,0.0,0.0,0.0,0.0,0.0,0.0,0.0,0.0,0.0,0.0,0.0,0.0,0.0,0.0,0.0,0.0,0.0,0.0,0.0,0.0,0.0,0.0,0.0,0.0,0.0,0.0,0.0,0.0,0.0,0.0,0.0,0.0,0.0,0.0,0.0,0.0,0.0,0.0,0.0,0.0,0.0,0.0,0.0,0.0,0.0,0.0,0.0,0.0,0.0,0.0,0.0,0.0,0.0,0.0,0.0,0.0,-3.5071,-3.6964,-4.0109,-4.4614,-4.4306,-4.4208,-4.4551,-3.9126,0.0,0.0,0.0,0.0,0.0,0.0,0.0,0.0,0.0,0.0,0.0,0.0,0.0,0.0,0.0,0.0,0.0,0.0,0.0,0.0,0.0,0.0,0.0,0.0,0.0,0.0,0.0,-2.5453,0.0,0.0,0.0,0.0,0.0,0.0,0.0,0.0,0.0,0.0,0.0,0.0,0.0,0.0,-3.3336,-3.1373,-3.3871,-3.5451,0.0,0.0,-3.4836,-3.5222,-3.5438,-3.4372,0.0,0.0,0.0,0.0,0.0,0.0,0.0,0.0,0.0,0.0,0.0,0.0,0.0,0.0,0.0,0.0,0.0,0.0,0.0,0.0,0.0,0.0,0.0,0.0,0.0,0.0,0.0,0.0,0.0,0.0,0.0,0.0,0.0,0.0,0.0,0.0,0.0,0.0,0.0,0.0,0.0,0.0,0.0,0.0,0.0,0.0,0.0,0.0,0.0,0.0,0.0,0.0,0.0,0.0,0.0,-3.3938,-3.6485,-3.9411,-4.2852,-4.3634,-4.3673,-4.2947,-4.0234,-3.7636,0.0,0.0,0.0,0.0,0.0,0.0,0.0,0.0,0.0,0.0,0.0,0.0,0.0,0.0,0.0,0.0,0.0,0.0,0.0,0.0,0.0,0.0,0.0,0.0,0.0,0.0,0.0,0.0,0.0,0.0,0.0,0.0,0.0,0.0,0.0,0.0,0.0,0.0,0.0,0.0,0.0,-3.4889,-3.2299,-3.6195,-3.8415,0.0,0.0,-3.8711,-3.7896,-4.0369,-4.0485,-3.4802,0.0,0.0,0.0,0.0,0.0,0.0,0.0,0.0,0.0,0.0,0.0,0.0,0.0,0.0,0.0,0.0,0.0,0.0,0.0,0.0,0.0,0.0,0.0,0.0,0.0,0.0,0.0,0.0,0.0,0.0,0.0,0.0,0.0,0.0,0.0,0.0,0.0,0.0,0.0,0.0,0.0,0.0,0.0,0.0,0.0,0.0,0.0,0.0,0.0,0.0,0.0,0.0,0.0,-3.0693,-3.4514,-3.6115,-3.8785,-4.2463,-4.2525,-4.2068,-4.1266,-3.8285,-3.5954,0.0,0.0,0.0,0.0,0.0,0.0,0.0,0.0,0.0,0.0,0.0,0.0,0.0,0.0,0.0,0.0,0.0,0.0,0.0,0.0,0.0,0.0,0.0,0.0,0.0,0.0,0.0,0.0,-2.5361,-2.5857,-2.6367,0.0,0.0,0.0,0.0,0.0,0.0,0.0,0.0,0.0,0.0,-3.4542,-3.3017,-3.6222,0.0,0.0,-3.8762,-3.965,-4.0254,-4.0546,-3.9277,-3.4891,-3.3891,0.0,0.0,0.0,0.0,0.0,0.0,0.0,0.0,0.0,0.0,0.0,0.0,0.0,0.0,0.0,0.0,0.0,0.0,0.0,0.0,0.0,0.0,0.0,0.0,0.0,0.0,0.0,0.0,0.0,0.0,0.0,0.0,0.0,0.0,0.0,0.0,0.0,0.0,0.0,0.0,0.0,0.0,0.0,0.0,0.0,0.0,0.0,0.0,0.0,0.0,0.0,0.0,-3.0983,-3.4961,-3.5892,-3.829,-4.2197,-4.2028,-4.1609,-4.0998,-3.798,-3.5954,0.0,0.0,0.0,0.0,0.0,0.0,0.0,0.0,0.0,0.0,0.0,0.0,0.0,0.0,0.0,0.0,0.0,0.0,0.0,0.0,0.0,0.0,0.0,0.0,0.0,0.0,0.0,0.0,-2.6052,-2.6615,-2.7199,0.0,0.0,0.0,0.0,0.0,0.0,0.0,0.0,0.0,0.0,-3.4641,-3.4078,-3.6832,-3.9038,-3.9341,-4.0009,-4.0636,-4.0985,-4.0469,-3.8815,-3.5161,0.0,0.0,0.0,0.0,0.0,0.0,0.0,0.0,0.0,0.0,0.0,0.0,0.0,0.0,0.0,0.0,0.0,0.0,0.0,0.0,0.0,0.0,0.0,0.0,0.0,0.0,0.0,0.0,0.0,0.0,0.0,0.0,0.0,0.0,0.0,0.0,0.0,0.0,0.0,0.0,0.0,0.0,0.0,0.0,0.0,0.0,0.0,0.0,0.0,0.0,0.0,0.0,0.0,-3.154,-3.4964,-3.5912,-3.8042,-4.1418,-4.2335,-4.2717,-4.2603,-4.0234,-3.8476,-3.7521,0.0,0.0,0.0,0.0,0.0,0.0,0.0,0.0,0.0,0.0,0.0,0.0,0.0,0.0,0.0,0.0,0.0,0.0,0.0,0.0,0.0,0.0,0.0,0.0,0.0,0.0,-2.8103,-2.8154,-2.8126,0.0,0.0,0.0,0.0,0.0,0.0,0.0,0.0,0.0,0.0,-3.3557,-3.5629,-3.5549,-3.845,-4.023,-3.9422,-4.1331,-4.2124,-3.9738,-4.0662,-4.0315,0.0,0.0,0.0,0.0,0.0,0.0,0.0,0.0,0.0,0.0,0.0,0.0,0.0,0.0,0.0,0.0,0.0,0.0,0.0,0.0,0.0,0.0,0.0,0.0,0.0,0.0,0.0,0.0,-3.358,0.0,0.0,0.0,0.0,0.0,0.0,0.0,0.0,0.0,0.0,0.0,-3.5809,-3.6232,0.0,0.0,0.0,0.0,0.0,0.0,0.0,0.0,0.0,0.0,0.0,0.0,-3.2748,-3.5426,-3.5514,-3.7091,-4.0321,-4.1416,-4.1686,-4.1151,-3.9737,-3.7735,-3.5057,0.0,0.0,0.0,0.0,0.0,0.0,0.0,0.0,0.0,0.0,0.0,0.0,0.0,0.0,0.0,0.0,0.0,0.0,0.0,0.0,0.0,0.0,0.0,0.0,0.0,-2.7997,0.0,0.0,0.0,0.0,0.0,0.0,0.0,0.0,0.0,0.0,0.0,-3.1248,-3.2905,-3.5039,-3.6238,-3.567,-3.7977,-3.9658,0.0,0.0,0.0,0.0,0.0,0.0,0.0,0.0,0.0,0.0,0.0,0.0,0.0,0.0,-3.9879,-3.5148,-3.3114,-3.2304,-3.2871,0.0,0.0,0.0,0.0,0.0,0.0,0.0,0.0,0.0,0.0,0.0,0.0,0.0,0.0,0.0,0.0,-3.5216,0.0,0.0,0.0,0.0,0.0,0.0,0.0,0.0,-3.6205,-3.6875,-3.794,-3.8094,-3.8505,0.0,-3.8773,-3.7135,0.0,0.0,0.0,0.0,0.0,0.0,0.0,0.0,-3.3498,-3.6255,-3.5817,-3.7091,-4.0342,-4.1436,-4.1724,-4.1189,-3.9414,-3.711,-3.4312,-3.2718,-3.1528,0.0,0.0,0.0,0.0,0.0,0.0,0.0,0.0,0.0,0.0,0.0,0.0,0.0,0.0,0.0,0.0,0.0,0.0,0.0,0.0,0.0,0.0,0.0,-2.924,0.0,0.0,0.0,0.0,0.0,0.0,0.0,0.0,0.0,-3.1926,-3.16,-3.2377,-3.4865,-3.5611,-3.6111,-3.6807,0.0,0.0,0.0,0.0,0.0,0.0,0.0,-4.07,-3.8392,-3.923,-3.9677,-3.827,-4.0092,-4.1953,-4.2424,0.0,0.0,-3.8493,-3.6546,-3.5815,-3.6699,-3.5892,-3.5443,-3.6587,-3.7445,-3.7916,0.0,0.0,0.0,0.0,0.0,0.0,0.0,0.0,-3.7246,-3.8108,0.0,-3.7729,0.0,0.0,0.0,0.0,0.0,0.0,0.0,0.0,-3.8113,-3.8751,-3.955,-3.9657,-3.969,-3.9896,-4.1316,-4.0836,-3.8683,-3.6062,0.0,0.0,0.0,0.0,0.0,0.0,-3.3956,-3.7313,-3.6825,-3.808,-4.1323,-4.2335,-4.2756,-4.2641,-3.9297,-3.6842,-3.5479,-3.3175,-3.1496,-3.0769,-3.1496,0.0,0.0,0.0,0.0,0.0,0.0,0.0,0.0,0.0,0.0,0.0,0.0,0.0,0.0,0.0,0.0,0.0,0.0,0.0,0.0,-3.0823,0.0,0.0,0.0,0.0,0.0,0.0,0.0,0.0,0.0,0.0,-3.228,-3.2666,-3.4042,-3.6535,0.0,0.0,0.0,0.0,-3.9277,-3.9354,-4.2739,-4.4162,-4.1046,-4.3239,-4.4239,-4.1008,0.0,0.0,-4.0837,-4.1404,-4.2019,-4.1705,-4.1915,-4.2202,-4.3918,-4.1899,-4.0515,-4.1283,-3.9,-3.757,-3.8883,-3.9008,-3.8777,-4.387,0.0,0.0,0.0,0.0,-4.1489,-4.2162,-4.268,-4.2459,-4.2426,-4.2359,-4.0519,0.0,0.0,0.0,0.0,0.0,0.0,-3.8395,-3.9886,-4.0591,-4.1542,-4.2774,-4.3317,-4.3683,-4.3796,-4.3178,-4.2229,-4.1086,-3.9252,-3.772,-3.647,0.0,0.0,0.0,0.0,-3.5826,-3.839,-3.8139,-3.8921,-4.1041,-4.2214,-4.2488,-4.1877,-3.938,-3.7868,-3.7478,-3.5254,-3.4218,-3.4649,-3.5018,0.0,0.0,0.0,0.0,0.0,0.0,0.0,0.0,0.0,0.0,0.0,0.0,0.0,0.0,0.0,0.0,0.0,0.0,0.0,-3.074,-3.1853,-3.2506,0.0,0.0,0.0,0.0,0.0,0.0,0.0,0.0,0.0,-3.5368,-3.5469,-3.6562,0.0,0.0,-3.7686,-3.9854,-3.9123,-3.8777,-3.9969,0.0,0.0,0.0,-4.2239,-4.2547,-4.1585,-4.2624,-4.3893,-4.4893,-4.5278,-4.5552,-4.5778,-4.5889,-4.5867,-4.5376,-4.2514,-4.0439,-4.0895,-4.038,-4.012,-4.1195,-4.2253,-4.2967,-4.9227,-4.5573,-4.4783,-4.4492,-4.4602,-4.5186,-4.5883,-4.6544,-4.5846,-4.581,-4.614,-4.3468,-4.2408,-4.2516,-4.0726,0.0,0.0,0.0,-4.0394,-4.2266,-4.2704,-4.365,-4.5019,-4.5562,-4.582,-4.5903,-4.5035,-4.4381,-4.4053,-4.2512,-4.136,-4.048,0.0,0.0,-3.8079,-3.7273,-3.7931,-3.9993,-3.9602,-3.9976,-4.1255,-4.1722,-4.151,-4.0549,-3.8949,-3.7941,-3.7515,-3.6242,-3.5752,-3.6266,-3.6399,-3.626,0.0,0.0,0.0,0.0,0.0,0.0,0.0,0.0,0.0,0.0,0.0,-2.7421,-2.7279,0.0,0.0,0.0,-3.018,-3.1087,-3.2821,-3.3463,0.0,0.0,0.0,0.0,0.0,0.0,0.0,-3.6489,-3.7682,-3.8542,-3.8654,-3.8936,-3.9427,-4.0369,-3.9051,-3.875,-4.0761,0.0,-3.9123,-4.0777,-4.1162,-4.1623,-4.2624,-4.3286,-4.3537,-4.3069,-4.379,-4.4786,-4.5839,-4.6087,-4.6156,-4.6335,-4.6377,-4.6152,-4.5413,-4.3122,-4.1782,-4.2759,-4.2442,-4.2405,-4.3538,-4.4489,-4.4941,-5.3422,-5.1756,-4.9561,-4.8566,-4.8364,-4.8352,-4.8948,-4.9698,-4.8068,-4.8652,-5.0415,-4.6567,-4.5542,-4.6637,-4.3761,0.0,0.0,-4.2662,-4.3468,-4.4783,-4.4671,-4.5391,-4.6757,-4.6721,-4.6799,-4.6993,-4.6921,-4.6968,-4.6978,-4.5516,-4.4784,-4.4709,-4.1038,-3.9522,-4.0117,-3.9423,-3.9946,-4.1716,-4.1108,-4.114,-4.1867,-4.1116,-4.0214,-3.9192,-3.8329,-3.7488,-3.6581,-3.6442,-3.6413,-3.6486,-3.6486,-3.6486,-3.6376,0.0,0.0,0.0,0.0,0.0,0.0,0.0,0.0,0.0,0.0,0.0,0.0,0.0,0.0,0.0,-3.2254,0.0,-3.5005,-3.5343,0.0,0.0,0.0,-3.7865,-3.7944,-3.8439,-3.9195,-4.031,0.0,0.0,-4.1701,0.0,-4.2156,-4.0822,-3.9287,-3.9138,-4.1613,-4.0569,-4.0085,-4.17,-4.3239,-4.4239,-4.4282,-4.5246,-4.5642,-4.4768,-4.481,-4.4825,-4.4876,-4.49,-4.4739,-4.4568,-4.4448,-4.4365,-4.4085,-4.3906,-4.4393,-4.5481,-4.4575,-4.3983,-4.5268,-4.5205,-4.4965,-5.9072,-5.755,-5.6319,-5.3842,-5.0671,-5.1253,-5.2025,-5.285,-5.2477,-5.2295,-5.2113,-4.9406,-4.7743,-4.6916,-4.6212,-4.6178,-4.6759,-4.6797,-4.7232,-4.7992,-4.7405,-4.787,-4.9184,-4.8641,-4.8677,-4.9227,-4.8768,-4.8275,-4.77,-4.6868,-4.6139,-4.5553,-4.4048,-4.247,-4.0919,-4.0068,-4.0504,-4.212,-4.221,-4.21,-4.1905,-4.1116,-4.0277,-3.9427,-3.8436,-3.8052,-3.8414,-3.7661,-3.7448,-3.7937,-3.8071,-3.7814,-3.7094,-3.703,0.0,0.0,0.0,0.0,0.0,0.0,0.0,0.0,0.0,-2.9164,-2.9785,0.0,-2.9865,0.0,-3.3519,-3.449,-3.4926,-3.5907,0.0,0.0,-3.8099,-3.8652,-3.9905,-4.0174,-4.0674,-4.1632,-4.1874,-4.201,-4.2123,-4.2316,-4.2274,-4.1888,-4.1149,-4.1272,-4.3082,-4.2138,-4.1585,-4.2624,-4.3607,-4.4456,-4.4862,-4.5094,-4.5138,-4.4838,-4.4776,-4.4789,-4.4813,-4.4777,-4.4701,-4.4465,-4.4383,-4.4308,-4.4048,-4.4023,-4.4092,-4.4423,-4.4154,-4.3975,-4.4453,-4.4477,-4.4557,-6.0738,-5.9579,-5.9144,-5.7456,-5.5039,-5.4749,-5.4989,-5.5577,-5.5109,-5.4672,-5.4163,-5.1874,-4.9648,-4.7629,-4.7925,-4.8155,-4.8333,-4.8579,-4.9094,-4.9706,-4.9268,-4.9434,-5.0053,-4.9619,-4.9655,-5.0053,-4.9742,-4.9574,-4.9513,-4.8506,-4.7782,-4.7423,-4.6324,-4.4745,-4.2763,-4.1882,-4.1956,-4.28,-4.2631,-4.223,-4.1526,-4.0746,-3.9807,-3.8654,-3.8377,-3.8293,-3.8366,-3.8088,-3.8151,-3.8554,-3.8559,-3.8345,-3.7869,-3.754,-3.6765,0.0,0.0,0.0,0.0,0.0,0.0,0.0,0.0,0.0,0.0,0.0,-3.1238,-3.3494,-3.4585,-3.5564,-3.648,-3.7438,-3.8413,-3.9421,-3.9714,-4.0352,-4.168,-4.1724,-4.2023,-4.305,-4.3047,-4.3047,-4.3265,-4.3254,-4.3183,-4.3165,-4.2607,-4.2427,-4.2971,-4.2466,-4.2317,-4.3158,-4.3655,-4.4166,-4.4744,-4.4726,-4.4584,-4.444,-4.443,-4.4458,-4.4449,-4.443,-4.4383,-4.425,-4.4221,-4.4199,-4.4017,-4.4023,-4.4023,-4.4023,-4.4023,-4.4023,-4.4023,-4.414,-4.4213,-6.0846,-5.9905,-5.9796,-5.9651,-5.9325,-5.784,-5.7411,-5.7644,-5.6599,-5.6066,-5.5835,-5.379,-5.1387,-4.8837,-4.9372,-4.9388,-4.9,-4.9604,-5.0143,-5.0648,-5.0575,-5.0489,-5.0416,-5.0307,-5.0307,-5.0379,-5.0271,-5.0605,-5.1282,-4.9877,-4.92,-4.9175,-4.7789,-4.6324,-4.4892,-4.4048,-4.3608,-4.3497,-4.28,-4.2066,-4.1295,-4.0487,-3.9313,-3.7918,-3.8395,-3.8395,-3.7698,-3.8224,-3.8559,-3.8658,-3.8496,-3.8396,-3.846,-3.7776,-3.7338,0.0,-3.625,0.0,0.0,0.0,0.0,0.0,0.0,0.0,0.0,-3.2418,-3.326,-3.4849,-3.5587,-3.6708,-3.8493,-3.9151,-3.9862,-4.0825,-4.1547,-4.2268,-4.3044,-4.2962,-4.3199,-4.4195,-4.4125,-4.4095,-4.4318,-4.432,-4.4218,-4.4121,-4.3618,-4.3146,-4.2662,-4.2532,-4.2754,-4.3412,-4.3577,-4.392,-4.4342,-4.4383,-4.4279,-4.4048,-4.4055,-4.4023,-4.4055,-4.4055,-4.4023,-4.4023,-4.4017,-4.4023,-4.4023,-4.4023,-4.4023,-4.4023,-4.4023,-4.4023,-4.4023,-4.3986,-4.4023,-6.3454,-6.1498,-6.0846,-5.9832,-5.8565,-5.7587,-5.7601,-5.8145,-5.7333,-5.6077,-5.457,-5.4084,-5.2984,-5.144,-5.1488,-5.1751,-5.2036,-5.2184,-5.2221,-5.2162,-5.158,-5.1565,-5.1973,-5.1357,-5.1393,-5.1973,-5.1393,-5.0867,-5.0446,-4.958,-4.8862,-4.8407,-4.7456,-4.658,-4.5663,0.0,0.0,0.0,-4.3351,-4.2873,-4.2066,-4.1295,-4.0414,-3.946,-3.8946,0.0,-3.8505,-3.8585,-3.8596,-3.8465,-3.846,0.0,0.0,0.0,0.0,0.0,0.0,0.0,0.0,0.0,0.0,0.0,-3.6467,-3.5752,-3.4188,-3.5214,-3.5768,-3.5341,-3.6533,-3.7862,-3.8883,-3.9489,-4.0473,-4.2092,-4.2273,-4.2558,-4.3398,-4.3439,-4.3582,-4.386,-4.3865,-4.3865,-4.3892,-4.3955,-4.3986,-4.3955,-4.3881,-4.3831,-4.3655,-4.3412,-4.335,-4.3502,-4.3856,-4.424,-4.4411,-4.4221,-4.4079,-4.4023,-4.4023,-4.4023,-4.4023,-4.4023,-4.4023,-4.4023,-4.4023,-4.4023,-4.4023,-4.4023,-4.4061,-4.4023,-4.4023,-4.4023,-4.4023,-4.4023,-4.4023,-6.4287,0.0,-6.1897,-6.0919,0.0,-5.8058,-5.7659,-5.8347,-5.755,-5.6277,-5.477,-5.477,-5.3818,-5.2204,-5.2516,-5.2403,-5.211,-5.264,-5.2651,-5.2185,-5.21,-5.2218,-5.248,-5.2082,-5.2082,-5.248,-5.2082,-5.1729,-5.1302,-5.0185,-4.9471,-4.9159,-4.8032,-4.6941,-4.5847,-4.4673,-4.3901,-4.3497,-4.3497,-4.3094,-4.2323,-4.1882,-4.1332,-4.0524,0.0,0.0,0.0,0.0,0.0,0.0,0.0,0.0,0.0,0.0,0.0,-3.8988,-3.9382,-3.952,-3.9218,-3.9648,-3.9533,-3.8726,-3.8324,-3.7341,-3.552,-3.6144,-3.6604,-3.6642,-3.7618,-3.8654,-3.9611,-4.0529,-4.147,-4.2373,-4.2754,-4.3091,-4.3493,-4.3529,-4.3566,-4.3634,-4.3634,-4.3634,-4.3634,-4.3708,-4.3741,-4.3734,-4.3832,-4.3897,-4.3892,-4.3826,-4.3755,-4.3755,-4.3971,-4.4192,-4.4192,-4.4072,-4.4023,-4.4023,-4.4023,-4.4023,-4.4023,-4.4023,-4.4023,-4.4023,-4.4023,-4.4023,-4.4023,-4.4321,-4.4655,-4.4618,-4.4618,-4.4649,-4.4612,-4.4315,-4.4023,-6.4504,-6.4251,-6.2693,-6.186,-6.139,-5.8601,-5.7695,-5.813,0.0,0.0,0.0,-5.5402,-5.4329,-5.2569,-5.3053,-5.2571,-5.1453,-5.2322,-5.2355,-5.1651,-5.2054,-5.2315,-5.2304,-5.234,-5.2387,-5.248,-5.248,-5.2408,-5.2226,-5.0867,-5.0112,-4.9901,-4.8639,-4.7265,-4.5735,-4.4234,-4.3497,-4.3497,-4.3497,-4.3167,-4.2543,-4.2362,-4.1959,-4.1332,-4.1152,-4.1009,-4.0939,-4.0842,-4.0808,-4.0808,-4.0634,-4.0564,-4.0634,-4.0599,-4.0599,-4.0739,-4.0953,-4.1095,-4.1266,-4.1409,-4.1185,-4.0345,-3.957,-3.8444,-3.6833,-3.6728,-3.708,-3.7998,-3.8582,-3.9326,-4.0341,-4.153,-4.2359,-4.2506,-4.3094,-4.3461,-4.3497,-4.3497,-4.3497,-4.3497,-4.3497,-4.3497,-4.3497,-4.3569,-4.3605,-4.36,-4.3738,-4.3804,-4.3804,-4.386,-4.3912,-4.3912,-4.3986,-4.3986,-4.3955,-4.3986,-4.4023,-4.4023,-4.4023,-4.4023,-4.4023,-4.4023,-4.4023,-4.3992,-4.4023,-4.4023,-4.4029,-4.4655,-4.5175,-4.5101,-4.5212,-4.5244,-4.5015,-4.4501,-4.4023,-6.5011,-6.4287,-6.2693,-6.1208,-5.9868,-5.8709,-5.7913,-5.7369,-5.7261,-5.6528,-5.5402,-5.5402,-5.4606,-5.3348,-5.3382,-5.2925,-5.2011,-5.2156,-5.1708,0.0,-5.0964,-5.1225,-5.1701,-5.1736,-5.2018,-5.248,-5.248,-5.2118,-5.143,-5.0569,-4.9815,-4.921,-4.8338,-4.7146,-4.5659,-4.4126,-4.3429,-4.3429,-4.3429,-4.3391,-4.3314,-4.2622,-4.2219,-4.2139,-4.1376,-4.0976,-4.1079,-4.0912,-4.0808,-4.0808,-4.0741,-4.0634,-4.0564,-4.0635,-4.0634,-4.06,-4.1464,-4.1969,-4.19,-4.2695,-4.2839,-4.2001,-4.1192,-4.0088,-3.8548,-3.8365,-3.8462,-3.8603,-3.9344,-4.0079,-4.0919,-4.1805,-4.2616,-4.3204,-4.3424,-4.3497,-4.3497,-4.3497,-4.3497,-4.3497,-4.3497,-4.3497,-4.3497,-4.3534,-4.3605,-4.36,-4.3704,-4.3775,-4.3771,-4.3837,-4.3837,-4.3837,-4.3865,-4.3897,-4.3929,-4.3961,-4.3992,-4.4023,-4.4023,-4.3986,-4.3992,-4.3992,-4.3992,-4.3929,-4.3961,-4.3961,-4.3929,-4.466,-4.4915,-4.4581,-4.4841,-4.5064,-4.4538,-4.4172,-4.4023,-6.5374,-6.4939,-6.378,-6.2114,-6.0122,-5.8456,-5.755,-5.7188,-5.7188,-5.6528,-5.5426,-5.5402,-5.4676,-5.3551,-5.3518,-5.3007,-5.2209,-5.2138,-5.1647,-5.0863,-5.071,-5.0858,-5.1105,-5.1069,-5.1449,-5.1982,-5.2018,-5.1802,-5.1419,-5.0534,-4.9784,-4.91,-4.788,-4.6884,-4.6127,-4.471,-4.3944,-4.3944,-4.3649,-4.3463,-4.3497,-4.3096,-4.2878,-4.2915,-4.2477,-4.2225,-4.2192,-4.2085,-4.2014,-4.1941,-4.1905,-4.1905,-4.1796,-4.1832,-4.1905,-4.1978,-4.2449,-4.2774,-4.2844,-4.3243,-4.3351,-4.2986,-4.2216,-4.1445,-4.0716,-4.0235,-4.001,-4.0047,-4.0744,-4.1332,-4.1735,-4.247,-4.3094,-4.3461,-4.3497,-4.3497,-4.3497,-4.3497,-4.3497,-4.3497,-4.3497,-4.3497,-4.3497,-4.3534,-4.3569,-4.3566,-4.3603,-4.3637,-4.3634,-4.3634,-4.3704,-4.3771,-4.3837,-4.38,-4.3869,-4.3897,-4.3929,-4.3897,-4.3961,-4.3961,-4.3929,-4.3897,-4.3897,-4.3869,-4.3865,-4.3865,-4.3869,-4.4564,-4.4856,-4.4814,-4.492,-4.5064,-4.4766,-4.4358,-4.4023,-6.5446,-6.5518,-6.4722,-6.3128,-6.0883,-5.8492,-5.7442,-5.7478,-5.7478,-5.6671,-5.5519,-5.5402,-5.4676,-5.3585,-5.3518,-5.3078,-5.2365,-5.2204,-5.1665,-5.0832,-5.0645,-5.0544,-5.0515,-5.0535,-5.0893,-5.15,-5.1637,-5.1637,-5.1508,-5.0494,-4.9431,-4.8473,-4.7327,-4.6644,-4.6468,-4.5249,-4.4672,-4.4599,-4.4053,-4.3611,-4.3428,-4.3428,-4.3393,-4.3359,-4.3322,-4.3251,-4.3141,-4.3068,-4.2994,-4.2956,-4.292,-4.2882,-4.2882,-4.292,-4.2995,-4.3105,-4.3214,-4.3358,-4.3497,-4.3497,-4.3497,-4.3461,-4.291,-4.2546,-4.2548,-4.1996,-4.1479,-4.1258,-4.1772,-4.2249,-4.2359,-4.2983,-4.3497,-4.3497,-4.3497,-4.3497,-4.3497,-4.3497,-4.3497,-4.3497,-4.3497,-4.3497,-4.3497,-4.3497,-4.3497,-4.3497,-4.3497,-4.3497,-4.3497,-4.3497,-4.3566,-4.3704,-4.3738,-4.3734,-4.3771,-4.3837,-4.3869,-4.3804,-4.3865,-4.3897,-4.3837,-4.3869,-4.3832,-4.3804,-4.3804,-4.3804,-4.3878,-4.4498,-4.4897,-4.4819,-4.4994,-4.5212,-4.4878,-4.4432,-4.4023,-6.4939,-6.5446,-6.4758,-6.3454,-6.1679,-5.9289,-5.8239,-5.8275,-5.8275,-5.7173,-5.5625,-5.5402,-5.471,-5.3618,-5.3518,-5.3078,-5.2367,-5.2298,-5.1549,-5.0328,-5.0187,-5.0086,-5.0022,-4.9988,-5.055,-5.15,-5.1637,-5.1551,-5.1479,-5.0079,-4.839,-4.668,-4.6671,-4.6516,-4.5881,-4.5554,-4.5433,-4.5397,-4.4672,-4.3944,-4.3251,-4.3178,-4.3178,-4.3214,-4.3142,-4.3178,-4.3178,-4.3031,-4.2994,-4.3067,-4.2956,-4.2882,-4.292,-4.3069,-4.3105,-4.2994,-4.325,-4.3497,-4.3497,-4.3497,-4.3497,-4.3497,-4.3461,-4.3351,-4.3387,-4.3314,-4.2653,-4.1699,-4.1882,-4.2359,-4.2359,-4.302,-4.3461,-4.3387,-4.3461,-4.3497,-4.3424,-4.3497,-4.3497,-4.3497,-4.3497,-4.3497,-4.3497,-4.3497,-4.3497,-4.3497,-4.3497,-4.3497,-4.3497,-4.3497,-4.3497,-4.3532,-4.36,-4.3634,-4.3634,-4.3738,-4.3804,-4.3804,-4.3804,-4.3804,-4.3804,-4.3771,-4.3771,-4.3667,-4.3738,-4.3771,-4.3952,-4.4461,-4.4749,-4.4411,-4.4591,-4.4994,-4.4358,-4.3998,-4.3892,-6.5011,-6.4939,-6.5555,-6.4613,-6.2404,-5.9144,-5.8239,-5.9035,-5.8601,-5.7999,-5.7255,-5.6423,-5.5092,-5.3518,-5.3518,-5.3315,-5.2976,-5.2536,-5.1758,-5.0744,-5.0304,-5.0032,-4.9884,-4.9873,-5.0495,-5.15,-5.1637,-5.1398,-5.0892,-4.9922,-4.8514,-4.7005,-4.7568,-4.7519,-4.6472,-4.623,-4.6114,-4.6078,-4.5355,-4.452,-4.3757,-4.336,-4.3142,-4.3105,-4.3104,-4.3067,-4.2995,-4.292,-4.292,-4.2994,-4.2956,-4.2882,-4.2882,-4.2957,-4.3031,-4.3031,-4.3323,-4.3463,-4.3497,-4.3497,-4.3497,-4.3497,-4.3938,-4.4011,-4.3571,-4.3938,-4.3718,-4.28,-4.28,-4.302,-4.302,-4.3314,-4.3314,-4.2983,-4.3167,-4.3314,-4.2837,-4.324,-4.3497,-4.3497,-4.3497,-4.3497,-4.3497,-4.3497,-4.3497,-4.3497,-4.3497,-4.3497,-4.3497,-4.3497,-4.3497,-4.3497,-4.3532,-4.3532,-4.3566,-4.3634,-4.3634,-4.3634,-4.3738,-4.3771,-4.3634,-4.3667,-4.3634,-4.3529,-4.36,-4.3634,-4.36,-4.3852,-4.4099,-4.3841,-4.3741,-4.3999,-4.3701,-4.3458,-4.3318,-6.5229,-6.5156,-6.5663,-6.483,-6.2875,-5.9361,-5.8528,-5.9506,-5.9216,-5.879,-5.8274,-5.7458,-5.598,-5.419,-5.372,-5.3518,-5.3416,-5.2875,-5.2232,-5.1522,-5.0913,-5.0521,-5.0266,-5.0469,-5.1032,-5.1847,-5.1963,-5.1505,-5.0629,-4.973,-4.8539,-4.7366,-4.7832,-4.7711,-4.6788,-4.6621,-4.6669,-4.6757,-4.6033,-4.5345,-4.4732,-4.3904,-4.3323,-4.3067,-4.3031,-4.2994,-4.2882,-4.2882,-4.2882,-4.2882,-4.2882,-4.2882,-4.2882,-4.292,-4.2994,-4.3105,-4.3068,-4.3065,-4.3133,-4.2983,-4.302,-4.3461,-4.4085,-4.4306,-4.4234,-4.449,-4.4452,-4.3901,-4.3608,-4.3461,-4.3497,-4.3314,-4.2873,-4.2396,-4.269,-4.2616,-4.2396,-4.2873,-4.324,-4.3424,-4.3497,-4.3426,-4.3356,-4.3318,-4.3316,-4.3321,-4.3428,-4.3497,-4.3497,-4.3497,-4.3497,-4.3356,-4.3321,-4.3356,-4.3497,-4.3532,-4.3566,-4.3566,-4.3634,-4.3634,-4.3532,-4.3566,-4.3566,-4.3495,-4.3497,-4.3497,-4.3532,-4.36,-4.3428,-4.3321,-4.3214,-4.3142,-4.3141,-4.2885,-4.288,-6.5337,-6.6279,-6.4287,-6.3345,-6.2983,-6.0448,-5.9506,-5.9724,-6.0303,-5.9475,-5.8009,-5.827,-5.7514,-5.5529,-5.426,-5.3518,-5.3518,-5.3416,-5.2942,-5.2232,-5.2131,-5.1792,-5.1214,-5.1802,-5.2392,-5.2866,-5.2873,-5.2115,-5.0659,-4.9466,-4.8031,-4.6669,-4.6829,-4.6534,-4.6204,-4.6589,-4.708,-4.7277,-4.6747,-4.6354,-4.6178,-4.4838,-4.379,-4.3174,-4.292,-4.292,-4.2882,-4.2882,-4.2882,-4.2882,-4.2882,-4.2882,-4.2882,-4.2994,-4.3032,-4.3032,-4.2413,-4.2084,-4.2116,-4.1745,-4.1959,-4.3204,-4.3754,-4.4234,-4.5405,-4.5077,-4.471,-4.46,-4.3866,-4.3463,-4.3353,-4.2839,-4.2362,-4.2106,-4.1625,-4.1662,-4.2179,-4.2255,-4.2727,-4.3243,-4.3391,-4.325,-4.2957,-4.2922,-4.2959,-4.2996,-4.3214,-4.3428,-4.3356,-4.3391,-4.325,-4.3032,-4.2957,-4.3032,-4.3356,-4.3391,-4.3426,-4.3532,-4.3532,-4.3532,-4.3532,-4.3497,-4.3461,-4.3461,-4.3428,-4.3391,-4.3461,-4.3284,-4.2922,-4.2772,-4.2619,-4.258,-4.2582,-4.258,-4.253,-6.5953,-6.5772,-6.2875,-6.2223,-6.2838,-6.0086,-5.9398,-6.0303,-6.0122,-5.9907,-5.9473,-5.8556,-5.7911,-5.7555,-5.5723,-5.4397,-5.3551,-5.3518,-5.3078,-5.2367,-5.23,-5.2089,-5.1878,-5.2414,-5.305,-5.3566,-5.3964,-5.3419,-5.1943,-5.0699,-4.9055,-4.7553,-4.756,-4.7039,-4.5908,-4.6098,-4.6519,-4.6671,-4.6695,-4.6506,-4.6047,-4.5725,-4.5236,-4.444,-4.3425,-4.2882,-4.2882,-4.2882,-4.2882,-4.2882,-4.2882,-4.2882,-4.2846,-4.2222,-4.1704,-4.1439,-4.076,-4.0369,-4.063,-4.1542,-4.2338,-4.3015,-4.4818,-4.5663,-4.5843,-4.5589,-4.5151,-4.4418,-4.3579,-4.3032,-4.2705,-4.2446,-4.1896,-4.0999,-4.099,-4.1052,-4.1245,-4.1576,-4.2159,-4.285,-4.2846,-4.2616,-4.2501,-4.2724,-4.2799,-4.2534,-4.2832,-4.2985,-4.2729,-4.2693,-4.2655,-4.2498,-4.2458,-4.2498,-4.2616,-4.2921,-4.3142,-4.3391,-4.3497,-4.3497,-4.3497,-4.3463,-4.3428,-4.3286,-4.325,-4.3069,-4.2995,-4.2734,-4.2422,-4.2306,-4.2144,-4.205,-4.2098,-4.215,-4.2051,-6.5772,-6.4468,-6.1933,-6.1426,-6.2078,-5.9832,-5.9542,-6.0738,-6.052,-6.0557,-6.0485,-5.9313,-5.8966,-5.8827,-5.7221,-5.5724,-5.4566,-5.4093,-5.3551,-5.3044,-5.2807,-5.2663,-5.2729,-5.338,-5.3958,-5.4384,-5.4705,-5.4133,-5.2709,-5.1312,-4.9838,-4.836,-4.8032,-4.7265,-4.6185,-4.5926,-4.597,-4.6379,-4.6578,-4.6376,-4.5879,-4.59,-4.5717,-4.5072,-4.3852,-4.3252,-4.3372,-4.2825,-4.2602,-4.2705,-4.2602,-4.235,-4.2063,-4.1324,-4.0654,-4.0129,-3.9423,-3.9287,-3.9868,-4.1006,-4.2048,-4.3128,-4.4893,-4.6121,-4.6316,-4.6209,-4.5547,-4.4626,-4.3751,-4.3057,-4.253,-4.226,-4.1577,-4.0262,-4.0384,-4.0454,-4.0095,-4.0816,-4.1609,-4.2075,-4.1868,-4.1659,-4.1689,-4.1881,-4.1987,-4.1966,-4.2356,-4.2498,-4.2282,-4.2216,-4.2133,-4.2008,-4.2008,-4.2008,-4.205,-4.2221,-4.2732,-4.2995,-4.332,-4.3391,-4.3322,-4.3286,-4.3251,-4.3105,-4.2884,-4.2655,-4.2418,-4.2175,-4.2015,-4.1931,-4.1709,-4.1515,-4.1611,-4.1765,-4.1963,-6.4685,-6.3164,-6.1462,-6.0774,-6.0774,-5.9796,-5.9977,-6.0738,-6.1426,-6.1245,-6.0775,-6.0719,-6.0214,-5.9681,-5.8194,-5.7221,-5.6297,-5.5077,-5.4431,-5.4296,-5.3788,-5.345,-5.3414,-5.4556,-5.5273,-5.5398,-5.502,-5.411,-5.2748,-5.1334,-5.0196,-4.9293,-4.768,-4.7064,-4.7472,-4.606,-4.5962,-4.6549,-4.628,-4.6098,-4.6028,-4.5444,-4.514,-4.4917,-4.4132,-4.3895,-4.4413,-4.2723,-4.2124,-4.2527,-4.2079,-4.1227,-4.0918,-4.0664,-4.0165,-3.9596,-3.8772,-3.9059,-4.0109,-4.0087,-4.1479,-4.3285,-4.4227,-4.5401,-4.6699,-4.6593,-4.5924,-4.5188,-4.4357,-4.3647,-4.282,-4.2341,-4.1517,-4.0121,-4.0139,-3.9938,-3.947,-4.011,-4.0998,-4.1065,-4.0771,-4.0411,-4.0429,-4.0732,-4.1024,-4.1506,-4.188,-4.2135,-4.2023,-4.1966,-4.1924,-4.1666,-4.1534,-4.1534,-4.1534,-4.1578,-4.2133,-4.2616,-4.2996,-4.3177,-4.2957,-4.2842,-4.2765,-4.2613,-4.2382,-4.2175,-4.1796,-4.1578,-4.1445,-4.1346,-4.1175,-4.1301,-4.1613,-4.1925,-4.25,-6.4142,-6.2947,-6.0883,-5.9977,-5.9868,-5.9108,-5.9253,-5.9977,-6.0267,-6.052,-6.0702,-6.0325,-6.0058,-5.955,-5.8427,-5.7357,-5.6567,-5.5247,-5.46,-5.4566,-5.4329,-5.3923,-5.3785,-5.4799,-5.583,-5.6331,-5.5433,-5.4689,-5.3869,-5.222,-5.0708,-4.9591,-4.8583,-4.743,-4.6488,-4.5818,-4.5623,-4.5377,-4.5476,-4.5545,-4.5597,-4.5656,-4.5698,-4.5593,-4.4669,-4.4347,-4.4913,-4.3745,-4.3173,-4.3337,-4.3138,-4.2754,-4.2193,-4.173,-4.116,-4.0631,-3.9911,-3.9637,-4.0268,-4.1336,-4.2114,-4.3019,-4.4198,-4.5285,-4.606,-4.5864,-4.5492,-4.5027,-4.4178,-4.3408,-4.3022,-4.2415,-4.1684,-4.0652,-4.1004,-4.0937,-4.017,-4.0305,-4.0348,-4.0158,-4.0016,-3.9926,-4.0065,-4.0435,-4.1012,-4.1105,-4.1487,-4.1661,-4.144,-4.1366,-4.13,-4.1071,-4.1071,-4.1094,-4.1209,-4.1196,-4.1525,-4.2026,-4.2505,-4.2736,-4.2537,-4.2399,-4.2276,-4.2121,-4.1881,-4.1622,-4.13,-4.1071,-4.1059,-4.1047,-4.1034,-4.1367,-4.1802,-4.2354,-4.294,-6.3925,-6.2983,-6.1245,-6.0122,-5.9615,-5.9035,-5.9144,-5.9579,-5.9615,-5.9905,-6.0232,-6.0284,-6.0008,-5.9602,-5.8853,-5.7974,-5.6958,-5.5855,-5.5111,-5.4635,-5.4262,-5.3923,-5.3719,-5.4799,-5.5709,-5.6201,-5.5677,-5.5015,-5.4399,-5.305,-5.1586,-5.0154,-4.9428,-4.8437,-4.6971,-4.638,-4.594,-4.5794,-4.5601,-4.5446,-4.5432,-4.5545,-4.5528,-4.5407,-4.4801,-4.4643,-4.4986,-4.4354,-4.3919,-4.3608,-4.3331,-4.294,-4.2364,-4.185,-4.1392,-4.0832,-4.0426,-4.029,-4.0951,-4.2108,-4.3117,-4.3323,-4.4227,-4.4975,-4.5129,-4.4991,-4.468,-4.4505,-4.4031,-4.3613,-4.3499,-4.2921,-4.2354,-4.2236,-4.23,-4.2156,-4.1485,-4.0916,-4.0548,-4.0251,-3.9951,-3.9733,-3.9951,-4.017,-4.0908,-4.0884,-4.1091,-4.1242,-4.0918,-4.0642,-4.0595,-4.0457,-4.0193,-4.0377,-4.0861,-4.0932,-4.0941,-4.1411,-4.1902,-4.2062,-4.205,-4.1956,-4.1885,-4.163,-4.1356,-4.13,-4.1012,-4.0965,-4.0918,-4.094,-4.1043,-4.1733,-4.2354,-4.2906,-4.3423,-6.3925,-6.3128,-6.2331,-6.1064,-5.9796,-5.9579,-5.9615,-5.9724,-5.9615,-5.9687,-5.9941,-6.0322,-6.0177,-5.9673,-5.9259,-5.8461,-5.7553,-5.6482,-5.5448,-5.45,-5.389,-5.3619,-5.3783,-5.4738,-5.5318,-5.5509,-5.5692,-5.5184,-5.4255,-5.3713,-5.2745,-5.0875,-5.008,-4.9361,-4.8447,-4.7462,-4.7056,-4.7192,-4.6404,-4.5828,-4.576,-4.5117,-4.48,-4.48,-4.4665,-4.4597,-4.4631,-4.455,-4.419,-4.3504,-4.3056,-4.2547,-4.173,-4.1407,-4.1391,-4.0899,-4.0493,-4.117,-4.2049,-4.263,-4.3071,-4.4007,-4.3931,-4.3957,-4.4558,-4.4225,-4.3957,-4.4038,-4.3827,-4.3828,-4.3865,-4.337,-4.3269,-4.3924,-4.337,-4.3089,-4.3093,-4.185,-4.0884,-4.0676,-4.0215,-3.9664,-3.9629,-3.9766,-4.0285,-4.0504,-4.0745,-4.0676,-4.0607,-4.025,-4.0112,-3.9836,-3.9457,-3.956,-4.002,-3.9951,-3.9961,-4.02,-4.0788,-4.1069,-4.1332,-4.1346,-4.1186,-4.0967,-4.0816,-4.0827,-4.0918,-4.0918,-4.0871,-4.0905,-4.1388,-4.2216,-4.2817,-4.3197,-4.3354,-6.3925,-6.3128,-6.2331,-6.1426,-6.0448,-5.9905,-5.9977,-6.0375,-5.9832,-5.9868,-6.0267,-6.005,-5.947,-5.873,-5.8303,-5.7384,-5.6245,-5.5362,-5.459,-5.3856,-5.3619,-5.3783,-5.4106,-5.4454,-5.5144,-5.5719,-5.5562,-5.5338,-5.5292,-5.4281,-5.3051,-5.163,-5.092,-4.9791,-4.8361,-4.7868,-4.7394,-4.7124,-4.6786,-4.6515,-4.6413,-4.5805,-4.5432,-4.5365,-4.4891,-4.4621,-4.4587,-4.4553,-4.4519,-4.4316,-4.4113,-4.391,-4.3572,-4.3538,-4.3335,-4.3132,-4.3234,-4.3166,-4.3166,-4.3606,-4.3673,-4.3051,-4.3545,-4.3727,-4.3957,-4.3791,-4.3819,-4.3826,-4.3498,-4.3208,-4.3331,-4.2886,-4.2871,-4.3269,-4.3285,-4.3404,-4.3473,-4.223,-4.0871,-4.0802,-4.0215,-3.9698,-3.9388,-3.9928,-4.0447,-4.0227,-4.017,-4.0112,-4.0055,-3.9698,-3.9457,-3.9146,-3.8836,-3.8905,-3.8974,-3.8939,-3.8984,-3.9008,-3.9444,-3.9917,-4.0227,-4.0504,-4.0274,-4.002,-4.0032,-4.002,-4.0573,-4.0884,-4.0871,-4.0767,-4.1216,-4.185,-4.2486,-4.2936,-4.3009,-6.4279,-6.3235,-6.3127,-6.2407,-6.14,-6.1172,-6.0846,-6.0267,-5.9832,-5.9434,-5.9325,-5.9216,-5.8637,-5.7934,-5.789,-5.697,-5.5496,-5.5009,-5.4362,-5.3585,-5.3518,-5.3651,-5.4011,-5.42,-5.4826,-5.5391,-5.5349,-5.5237,-5.5062,-5.4366,-5.3288,-5.2148,-5.1672,-5.0514,-4.908,-4.8815,-4.8477,-4.7834,-4.7462,-4.7259,-4.7225,-4.6549,-4.5974,-4.5737,-4.5229,-4.4959,-4.4654,-4.4553,-4.4553,-4.4553,-4.4553,-4.4553,-4.4553,-4.4553,-4.4418,-4.4181,-4.435,-4.4079,-4.3403,-4.391,-4.4147,-4.3538,-4.3817,-4.4211,-4.4456,-4.4371,-4.4216,-4.4371,-4.3954,-4.3915,-4.3865,-4.3385,-4.2921,-4.2733,-4.299,-4.337,-4.3853,-4.2664,-4.1767,-4.1354,-4.094,-4.0388,-3.9675,-4.0643,-4.0782,-4.0493,-4.0342,-4.0123,-3.9779,-3.933,-3.8939,-3.8801,-3.8698,-3.8801,-3.8594,-3.8456,-3.8639,-3.8674,-3.8791,-3.9169,-3.9434,-3.9779,-3.9422,-3.925,-3.925,-3.9457,-4.0077,-4.056,-4.056,-4.0629,-4.0974,-4.154,-4.2196,-4.2694,-4.2733,-6.4653,-6.3244,-6.3993,-6.3529,-6.2281,-6.2839,-6.1984,-6.0341,-5.9924,-5.9108,-5.8239,-5.8202,-5.7913,-5.7261,-5.7774,-5.7227,-5.5578,-5.5449,-5.4641,-5.3946,-5.3551,-5.3551,-5.3618,-5.3977,-5.4465,-5.478,-5.5139,-5.5133,-5.4934,-5.463,-5.3589,-5.2684,-5.2295,-5.1446,-5.0362,-5.0135,-4.9796,-4.9086,-4.8545,-4.8173,-4.7936,-4.7293,-4.6684,-4.6244,-4.55,-4.5331,-4.4993,-4.4756,-4.4688,-4.4857,-4.4756,-4.4688,-4.4654,-4.4587,-4.435,-4.3944,-4.4215,-4.3978,-4.2929,-4.3741,-4.4485,-4.435,-4.4418,-4.5015,-4.5501,-4.5239,-4.4886,-4.5043,-4.5172,-4.4801,-4.4457,-4.4249,-4.3454,-4.2541,-4.263,-4.2921,-4.3197,-4.3162,-4.2802,-4.2147,-4.1974,-4.1388,-4.122,-4.1302,-4.1555,-4.0366,-4.0493,-4.0827,-4.0504,-4.0124,-3.9526,-3.8974,-3.887,-3.8836,-3.8456,-3.8077,-3.8338,-3.8476,-3.8594,-3.886,-3.9008,-3.9053,-3.8708,-3.8525,-3.8698,-3.9112,-3.9733,-4.0008,-4.025,-4.0595,-4.1009,-4.1595,-4.2181,-4.2472,-4.2595,-6.3788,-6.2485,-6.327,-6.3066,-6.2464,-6.2968,-6.2988,-6.2331,-6.1063,-6.0358,-5.9724,-5.8311,-5.7514,-5.7297,-5.75,-5.6937,-5.6253,-5.6049,-5.5426,-5.4264,-5.3685,-5.3518,-5.3518,-5.3785,-5.4288,-5.4849,-5.4758,-5.5313,-5.5977,-5.4904,-5.4205,-5.3776,-5.2716,-5.182,-5.1082,-5.0947,-5.0608,-4.9965,-4.9661,-4.9255,-4.8714,-4.8071,-4.7564,-4.7192,-4.5805,-4.55,-4.5906,-4.5196,-4.5196,-4.5872,-4.5771,-4.5331,-4.4891,-4.5128,-4.4959,-4.4418,-4.435,-4.4147,-4.3436,-4.347,-4.3978,-4.4587,-4.4722,-4.5128,-4.6438,-4.6112,-4.5762,-4.5614,-4.5282,-4.4795,-4.3838,-4.3526,-4.2975,-4.2285,-4.1767,-4.2009,-4.2768,-4.2664,-4.2526,-4.2457,-4.1457,-4.0181,-4.0146,-4.0977,-4.099,-4.0366,-4.0836,-4.1512,-4.1354,-4.0905,-4.0319,-3.9698,-4.0112,-4.0077,-3.9008,-3.8743,-3.8945,-3.9059,-3.9074,-3.9066,-3.9227,-3.896,-3.8777,-3.8491,-3.8284,-3.8836,-3.9629,-4.0146,-4.0491,-4.0802,-4.1112,-4.1698,-4.2147,-4.2354,-4.2837,-6.4219,-6.221,-6.2612,-6.2611,-6.242,-6.3064,-6.3172,-6.277,-6.2283,-6.1728,-6.1191,-5.9905,-5.9072,-5.8347,-5.826,-5.7854,-5.708,-5.6901,-5.6455,-5.5623,-5.5138,-5.4634,-5.4025,-5.3957,-5.4363,-5.4561,-5.4151,-5.4754,-5.509,-5.472,-5.3878,-5.3946,-5.3209,-5.2535,-5.1826,-5.1725,-5.1319,-5.0676,-5.0236,-4.9864,-4.9458,-4.8815,-4.8173,-4.78,-4.6481,-4.6075,-4.6583,-4.6109,-4.6109,-4.6549,-4.6718,-4.621,-4.5331,-4.5432,-4.5128,-4.4282,-4.4418,-4.3944,-4.3267,-4.3267,-4.3944,-4.5026,-4.5094,-4.621,-4.7259,-4.7488,-4.7208,-4.6869,-4.6442,-4.5691,-4.3699,-4.3494,-4.3081,-4.2181,-4.1664,-4.194,-4.2802,-4.2802,-4.2664,-4.3024,-4.2526,-4.194,-4.1781,-4.1648,-4.189,-4.1877,-4.195,-4.2517,-4.2078,-4.163,-4.125,-4.0974,-4.1561,-4.1354,-3.9974,-3.9582,-3.9877,-3.9981,-4.0006,-4.0062,-4.0167,-3.9671,-3.9122,-3.8905,-3.8801,-3.9043,-3.9733,-4.0215,-4.0767,-4.094,-4.1285,-4.185,-4.2299,-4.263,-4.32,-6.4757,-6.2009,-6.2209,-6.2153,-6.2016,-6.2678,-6.2864,-6.2622,-6.2888,-6.2664,-6.2365,-6.2186,-6.0919,-6.0194,-5.9977,-5.915,-5.8131,-5.7553,-5.7095,-5.6491,-5.6162,-5.5519,-5.4906,-5.4735,-5.4532,-5.3856,-5.3653,-5.3855,-5.4262,-5.3687,-5.372,-5.3619,-5.3518,-5.3078,-5.2604,-5.2469,-5.2131,-5.142,-5.0913,-5.0473,-5.0168,-4.956,-4.8883,-4.8139,-4.7158,-4.6887,-4.7124,-4.6921,-4.6853,-4.7124,-4.7733,-4.7293,-4.6447,-4.594,-4.5466,-4.4147,-4.4519,-4.4045,-4.3335,-4.3335,-4.4045,-4.5534,-4.5838,-4.6853,-4.8308,-4.8748,-4.8443,-4.8233,-4.7785,-4.7077,-4.4864,-4.4765,-4.4044,-4.299,-4.2521,-4.2699,-4.3251,-4.3423,-4.3404,-4.3162,-4.263,-4.2043,-4.2445,-4.2623,-4.3062,-4.338,-4.3443,-4.3339,-4.2943,-4.263,-4.2423,-4.2457,-4.3044,-4.2768,-4.1492,-4.0331,-4.0585,-4.1233,-4.1233,-4.136,-4.1546,-4.1731,-4.1354,-3.9836,-3.9595,-3.9974,-4.0388,-4.0974,-4.1319,-4.125,-4.1698,-4.2472,-4.2817,-4.2975,-4.3683,-6.3518,-6.1433,-6.2055,-6.1246,-5.9959,-6.1011,-6.2265,-6.311,-6.2595,-6.3023,-6.376,-6.2657,-6.2078,-6.1643,-6.1607,-6.0771,-5.9452,-5.8623,-5.759,-5.6874,-5.6474,-5.5994,-5.5651,-5.5513,-5.5412,-5.504,-5.4397,-5.4499,-5.5175,-5.4566,-5.3957,-5.416,-5.3788,-5.3348,-5.3281,-5.3281,-5.2942,-5.2367,-5.1961,-5.1589,-5.1082,-5.0338,-4.956,-4.8849,-4.7834,-4.7767,-4.8105,-4.753,-4.7361,-4.8477,-4.8748,-4.8308,-4.7699,-4.7462,-4.6955,-4.6041,-4.4993,-4.435,-4.4248,-4.3673,-4.4316,-4.5399,-4.621,-4.7225,-4.8511,-4.9018,-4.8883,-4.8849,-4.8734,-4.8269,-4.6737,-4.6405,-4.601,-4.5025,-4.4246,-4.4182,-4.4665,-4.4561,-4.3906,-4.3508,-4.263,-4.2078,-4.2791,-4.3235,-4.3311,-4.3677,-4.4009,-4.4199,-4.413,-4.4044,-4.4078,-4.4251,-4.4561,-4.394,-4.3044,-4.1816,-4.1358,-4.2541,-4.284,-4.3093,-4.3443,-4.4336,-4.382,-4.2078,-4.1216,-4.1457,-4.1802,-4.1974,-4.2147,-4.2334,-4.2748,-4.3197,-4.3508,-4.3888,-4.4458,-6.4009,-6.2405,-6.2672,-6.1792,-6.0437,-6.0876,-6.1628,-6.2265,-6.227,-6.3325,-6.4411,-6.4224,-6.3635,-6.3345,-6.3237,-6.2212,-6.0606,-6.029,-5.916,-5.8116,-5.7878,-5.7185,-5.6464,-5.6292,-5.6292,-5.5987,-5.5277,-5.5074,-5.6021,-5.4803,-5.4329,-5.4296,-5.3856,-5.3518,-5.3619,-5.3856,-5.3788,-5.3416,-5.3112,-5.2739,-5.2266,-5.1285,-5.0338,-4.9593,-4.9289,-4.9323,-4.9221,-4.9052,-4.8815,-4.9323,-4.9187,-4.8849,-4.8612,-4.8342,-4.797,-4.6853,-4.55,-4.4993,-4.5196,-4.4519,-4.4485,-4.6515,-4.6921,-4.7496,-4.8545,-4.9018,-4.9018,-4.9018,-4.9012,-4.8557,-4.7077,-4.7261,-4.67,-4.5956,-4.544,-4.5558,-4.5696,-4.5577,-4.4941,-4.4078,-4.3561,-4.332,-4.332,-4.3577,-4.3492,-4.3888,-4.4406,-4.4751,-4.4975,-4.4837,-4.4734,-4.4803,-4.4872,-4.4699,-4.4044,-4.3251,-4.2645,-4.3642,-4.4281,-4.4527,-4.4716,-4.5233,-4.4957,-4.3906,-4.3492,-4.3251,-4.2733,-4.2699,-4.3059,-4.337,-4.3611,-4.3922,-4.4302,-4.4785,-4.5354,-6.4669,-6.3344,-6.3526,-6.2787,-6.1547,-6.1163,-6.136,-6.1674,-6.2118,-6.3577,-6.5457,-6.5502,-6.5141,-6.4635,-6.3919,-6.2869,-6.128,-6.1506,-6.0078,-5.8909,-5.8941,-5.8453,-5.745,-5.7036,-5.7036,-5.6934,-5.6528,-5.6055,-5.5953,-5.5243,-5.4803,-5.4499,-5.3957,-5.3619,-5.3687,-5.416,-5.4465,-5.4397,-5.4093,-5.3687,-5.301,-5.2097,-5.1082,-5.0405,-5.0913,-5.0811,-5.0371,-5.0202,-5.0135,-5.0101,-4.9729,-4.9255,-4.9221,-4.9086,-4.8443,-4.7259,-4.5838,-4.5906,-4.5906,-4.5432,-4.5331,-4.709,-4.7327,-4.797,-4.8545,-4.9018,-4.9018,-4.9018,-4.8984,-4.8741,-4.7785,-4.7505,-4.718,-4.6806,-4.6644,-4.67,-4.6529,-4.6378,-4.6143,-4.5421,-4.4819,-4.4389,-4.4182,-4.3677,-4.3588,-4.413,-4.4734,-4.4734,-4.4888,-4.4665,-4.4561,-4.4699,-4.4803,-4.5044,-4.4837,-4.4665,-4.4458,-4.5044,-4.5441,-4.5577,-4.5612,-4.5715,-4.5458,-4.5389,-4.5389,-4.5079,-4.4285,-4.363,-4.3975,-4.4251,-4.4354,-4.4682,-4.5252,-4.5718,-4.6197,-6.4177,-6.3498,-6.4165,-6.3623,-6.2198,-6.1037,-6.141,-6.2856,-6.2533,-6.3519,-6.5502,-6.5607,-6.5555,-6.501,-6.3264,-6.244,-6.1687,-6.0389,-5.9253,-5.8311,-5.8409,-5.8303,-5.7746,-5.778,-5.7645,-5.7577,-5.7543,-5.7239,-5.6664,-5.5953,-5.5277,-5.4803,-5.46,-5.4194,-5.3788,-5.4397,-5.4566,-5.4566,-5.4465,-5.3822,-5.2773,-5.23,-5.1792,-5.1319,-5.1251,-5.1285,-5.115,-5.1082,-5.1082,-5.098,-5.0371,-4.9999,-4.9864,-4.9323,-4.9052,-4.8376,-4.7496,-4.6616,-4.6853,-4.6346,-4.6244,-4.7394,-4.797,-4.868,-4.8951,-4.9018,-4.9018,-4.9018,-4.9018,-4.8917,-4.864,-4.8734,-4.8481,-4.8158,-4.7841,-4.7592,-4.7318,-4.7192,-4.694,-4.657,-4.5903,-4.5198,-4.4734,-4.4108,-4.3701,-4.4353,-4.487,-4.4939,-4.4819,-4.463,-4.4458,-4.4596,-4.4975,-4.5251,-4.5561,-4.5423,-4.5768,-4.6301,-4.6473,-4.6576,-4.6542,-4.6542,-4.6975,-4.6941,-4.6872,-4.6493,-4.563,-4.5147,-4.5182,-4.5147,-4.5182,-4.5701,-4.6291,-4.665,-4.6824,-6.4735,-6.4241,-6.5109,-6.4739,-6.3632,-6.2763,-6.2547,-6.2729,-6.2926,-6.3705,-6.4848,-6.495,-6.4997,-6.4508,-6.2571,-6.1571,-6.1328,-6.0038,-5.8851,-5.8191,-5.822,-5.8254,-5.7949,-5.7881,-5.7881,-5.7881,-5.7881,-5.7712,-5.7239,-5.6731,-5.6089,-5.5818,-5.5412,-5.4871,-5.4262,-5.4871,-5.4871,-5.4735,-5.4499,-5.4025,-5.3281,-5.2909,-5.2604,-5.1894,-5.2232,-5.2198,-5.1928,-5.1826,-5.1826,-5.1691,-5.1116,-5.0507,-5.0168,-4.9763,-4.9492,-4.8951,-4.8443,-4.8071,-4.8003,-4.7259,-4.7327,-4.7902,-4.8612,-4.8917,-4.9018,-4.9018,-4.9018,-4.9018,-4.9018,-4.9018,-4.9018,-4.908,-4.8938,-4.8761,-4.8677,-4.8303,-4.7987,-4.7967,-4.7717,-4.7386,-4.6996,-4.6399,-4.5784,-4.5286,-4.5076,-4.5441,-4.5765,-4.5642,-4.5249,-4.4699,-4.4561,-4.4527,-4.5044,-4.5527,-4.5941,-4.6148,-4.6546,-4.6975,-4.7162,-4.7265,-4.7313,-4.7451,-4.7782,-4.7596,-4.7079,-4.6769,-4.6596,-4.6389,-4.6113,-4.6044,-4.601,-4.6515,-4.688,-4.6737,-4.6937,-6.4873,-6.4667,-6.5664,-6.563,-6.4889,-6.4084,-6.3282,-6.2668,-6.268,-6.3374,-6.4155,-6.425,-6.4276,-6.3689,-6.1988,-6.0971,-6.108,-6.0028,-5.9126,-5.8586,-5.8423,-5.8321,-5.8017,-5.7881,-5.7881,-5.7881,-5.7881,-5.7848,-5.7712,-5.734,-5.6968,-5.6799,-5.6224,-5.5581,-5.5277,-5.5513,-5.5683,-5.504,-5.4972,-5.4431,-5.3653,-5.345,-5.3112,-5.2942,-5.3078,-5.3213,-5.2706,-5.2604,-5.2604,-5.2469,-5.1894,-5.1251,-5.0879,-5.0304,-4.9864,-4.939,-4.8984,-4.8815,-4.8578,-4.8173,-4.8105,-4.8578,-4.9018,-4.9018,-4.9018,-4.9018,-4.9018,-4.9018,-4.9018,-4.9018,-4.9018,-4.9018,-4.8951,-4.8978,-4.9006,-4.87,-4.8489,-4.8379,-4.8396,-4.8182,-4.7991,-4.7877,-4.7292,-4.6741,-4.6568,-4.6734,-4.6639,-4.6392,-4.5897,-4.5336,-4.5458,-4.563,-4.5941,-4.6424,-4.6631,-4.6975,-4.7375,-4.7686,-4.7872,-4.8183,-4.8242,-4.8299,-4.8402,-4.801,-4.7562,-4.7872,-4.8252,-4.7596,-4.6975,-4.6906,-4.6892,-4.7088,-4.7291,-4.7087,-4.7066,-6.4353,-6.4386,-6.5545,-6.5962,-6.5679,-6.3228,-6.2561,-6.2855,-6.1975,-6.2363,-6.3286,-6.3768,-6.3594,-6.2752,-6.139,-6.0574,-6.0865,-5.9445,-5.8984,-5.8721,-5.8355,-5.822,-5.8084,-5.8084,-5.7915,-5.7983,-5.7915,-5.7881,-5.7881,-5.778,-5.734,-5.6867,-5.6867,-5.6325,-5.5953,-5.6055,-5.6156,-5.5649,-5.5446,-5.4735,-5.3923,-5.3551,-5.3416,-5.3416,-5.345,-5.3484,-5.3416,-5.3315,-5.3281,-5.3247,-5.2638,-5.2097,-5.1657,-5.0947,-5.0371,-4.9999,-4.9593,-4.9323,-4.8917,-4.8781,-4.8883,-4.8951,-4.9018,-4.9018,-4.9018,-4.9018,-4.9018,-4.8917,-4.8781,-4.8781,-4.8849,-4.8984,-4.8815,-4.8849,-4.8911,-4.8978,-4.8775,-4.8809,-4.8802,-4.8923,-4.8779,-4.8651,-4.8631,-4.7954,-4.7686,-4.7808,-4.7238,-4.6988,-4.7124,-4.6811,-4.6935,-4.7128,-4.73,-4.7562,-4.7562,-4.7872,-4.8252,-4.8493,-4.87,-4.9057,-4.9436,-4.9424,-4.9079,-4.9183,-4.8976,-4.9424,-4.9539,-4.8529,-4.7786,-4.7713,-4.7596,-4.7258,-4.7393,-4.7425,-4.7373,-6.4275,-6.33,-6.4686,-6.502,-6.4756,-6.3969,-6.3616,-6.3497,-6.3178,-6.2438,-6.1976,-6.2319,-6.1987,-6.0978,-6.0232,-5.9783,-6.0054,-5.9463,-5.9295,-5.9287,-5.8957,-5.8822,-5.8754,-5.8457,-5.8118,-5.8355,-5.8152,-5.7881,-5.7881,-5.8017,-5.8186,-5.7949,-5.7712,-5.7036,-5.6731,-5.6393,-5.6258,-5.6156,-5.5547,-5.4634,-5.4363,-5.3687,-5.3518,-5.3518,-5.3518,-5.3518,-5.3484,-5.3518,-5.3518,-5.3416,-5.3145,-5.2807,-5.2401,-5.1657,-5.1183,-5.0811,-5.0405,-4.9898,-4.9154,-4.9052,-4.9018,-4.9018,-4.9018,-4.8984,-4.8984,-4.9018,-4.8714,-4.8545,-4.8443,-4.8443,-4.7767,-4.8071,-4.8308,-4.8443,-4.8646,-4.8917,-4.9018,-4.9018,-4.9046,-4.8999,-4.9059,-4.8984,-4.9129,-4.9145,-4.8963,-4.8826,-4.8182,-4.7631,-4.7831,-4.7843,-4.7923,-4.8014,-4.8174,-4.822,-4.8163,-4.8621,-4.9091,-4.9114,-4.9251,-4.9492,-4.9674,-4.9907,-4.97,-4.9976,-5.0011,-4.9907,-4.9584,-4.8983,-4.8641,-4.8541,-4.7773,-4.6794,-4.7128,-4.7664,-4.7554,-6.4346,-6.3127,-6.3635,-6.3933,-6.4118,-6.41,-6.3784,-6.3232,-6.2843,-6.235,-6.1011,-6.1223,-6.0704,-5.9655,-5.9106,-5.901,-5.9252,-5.9221,-5.951,-5.9573,-5.9414,-5.9481,-5.9355,-5.9025,-5.8376,-5.8646,-5.8444,-5.8106,-5.8248,-5.8383,-5.8586,-5.8761,-5.8693,-5.8186,-5.7509,-5.6799,-5.6562,-5.6427,-5.5953,-5.5074,-5.4938,-5.4532,-5.4025,-5.3957,-5.389,-5.3687,-5.3585,-5.3518,-5.3518,-5.3518,-5.3382,-5.3179,-5.2807,-5.2401,-5.2029,-5.1691,-5.1251,-5.0676,-4.9898,-4.8714,-4.8578,-4.8551,-4.8612,-4.8748,-4.8951,-4.9018,-4.8781,-4.8511,-4.8308,-4.8003,-4.7428,-4.8139,-4.8477,-4.868,-4.8815,-4.9018,-4.9018,-4.9018,-4.9046,-4.9073,-4.9135,-4.9101,-4.9161,-4.9214,-4.9146,-4.9069,-4.8805,-4.8413,-4.8473,-4.8455,-4.8367,-4.8528,-4.8781,-4.8699,-4.8685,-4.9008,-4.9086,-4.8545,-4.868,-4.9146,-4.9436,-4.9683,-4.9894,-4.986,-4.986,-4.9952,-4.9698,-4.9197,-4.9231,-4.9393,-4.8382,-4.7364,-4.7637,-4.8117,-4.7581,-6.4525,-6.4042,-6.2514,-6.2866,-6.4075,-6.3064,-6.2332,-6.1929,-6.0909,-6.0619,-6.0839,-6.0601,-6.0012,-5.9341,-5.8714,-5.8782,-5.8875,-5.9118,-5.9756,-6.0192,-5.9967,-5.9866,-5.9708,-5.9371,-5.8791,-5.8504,-5.8471,-5.8623,-5.8698,-5.9136,-5.9279,-5.9464,-5.9641,-5.9539,-5.893,-5.8186,-5.7476,-5.6934,-5.6799,-5.619,-5.5784,-5.5547,-5.5175,-5.4702,-5.4566,-5.4329,-5.3856,-5.3551,-5.3518,-5.3518,-5.3518,-5.3416,-5.3315,-5.2739,-5.2435,-5.23,-5.1725,-5.1319,-5.0947,-4.8443,-4.774,-4.7916,-4.7909,-4.8213,-4.8815,-4.9018,-4.8984,-4.8714,-4.8815,-4.8815,-4.8815,-4.8815,-4.8714,-4.8883,-4.8984,-4.9018,-4.9018,-4.9018,-4.9046,-4.9046,-4.9018,-4.9018,-4.9018,-4.9046,-4.908,-4.9107,-4.9168,-4.9101,-4.9059,-4.895,-4.8737,-4.889,-4.9051,-4.8848,-4.8821,-4.9146,-4.9067,-4.8383,-4.8127,-4.8509,-4.8861,-4.9058,-4.927,-4.9599,-4.9752,-4.9848,-4.9699,-4.9385,-4.9362,-4.9224,-4.8961,-4.838,-4.8562,-4.8455,-4.785,-6.4135,-6.3501,-6.2636,-6.2549,-6.3064,-6.2749,-6.2316,-6.2099,-6.1374,-6.0449,-5.958,-5.9473,-5.8846,-5.816,-5.8556,-5.9007,-5.9598,-5.9591,-6.0284,-6.2111,-6.104,-6.114,-6.0906,-6.0147,-5.951,-5.96,-5.9499,-5.9131,-5.9208,-5.9678,-6.0068,-6.0256,-6.041,-6.0419,-5.9573,-5.8727,-5.7881,-5.7983,-5.7442,-5.6664,-5.6461,-5.6393,-5.6089,-5.5412,-5.5378,-5.4972,-5.4262,-5.389,-5.3585,-5.3518,-5.3518,-5.3518,-5.3518,-5.3044,-5.3078,-5.3078,-5.2706,-5.2198,-5.1217,-4.9323,-4.797,-4.7571,-4.747,-4.8017,-4.8774,-4.8962,-4.899,-4.9086,-4.9221,-4.9018,-4.8376,-4.8274,-4.8308,-4.8849,-4.9018,-4.9018,-4.9018,-4.9018,-4.9018,-4.9018,-4.9018,-4.9018,-4.9018,-4.9052,-4.9086,-4.9255,-4.9317,-4.9148,-4.9073,-4.9101,-4.9086,-4.9146,-4.9154,-4.8944,-4.8827,-4.8938,-4.8425,-4.7537,-4.7337,-4.7572,-4.7968,-4.8529,-4.8825,-4.9153,-4.9456,-4.9791,-4.9458,-4.926,-4.901,-4.8868,-4.8659,-4.8651,-4.8563,-4.8402,-4.794,-6.4392,-6.3604,-6.2662,-6.233,-6.2315,-6.2382,-6.2199,-6.1716,-6.1193,-5.9968,-5.8739,-5.8807,-5.8513,-5.803,-5.8397,-5.9522,-6.0536,-6.0804,-6.1219,-6.3217,-6.2266,-6.2066,-6.1814,-6.1046,-6.0345,-6.0345,-5.9998,-5.9664,-5.9777,-6.0011,-6.0504,-6.0897,-6.093,-6.057,-5.9937,-5.9194,-5.849,-5.849,-5.7881,-5.7408,-5.7408,-5.734,-5.6968,-5.6562,-5.6224,-5.575,-5.5006,-5.4363,-5.3754,-5.3653,-5.3518,-5.3518,-5.3518,-5.3518,-5.3518,-5.3518,-5.3382,-5.2672,-5.1285,-5.0168,-4.8686,-4.7477,-4.7571,-4.8483,-4.9472,-4.9932,-4.9932,-4.9898,-4.9695,-4.9492,-4.912,-4.8883,-4.8646,-4.9221,-4.9255,-4.9255,-4.9729,-4.9796,-4.9593,-4.956,-4.9255,-4.9221,-4.912,-4.9086,-4.9154,-4.926,-4.9429,-4.926,-4.9221,-4.9351,-4.9447,-4.944,-4.9294,-4.8921,-4.8663,-4.8497,-4.7756,-4.666,-4.6904,-4.735,-4.7744,-4.8372,-4.8507,-4.8748,-4.9217,-4.9516,-4.93,-4.9069,-4.89,-4.869,-4.8604,-4.8472,-4.8509,-4.8464,-4.8387,-6.5233,-6.4358,-6.2676,-6.1997,-6.2051,-6.2116,-6.1518,-6.0384,-5.9889,-5.9265,-5.8562,-5.8374,-5.8286,-5.8873,-5.896,-5.9743,-6.097,-6.1649,-6.2481,-6.2864,-6.2964,-6.2982,-6.2482,-6.175,-6.0968,-6.034,-6.0107,-6.027,-6.0384,-6.0765,-6.1246,-6.1374,-6.0763,-6.0572,-6.0247,-5.9785,-5.916,-5.8788,-5.8423,-5.8118,-5.8152,-5.8254,-5.7915,-5.7509,-5.707,-5.6461,-5.575,-5.5074,-5.4329,-5.3923,-5.3619,-5.3551,-5.3518,-5.3518,-5.3518,-5.345,-5.3382,-5.2503,-5.1623,-5.0608,-4.9932,-4.9024,-4.9463,-5.0391,-5.0459,-5.0304,-5.0236,-5.0439,-5.0439,-5.0777,-5.0879,-5.0168,-4.9492,-4.9661,-4.9661,-5.0101,-5.0777,-5.0845,-5.0574,-5.0304,-4.9864,-4.9661,-4.9526,-4.9424,-4.9227,-4.9869,-4.9974,-4.9805,-4.9801,-5.0033,-4.9999,-4.97,-4.9452,-4.8925,-4.858,-4.8334,-4.759,-4.6622,-4.7204,-4.7732,-4.8051,-4.8105,-4.8317,-4.857,-4.9037,-4.9231,-4.918,-4.9021,-4.8839,-4.8694,-4.867,-4.8906,-4.9126,-4.9394,-4.9379,-6.3904,-6.4323,-6.1979,-6.1367,-6.1917,-6.1862,-6.1662,-6.1388,-6.0558,-5.9898,-5.9698,-5.8552,-5.8407,-5.8217,-5.8668,-5.9827,-6.0953,-6.198,-6.3239,-6.379,-6.3876,-6.3358,-6.2828,-6.2348,-6.1567,-6.0986,-6.0755,-6.0688,-6.0837,-6.1334,-6.1383,-6.138,-6.1107,-6.0985,-6.0617,-6.0326,-5.9674,-5.9119,-5.8754,-5.8626,-5.8727,-5.8863,-5.8558,-5.8084,-5.7679,-5.7103,-5.6494,-5.5784,-5.504,-5.4397,-5.4262,-5.4126,-5.3518,-5.3484,-5.3382,-5.2706,-5.2604,-5.2367,-5.2029,-5.1758,-5.1251,-5.071,-5.1116,-5.045,-5.021,-4.9936,-5.0168,-5.0541,-5.0777,-5.0913,-5.0811,-5.027,-5.0202,-5.0473,-5.0304,-5.0202,-5.0845,-5.115,-5.0913,-5.0541,-5.0135,-4.9763,-4.9627,-4.9362,-4.9299,-5.0177,-5.0582,-5.0379,-5.0409,-5.0578,-5.0608,-5.0244,-4.9893,-4.9473,-4.8706,-4.8345,-4.7454,-4.6827,-4.7418,-4.776,-4.7606,-4.7731,-4.8028,-4.8418,-4.8942,-4.9106,-4.9206,-4.9032,-4.8859,-4.9064,-4.9108,-4.9393,-4.971,-4.9821,-4.9821,-6.3345,-6.4148,-6.1927,-6.1357,-6.2043,-6.179,-6.179,-6.1689,-6.1079,-6.0617,-6.0137,-5.9226,-5.9126,-5.9743,-5.996,-6.0953,-6.2941,-6.314,-6.3935,-6.4597,-6.4399,-6.3835,-6.3305,-6.2742,-6.2013,-6.1483,-6.1119,-6.102,-6.1119,-6.1169,-6.1252,-6.1334,-6.1465,-6.128,-6.0993,-6.0638,-6.0259,-5.9708,-5.9178,-5.8923,-5.8991,-5.9133,-5.8592,-5.849,-5.8152,-5.7645,-5.7239,-5.6528,-5.5683,-5.4803,-5.46,-5.4262,-5.3551,-5.3247,-5.2672,-5.2063,-5.186,-5.186,-5.1657,-5.1386,-5.1589,-5.1592,-5.142,-5.0541,-5.024,-5.0101,-5.0371,-5.0676,-5.0676,-5.0642,-5.0308,-5.0207,-5.0879,-5.1519,-5.0811,-5.0168,-5.0608,-5.1116,-5.0947,-5.0574,-5.0202,-4.9763,-4.9429,-4.9198,-4.9236,-4.9974,-5.0582,-5.0851,-5.0851,-5.1051,-5.1082,-5.0815,-5.049,-5.0073,-4.9231,-4.8306,-4.7684,-4.7318,-4.7738,-4.7831,-4.7465,-4.7639,-4.8239,-4.8568,-4.8786,-4.8942,-4.9023,-4.9116,-4.9103,-4.921,-4.921,-4.934,-4.9501,-4.9661,-4.9693,-6.3205,-6.4287,-6.2255,-6.1728,-6.2234,-6.1951,-6.1709,-6.1628,-6.1399,-6.0935,-6.0273,-5.9993,-6.0456,-6.0821,-6.092,-6.2013,-6.3239,-6.3703,-6.3968,-6.5194,-6.473,-6.4034,-6.3272,-6.3073,-6.2113,-6.145,-6.1119,-6.1119,-6.1119,-6.1086,-6.1169,-6.1119,-6.1252,-6.1283,-6.1183,-6.0865,-6.0625,-6.0437,-5.9755,-5.9194,-5.9389,-5.8991,-5.8355,-5.8788,-5.8524,-5.7983,-5.7814,-5.7137,-5.619,-5.5243,-5.4634,-5.4397,-5.3551,-5.301,-5.2266,-5.1589,-5.142,-5.1217,-5.1082,-5.071,-5.0753,-5.0486,-4.9944,-4.97,-4.9763,-4.9898,-5.0135,-5.0202,-5.0168,-5.0574,-5.0541,-4.9999,-5.0265,-5.0977,-5.0943,-5.0841,-5.1251,-5.142,-5.1048,-5.0574,-4.9898,-4.956,-4.9864,-4.9666,-4.9526,-5.0033,-5.0338,-5.0747,-5.102,-5.122,-5.1157,-5.0957,-5.0383,-4.9791,-4.9,-4.8256,-4.8102,-4.7927,-4.8142,-4.8266,-4.8081,-4.8266,-4.8543,-4.8656,-4.8759,-4.8738,-4.8769,-4.8883,-4.8965,-4.8965,-4.8965,-4.9078,-4.9241,-4.9434,-4.9864,-6.2648,-6.3622,-6.2597,-6.2133,-6.2076,-6.2223,-6.1984,-6.1465,-6.1628,-6.1283,-6.0837,-6.0324,-6.0258,-6.0788,-6.1086,-6.1914,-6.2345,-6.3405,-6.3603,-6.3868,-6.3935,-6.3603,-6.2643,-6.2543,-6.1914,-6.1417,-6.1119,-6.1119,-6.1086,-6.1086,-6.1086,-6.1119,-6.1136,-6.1069,-6.1268,-6.1068,-6.0935,-6.0998,-6.0311,-5.9734,-5.9644,-5.9785,-5.9633,-5.9422,-5.8984,-5.866,-5.8389,-5.7915,-5.6833,-5.575,-5.5513,-5.4769,-5.3585,-5.3315,-5.2503,-5.1555,-5.1251,-5.098,-5.0642,-5.0338,-5.0312,-5.0281,-4.994,-4.9598,-4.9458,-4.9526,-4.956,-4.9593,-4.9864,-5.0371,-5.0574,-5.0028,-4.969,-5.0401,-5.104,-5.1417,-5.1725,-5.1386,-5.1014,-5.0371,-4.9593,-4.9661,-4.9999,-5.013,-5.0023,-5.0023,-5.0119,-5.0328,-5.0544,-5.0686,-5.0493,-5.0257,-4.9739,-4.9079,-4.8477,-4.82,-4.8109,-4.8112,-4.8235,-4.8419,-4.8604,-4.8604,-4.8604,-4.8604,-4.8604,-4.8604,-4.8604,-4.8604,-4.8687,-4.8718,-4.8924,-4.9099,-4.9161,-4.9357,-4.9915,-6.1292,-6.2301,-6.2036,-6.1829,-6.1784,-6.2167,-6.2064,-6.1628,-6.1628,-6.1499,-6.1086,-6.0721,-6.0655,-6.0788,-6.1119,-6.155,-6.1881,-6.2477,-6.3073,-6.3206,-6.3073,-6.2875,-6.2444,-6.208,-6.1715,-6.1285,-6.1152,-6.1119,-6.1086,-6.0788,-6.0721,-6.1251,-6.1152,-6.0953,-6.1318,-6.1318,-6.1169,-6.1185,-6.0603,-6.0284,-5.9964,-6.0047,-5.9641,-5.9304,-5.9077,-5.8781,-5.8457,-5.8017,-5.734,-5.619,-5.5581,-5.4025,-5.301,-5.2672,-5.2469,-5.1894,-5.142,-5.1048,-5.0642,-5.0405,-5.0236,-5.0168,-4.9734,-4.9323,-4.965,-4.9684,-4.9255,-4.9323,-4.9763,-5.0304,-5.0541,-5.0168,-5.0101,-5.0541,-5.0507,-5.0544,-5.0409,-5.0101,-4.9932,-4.9729,-4.9255,-4.9255,-4.9656,-4.9989,-4.9882,-4.9554,-4.9684,-4.9675,-4.9917,-4.9923,-4.9824,-4.9702,-4.9199,-4.8987,-4.8644,-4.8388,-4.8224,-4.8296,-4.8296,-4.8481,-4.8604,-4.8604,-4.8604,-4.8604,-4.8604,-4.8604,-4.8604,-4.8604,-4.8604,-4.8604,-4.882,-4.9066,-4.9211,-4.9211,-4.9708,-5.9955,-6.0968,-6.1129,-6.1231,-6.1366,-6.1975,-6.2043,-6.1709,-6.1709,-6.1499,-6.1119,-6.1086,-6.1516,-6.1616,-6.1516,-6.2146,-6.2411,-6.2113,-6.2477,-6.2709,-6.2808,-6.2345,-6.208,-6.1914,-6.1516,-6.1285,-6.1152,-6.1119,-6.1119,-6.0788,-6.0887,-6.1583,-6.1318,-6.0788,-6.1483,-6.1516,-6.1119,-6.1069,-6.0771,-6.0787,-6.0503,-6.0231,-5.97,-5.9252,-5.8824,-5.8605,-5.8241,-5.7775,-5.7471,-5.6461,-5.531,-5.3923,-5.2976,-5.2739,-5.2672,-5.2401,-5.2334,-5.1894,-5.1386,-5.0913,-5.0634,-5.0221,-4.9554,-4.952,-4.9921,-4.9656,-4.9227,-4.939,-4.983,-5.0067,-5.024,-5.0338,-5.0371,-5.0477,-5.0143,-4.9645,-4.9304,-4.9029,-4.9092,-4.9154,-4.9154,-4.912,-4.9554,-4.9916,-4.9616,-4.9289,-4.9173,-4.9155,-4.9094,-4.8892,-4.8711,-4.89,-4.8978,-4.8751,-4.8418,-4.8386,-4.8204,-4.8235,-4.8235,-4.845,-4.8604,-4.8604,-4.8604,-4.8604,-4.8604,-4.8604,-4.8604,-4.8604,-4.8604,-4.8604,-4.8727,-4.8912,-4.8974,-4.9149,-4.9458,-6.0066,-6.0306,-6.0359,-6.0689,-6.1264,-6.1467,-6.1571,-6.1676,-6.1709,-6.1499,-6.1169,-6.1119,-6.1218,-6.1318,-6.1218,-6.1483,-6.1682,-6.1483,-6.1384,-6.1483,-6.1815,-6.1583,-6.145,-6.1516,-6.1285,-6.1152,-6.1119,-6.1119,-6.1053,-6.092,-6.102,-6.1417,-6.1285,-6.1053,-6.1185,-6.1218,-6.1251,-6.1119,-6.1086,-6.1103,-6.0953,-6.0784,-6.0779,-6.0324,-5.9856,-5.9466,-5.9017,-5.816,-5.7318,-5.6246,-5.5072,-5.4126,-5.3653,-5.345,-5.345,-5.3653,-5.3585,-5.3145,-5.2672,-5.2164,-5.1854,-5.1191,-5.0793,-5.0676,-5.0612,-4.9852,-4.9617,-4.967,-4.994,-4.9839,-4.994,-4.9767,-4.9796,-5.0146,-5.0183,-4.9155,-4.8394,-4.8744,-4.9029,-4.9159,-4.9193,-4.9565,-5.027,-5.0038,-4.9274,-4.8986,-4.8629,-4.8521,-4.7985,-4.7804,-4.7652,-4.7956,-4.8301,-4.784,-4.7308,-4.796,-4.7989,-4.8081,-4.8204,-4.845,-4.8604,-4.8604,-4.8604,-4.8789,-4.8696,-4.8635,-4.8635,-4.8758,-4.8604,-4.8604,-4.8604,-4.8696,-4.8789,-4.9004,-4.9396]}]]